[[{"header":{"parameterUnit":"m.s-1","parameterCategory":1,"la1":30.6,"la2":28.766,"lo1":-90.7593,"lo2":-88.6598,"dx":0.0162,"dy":0.0183,"nx":116,"ny":114,"refTime":"2022-11-24T18:00:00:Z","depth":0,"parameterNumber":2,"parameterNumberName":"U-component_of_WINDS"},"data":[0.0,0.0,0.0,0.0,0.0,0.0,0.0,0.0,0.0,0.0,0.0,0.0,0.0,0.0,0.0,0.0,0.0,0.0,0.0,0.0,0.0,0.0,0.0,0.0,0.0,0.0,0.0,0.0,0.0,0.0,0.0,0.0,0.0,0.0,0.0,0.0,0.0,0.0,0.0,0.0,0.0,0.0,0.0,0.0,0.0,0.0,0.0,0.0,0.0,0.0,0.0,0.0,0.0,0.0,0.0,0.0,0.0,0.0,0.0,0.0,0.0,0.0,0.0,0.0,0.0,0.0,0.0,0.0,0.0,0.0,0.0,0.0,0.0,0.0,0.0,0.0,0.0,0.0,0.0,0.0,0.0,0.0,0.0,0.0,0.0,0.0,0.0,0.0,0.0,0.0,0.0,0.0,0.0,0.0,0.0,0.0,0.0,0.0,0.0,0.0,0.0,0.0,0.0,0.0,0.0,0.0,0.0,0.0,0.0,0.0,0.0,0.0,0.0,0.0,0.0,0.0,0.0,0.0,0.0,0.0,0.0,0.0,0.0,0.0,0.0,0.0,0.0,0.0,0.0,0.0,0.0,0.0,0.0,0.0,0.0,0.0,0.0,0.0,0.0,0.0,0.0,0.0,0.0,0.0,0.0,0.0,0.0,0.0,0.0,0.0,0.0,0.0,0.0,0.0,0.0,0.0,0.0,0.0,0.0,0.0,0.0,0.0,0.0,0.0,0.0,0.0,0.0,0.0,0.0,0.0,0.0,0.0,0.0,0.0,0.0,0.0,0.0,0.0,0.0,0.0,0.0,0.0,0.0,0.0,0.0,0.0,0.0,0.0,0.0,0.0,0.0,0.0,0.0,0.0,0.0,0.0,0.0,0.0,0.0,0.0,0.0,0.0,0.0,0.0,0.0,0.0,0.0,0.0,0.0,0.0,0.0,0.0,0.0,0.0,0.0,0.0,0.0,0.0,0.0,0.0,0.0,0.0,0.0,0.0,0.0,0.0,0.0,0.0,0.0,0.0,0.0,0.0,0.0,0.0,0.0,0.0,0.0,0.0,0.0,0.0,0.0,0.0,0.0,0.0,0.0,0.0,0.0,0.0,0.0,0.0,0.0,0.0,0.0,0.0,0.0,0.0,0.0,0.0,0.0,0.0,0.0,0.0,0.0,0.0,0.0,0.0,0.0,0.0,0.0,0.0,0.0,0.0,0.0,0.0,0.0,0.0,0.0,0.0,0.0,0.0,0.0,0.0,0.0,0.0,0.0,0.0,0.0,0.0,0.0,0.0,0.0,0.0,0.0,0.0,0.0,0.0,0.0,0.0,0.0,0.0,0.0,0.0,0.0,0.0,0.0,0.0,0.0,0.0,0.0,0.0,0.0,0.0,0.0,0.0,0.0,0.0,0.0,0.0,0.0,0.0,0.0,0.0,0.0,0.0,0.0,0.0,0.0,0.0,0.0,0.0,0.0,0.0,0.0,0.0,0.0,0.0,0.0,0.0,0.0,0.0,0.0,0.0,0.0,0.0,0.0,0.0,0.0,0.0,0.0,0.0,0.0,0.0,0.0,0.0,0.0,0.0,0.0,0.0,0.0,0.0,0.0,0.0,0.0,0.0,0.0,0.0,0.0,0.0,0.0,0.0,0.0,0.0,0.0,0.0,0.0,0.0,0.0,0.0,0.0,0.0,0.0,0.0,0.0,0.0,0.0,0.0,0.0,0.0,0.0,0.0,0.0,0.0,0.0,0.0,0.0,0.0,0.0,0.0,0.0,0.0,0.0,0.0,0.0,0.0,0.0,0.0,0.0,0.0,0.0,0.0,0.0,0.0,0.0,0.0,0.0,0.0,0.0,0.0,0.0,0.0,0.0,0.0,0.0,0.0,0.0,0.0,0.0,0.0,0.0,0.0,0.0,0.0,0.0,0.0,0.0,0.0,0.0,0.0,0.0,0.0,0.0,0.0,0.0,0.0,0.0,0.0,0.0,0.0,0.0,0.0,0.0,0.0,0.0,0.0,0.0,0.0,0.0,0.0,0.0,0.0,0.0,0.0,0.0,0.0,0.0,0.0,0.0,0.0,0.0,0.0,0.0,0.0,0.0,0.0,0.0,0.0,0.0,0.0,0.0,0.0,0.0,0.0,0.0,0.0,0.0,0.0,0.0,0.0,0.0,0.0,0.0,0.0,0.0,0.0,0.0,0.0,0.0,0.0,0.0,0.0,0.0,0.0,0.0,0.0,0.0,0.0,0.0,0.0,0.0,0.0,0.0,0.0,0.0,0.0,0.0,0.0,0.0,0.0,0.0,0.0,0.0,0.0,0.0,0.0,0.0,0.0,0.0,0.0,0.0,0.0,0.0,0.0,0.0,0.0,0.0,0.0,0.0,0.0,0.0,0.0,0.0,0.0,0.0,0.0,0.0,0.0,0.0,0.0,0.0,0.0,0.0,0.0,0.0,0.0,0.0,0.0,0.0,0.0,0.0,0.0,0.0,0.0,0.0,0.0,0.0,0.0,0.0,0.0,0.0,0.0,0.0,0.0,0.0,0.0,0.0,0.0,0.0,0.0,0.0,0.0,0.0,0.0,0.0,0.0,0.0,0.0,0.0,0.0,0.0,0.0,0.0,0.0,0.0,0.0,0.0,0.0,0.0,0.0,0.0,0.0,0.0,0.0,0.0,0.0,0.0,0.0,0.0,0.0,0.0,0.0,0.0,0.0,0.0,0.0,0.0,0.0,0.0,0.0,0.0,0.0,0.0,0.0,0.0,0.0,0.0,0.0,0.0,0.0,0.0,0.0,0.0,0.0,0.0,0.0,0.0,0.0,0.0,0.0,0.0,0.0,0.0,0.0,0.0,0.0,0.0,0.0,0.0,0.0,0.0,0.0,0.0,0.0,0.0,0.0,0.0,0.0,0.0,0.0,0.0,0.0,0.0,0.0,0.0,0.0,0.0,0.0,0.0,0.0,0.0,0.0,0.0,0.0,0.0,0.0,0.0,0.0,0.0,0.0,0.0,0.0,0.0,0.0,0.0,0.0,0.0,0.0,0.0,0.0,0.0,0.0,0.0,0.0,0.0,0.0,0.0,0.0,0.0,0.0,0.0,0.0,0.0,0.0,0.0,0.0,0.0,0.0,0.0,0.0,0.0,0.0,0.0,0.0,0.0,0.0,0.0,0.0,0.0,0.0,0.0,0.0,0.0,0.0,0.0,0.0,0.0,0.0,0.0,0.0,0.0,0.0,0.0,0.0,0.0,0.0,0.0,0.0,0.0,0.0,0.0,0.0,0.0,0.0,0.0,0.0,0.0,0.0,0.0,0.0,0.0,0.0,0.0,0.0,0.0,0.0,0.0,0.0,0.0,0.0,0.0,0.0,0.0,0.0,0.0,0.0,0.0,0.0,0.0,0.0,0.0,0.0,0.0,0.0,0.0,0.0,0.0,0.0,0.0,0.0,0.0,0.0,0.0,0.0,0.0,0.0,0.0,0.0,0.0,0.0,0.0,0.0,0.0,0.0,0.0,0.0,0.0,0.0,0.0,0.0,0.0,0.0,0.0,0.0,0.0,0.0,0.0,0.0,0.0,0.0,0.0,0.0,0.0,0.0,0.0,0.0,0.0,0.0,0.0,0.0,0.0,0.0,0.0,0.0,0.0,0.0,0.0,0.0,0.0,0.0,0.0,0.0,0.0,0.0,0.0,0.0,0.0,0.0,0.0,0.0,0.0,0.0,0.0,0.0,0.0,0.0,0.0,0.0,0.0,0.0,0.0,0.0,0.0,0.0,0.0,0.0,0.0,0.0,0.0,0.0,0.0,0.0,0.0,0.0,0.0,0.0,0.0,0.0,0.0,0.0,0.0,0.0,0.0,0.0,0.0,0.0,0.0,0.0,0.0,0.0,0.0,0.0,0.0,0.0,0.0,0.0,0.0,0.0,0.0,0.0,0.0,0.0,0.0,0.0,0.0,0.0,0.0,0.0,0.0,0.0,0.0,0.0,0.0,0.0,0.0,0.0,0.0,0.0,0.0,0.0,0.0,0.0,0.0,0.0,0.0,0.0,0.0,0.0,0.0,0.0,0.0,0.0,0.0,0.0,0.0,0.0,0.0,0.0,0.0,0.0,0.0,0.0,0.0,0.0,0.0,0.0,0.0,0.0,0.0,0.0,0.0,0.0,0.0,0.0,0.0,0.0,0.0,0.0,0.0,0.0,0.0,0.0,0.0,0.0,0.0,0.0,0.0,0.0,0.0,0.0,0.0,0.0,0.0,0.0,0.0,0.0,0.0,0.0,0.0,0.0,0.0,0.0,0.0,0.0,0.0,0.0,0.0,0.0,0.0,0.0,0.0,0.0,0.0,0.0,0.0,0.0,0.0,0.0,0.0,0.0,0.0,0.0,0.0,0.0,0.0,0.0,0.0,0.0,0.0,0.0,0.0,0.0,0.0,0.0,0.0,0.0,0.0,0.0,0.0,0.0,0.0,0.0,0.0,0.0,0.0,0.0,0.0,0.0,0.0,0.0,0.0,0.0,0.0,0.0,0.0,0.0,0.0,0.0,0.0,0.0,0.0,0.0,0.0,0.0,0.0,0.0,0.0,0.0,0.0,0.0,0.0,0.0,0.0,0.0,0.0,0.0,0.0,0.0,0.0,0.0,0.0,0.0,0.0,0.0,0.0,0.0,0.0,0.0,0.0,0.0,0.0,0.0,0.0,0.0,0.0,0.0,0.0,0.0,0.0,0.0,0.0,0.0,0.0,0.0,0.0,0.0,0.0,0.0,0.0,0.0,0.0,0.0,0.0,0.0,0.0,0.0,0.0,0.0,0.0,0.0,0.0,0.0,0.0,0.0,0.0,0.0,0.0,0.0,0.0,0.0,0.0,0.0,0.0,0.0,0.0,0.0,0.0,0.0,0.0,0.0,0.0,0.0,0.0,0.0,0.0,0.0,0.0,0.0,0.0,0.0,0.0,0.0,0.0,0.0,0.0,0.0,0.0,0.0,0.0,0.0,0.0,0.0,0.0,0.0,0.0,0.0,0.0,0.0,0.0,0.0,0.0,0.0,0.0,0.0,0.0,0.0,0.0,0.0,0.0,0.0,0.0,0.0,0.0,0.0,0.0,0.0,0.0,0.0,0.0,0.0,0.0,0.0,0.0,0.0,0.0,0.0,0.0,0.0,0.0,0.0,0.0,0.0,0.0,0.0,0.0,0.0,0.0,0.0,0.0,0.0,0.0,0.0,0.0,0.0,0.0,0.0,0.0,0.0,0.0,0.0,0.0,0.0,0.0,0.0,0.0,0.0,0.0,0.0,0.0,0.0,0.0,0.0,0.0,0.0,0.0,0.0,0.0,0.0,0.0,0.0,0.0,0.0,0.0,0.0,0.0,0.0,0.0,0.0,0.0,0.0,0.0,0.0,0.0,0.0,0.0,0.0,0.0,0.0,0.0,0.0,0.0,0.0,0.0,0.0,0.0,0.0,0.0,0.0,0.0,0.0,0.0,0.0,0.0,0.0,0.0,0.0,0.0,0.0,0.0,0.0,0.0,0.0,0.0,0.0,0.0,0.0,0.0,0.0,0.0,0.0,0.0,0.0,0.0,0.0,0.0,0.0,0.0,0.0,0.0,0.0,0.0,0.0,0.0,0.0,0.0,0.0,0.0,0.0,0.0,0.0,0.0,0.0,0.0,0.0,0.0,0.0,0.0,0.0,0.0,0.0,0.0,0.0,0.0,0.0,0.0,0.0,0.0,0.0,0.0,0.0,0.0,0.0,0.0,0.0,0.0,0.0,0.0,0.0,0.0,0.0,0.0,0.0,0.0,0.0,0.0,0.0,0.0,0.0,0.0,0.0,0.0,0.0,0.0,0.0,0.0,0.0,0.0,0.0,0.0,0.0,0.0,0.0,0.0,0.0,0.0,0.0,0.0,0.0,0.0,0.0,0.0,0.0,0.0,0.0,0.0,0.0,0.0,0.0,0.0,0.0,0.0,0.0,0.0,0.0,0.0,0.0,0.0,0.0,0.0,0.0,0.0,0.0,0.0,0.0,0.0,0.0,0.0,0.0,0.0,0.0,0.0,0.0,0.0,0.0,0.0,0.0,0.0,0.0,0.0,0.0,0.0,0.0,-4.0341,-3.6138,0.0,0.0,0.0,0.0,0.0,0.0,0.0,0.0,0.0,0.0,0.0,0.0,0.0,0.0,0.0,0.0,0.0,0.0,0.0,0.0,0.0,0.0,0.0,0.0,0.0,0.0,0.0,0.0,0.0,0.0,0.0,0.0,0.0,0.0,0.0,0.0,-2.3028,-2.3519,-2.3158,-2.3414,-2.4249,-2.4092,-2.3355,-2.2274,0.0,0.0,0.0,0.0,0.0,0.0,0.0,0.0,0.0,0.0,0.0,0.0,0.0,0.0,0.0,0.0,0.0,0.0,0.0,0.0,0.0,0.0,0.0,0.0,0.0,0.0,0.0,0.0,0.0,0.0,0.0,0.0,0.0,0.0,0.0,0.0,0.0,0.0,0.0,0.0,0.0,0.0,0.0,0.0,0.0,0.0,0.0,0.0,0.0,0.0,0.0,0.0,0.0,0.0,0.0,0.0,0.0,0.0,0.0,0.0,0.0,0.0,0.0,0.0,0.0,0.0,0.0,0.0,0.0,0.0,-4.406,-4.1899,0.0,0.0,0.0,0.0,0.0,0.0,0.0,0.0,0.0,0.0,0.0,0.0,0.0,0.0,0.0,0.0,0.0,0.0,0.0,0.0,0.0,0.0,0.0,-2.2888,-2.293,-2.3014,-2.3055,-2.3027,0.0,0.0,0.0,0.0,0.0,0.0,-2.3158,-2.3638,-2.412,-2.4548,-2.4748,-2.533,-2.627,-2.67,-2.601,-2.4348,-2.3856,0.0,0.0,0.0,0.0,0.0,0.0,0.0,0.0,0.0,0.0,0.0,0.0,0.0,0.0,0.0,0.0,0.0,0.0,0.0,0.0,0.0,0.0,0.0,0.0,0.0,0.0,0.0,0.0,0.0,0.0,0.0,0.0,0.0,0.0,0.0,0.0,0.0,0.0,0.0,0.0,0.0,0.0,0.0,0.0,0.0,0.0,0.0,0.0,0.0,0.0,0.0,0.0,0.0,0.0,0.0,0.0,0.0,0.0,0.0,0.0,0.0,0.0,0.0,-4.6642,-4.6899,-4.7025,-4.7025,-4.7989,-4.9577,-4.7895,-4.8145,-4.9326,-4.452,0.0,0.0,0.0,0.0,0.0,0.0,0.0,0.0,0.0,0.0,0.0,0.0,0.0,0.0,0.0,0.0,0.0,0.0,0.0,0.0,0.0,-2.3646,-2.3922,-2.4612,-2.4623,-2.4565,-2.4428,0.0,0.0,0.0,0.0,-2.4083,-2.4611,-2.4108,-2.4416,-2.5611,-2.6545,-2.7357,-2.8083,-2.8713,-2.8873,-2.8479,-2.6081,-2.4697,-2.4133,0.0,0.0,0.0,0.0,0.0,0.0,0.0,0.0,0.0,0.0,0.0,0.0,0.0,0.0,0.0,0.0,0.0,0.0,0.0,0.0,0.0,0.0,0.0,0.0,0.0,0.0,0.0,0.0,0.0,0.0,0.0,0.0,0.0,0.0,0.0,0.0,0.0,0.0,0.0,0.0,0.0,-3.8496,-3.9905,0.0,0.0,0.0,0.0,0.0,0.0,0.0,0.0,0.0,0.0,0.0,0.0,0.0,-4.4997,-4.5872,-4.8035,-4.9402,-5.003,-5.1988,-5.3228,-5.3828,-5.3828,-5.4301,-5.5165,-5.4881,0.0,-4.8542,-4.8988,0.0,0.0,0.0,0.0,0.0,0.0,0.0,0.0,0.0,0.0,0.0,0.0,0.0,0.0,0.0,0.0,0.0,0.0,0.0,0.0,0.0,-2.4198,-2.4597,-2.4913,-2.4918,-2.4824,-2.4701,-2.5035,0.0,0.0,-2.5748,-2.5993,-2.5784,-2.6289,-2.6957,-2.7822,-2.8669,-2.9427,-3.0074,-3.0381,-3.072,-3.1028,-2.9427,-2.795,-2.6534,-2.5487,0.0,0.0,0.0,0.0,0.0,0.0,0.0,0.0,0.0,0.0,0.0,0.0,0.0,0.0,0.0,0.0,0.0,0.0,0.0,0.0,0.0,0.0,0.0,0.0,0.0,0.0,0.0,0.0,0.0,0.0,0.0,0.0,0.0,0.0,0.0,0.0,0.0,0.0,0.0,-3.601,-3.7841,-3.9617,-3.837,-3.7281,0.0,0.0,0.0,0.0,0.0,0.0,0.0,0.0,0.0,-4.8686,-4.9259,-5.0053,-5.1234,-5.2681,-5.3701,-5.4352,-5.5386,-5.622,-5.6915,-5.6915,-5.7073,-5.739,-5.7769,-5.6636,-5.4348,-5.2533,-5.059,-4.8612,0.0,0.0,0.0,0.0,-4.6608,-4.6982,0.0,0.0,0.0,0.0,0.0,0.0,0.0,0.0,0.0,0.0,0.0,0.0,-2.4336,-2.4922,-2.5424,-2.5758,-2.5792,-2.5815,-2.5909,-2.6361,-2.6655,-2.6842,-2.7755,-2.811,-2.7818,-2.8995,-2.98,-3.0166,-3.0817,-3.152,-3.2194,-3.2194,-3.2471,-3.2934,-3.2441,-3.1059,-2.9089,-2.7734,-2.6842,-2.6204,0.0,0.0,0.0,0.0,0.0,0.0,0.0,0.0,0.0,0.0,0.0,0.0,0.0,0.0,0.0,0.0,0.0,0.0,0.0,0.0,0.0,0.0,0.0,0.0,0.0,0.0,0.0,0.0,0.0,0.0,0.0,0.0,0.0,0.0,0.0,0.0,0.0,-3.8401,-3.9427,-4.0577,-4.0922,-4.0608,0.0,0.0,0.0,0.0,0.0,0.0,-4.9282,-4.9658,-5.0828,-5.3069,-5.3982,-5.5204,-5.6726,-5.7263,-5.7864,-5.8559,-5.8559,-5.8843,-5.9349,-5.9349,-5.9349,-5.938,-5.9886,-6.0202,-6.0107,-5.6496,-5.4925,-5.4629,-5.2488,-5.1101,-5.0393,-5.133,-5.1664,-5.2072,0.0,0.0,0.0,0.0,0.0,0.0,0.0,0.0,0.0,0.0,0.0,-2.437,-2.5818,-2.6025,-2.6611,-2.8109,-2.8213,-2.849,-2.9128,-2.9093,-2.9328,-2.9952,-2.9618,-3.0041,-3.1338,-3.179,-3.2102,-3.2228,-3.2906,-3.3614,-3.4351,-3.4351,-3.4351,-3.4382,-3.4351,-3.3211,-3.1151,-2.9827,-2.9243,-2.9002,-2.6972,0.0,0.0,0.0,0.0,0.0,0.0,0.0,0.0,0.0,0.0,0.0,0.0,0.0,0.0,0.0,0.0,0.0,0.0,0.0,0.0,0.0,0.0,0.0,0.0,0.0,0.0,0.0,0.0,0.0,0.0,0.0,0.0,0.0,0.0,0.0,0.0,0.0,0.0,-4.6059,-4.8373,0.0,0.0,0.0,0.0,-4.8067,-4.8255,-5.015,-5.4316,-5.3982,-5.5506,-5.9696,-5.9286,-5.9665,-6.1055,-6.1119,-6.1498,-6.2112,-6.2112,-6.2144,-6.2175,-6.2175,-6.2175,-6.2175,-6.2207,-6.2667,-6.3141,-6.1624,-5.9349,-5.6895,-5.7367,-5.5862,-5.3709,-5.6567,-5.7587,-5.7965,0.0,0.0,0.0,0.0,0.0,-2.2716,-2.2716,-2.3095,-2.3509,-2.3784,-2.4646,-2.568,-2.6764,-2.7316,-2.8006,-2.9041,-2.9059,-2.9334,-2.9982,-3.037,-3.0855,-3.152,-3.2306,-3.3073,-3.3852,-3.3277,-3.3225,-3.3765,-3.4012,-3.4474,-3.5152,-3.5152,-3.5398,-3.5768,-3.5337,-3.4751,-3.395,-3.2567,-3.149,-3.0566,-2.9402,-2.8695,0.0,0.0,0.0,0.0,0.0,0.0,0.0,0.0,0.0,0.0,0.0,0.0,0.0,0.0,0.0,0.0,0.0,0.0,0.0,0.0,0.0,0.0,0.0,0.0,0.0,0.0,0.0,0.0,0.0,0.0,0.0,0.0,0.0,0.0,0.0,0.0,0.0,-4.5816,-4.8255,0.0,-4.813,-5.016,-5.2031,-5.3161,-5.5386,-5.7442,-5.9002,-5.9696,-6.0565,-6.1624,-6.1877,-6.2035,-6.2067,-6.2067,-6.2414,-6.311,-6.311,-6.3331,-6.3773,-6.3773,-6.3773,-6.3805,-6.4247,-6.4595,-6.4867,-6.4784,-6.3464,-6.1595,-6.2045,-6.1442,-6.054,-6.1712,-6.2189,-6.2347,0.0,0.0,0.0,-2.2716,-2.2716,-2.2716,-2.2716,-2.3336,-2.3888,-2.4163,-2.5301,-2.6488,-2.7558,-2.8109,-2.8799,-2.9834,-3.0092,-3.0486,-3.1183,-3.21,-3.2889,-3.3515,-3.4888,-3.5575,-3.5487,-3.4936,-3.481,-3.5136,-3.5149,-3.5488,-3.6132,-3.5921,-3.6045,-3.6476,-3.6014,-3.583,-3.5799,-3.4845,-3.3675,-3.241,-3.1705,-3.1028,-3.0228,0.0,0.0,0.0,0.0,0.0,0.0,0.0,0.0,0.0,0.0,0.0,0.0,0.0,0.0,0.0,0.0,0.0,0.0,0.0,0.0,0.0,0.0,0.0,0.0,0.0,0.0,0.0,0.0,0.0,0.0,0.0,0.0,0.0,0.0,-4.5734,-4.798,-4.6228,-4.9716,-5.1863,-5.1006,-5.4033,-5.6748,-5.8341,-6.0754,-6.2193,-6.2446,-6.3331,-6.3742,-6.3489,-6.3931,-6.4058,-6.3836,-6.3836,-6.4058,-6.4532,-6.431,-6.4512,-6.5071,-6.4819,-6.4767,-6.4915,-6.5797,-6.6165,-6.6196,-6.6975,-6.6638,-6.5597,-6.5313,-6.5123,-6.4967,-6.5175,-6.5227,-6.5227,0.0,-2.2716,-2.2716,-2.2716,-2.2716,-2.2716,-2.2716,-2.3371,-2.4129,-2.4936,-2.5695,-2.6764,-2.8282,-2.8454,-2.9075,-3.0627,-3.142,-3.2179,-3.2972,-3.4321,-3.5419,-3.6056,-3.7238,-3.7378,-3.6324,-3.6891,-3.697,-3.6463,-3.6504,-3.6846,-3.7419,-3.6816,-3.6538,-3.6569,-3.6538,-3.6507,-3.6507,-3.6507,-3.5737,-3.4505,-3.3767,-3.3059,-3.2321,0.0,0.0,0.0,0.0,0.0,0.0,0.0,0.0,0.0,0.0,0.0,0.0,0.0,0.0,0.0,0.0,0.0,0.0,0.0,0.0,0.0,0.0,0.0,0.0,0.0,0.0,0.0,0.0,0.0,0.0,0.0,0.0,0.0,-4.5822,-4.8569,-5.0021,-4.795,-5.3353,-5.6951,-5.614,-5.8718,-6.1277,-6.3362,-6.352,-6.3836,-6.45,-6.4563,-6.4911,-6.5626,-6.5658,-6.5922,-6.6586,-6.6617,-6.6649,-6.6617,-6.5985,-6.5912,-6.6255,-6.5533,-6.5405,-6.5848,-6.6806,-6.7229,-6.7314,-6.831,-6.8703,-6.8545,-6.7218,-6.6681,-6.6681,-6.6681,-6.6681,-6.6681,-2.2716,-2.2716,-2.2716,-2.2716,-2.2716,-2.2888,-2.3405,-2.4163,-2.4922,-2.5695,-2.6971,-2.8144,-2.911,-2.973,-3.0662,-3.2145,-3.249,-3.3348,-3.518,-3.5675,-3.661,-3.8261,-3.8136,-3.814,-3.8381,-3.8144,-3.7903,-3.7762,-3.735,-3.749,-3.8115,-3.753,-3.7492,-3.7923,-3.743,-3.7215,-3.7184,-3.6692,-3.6292,-3.5861,-3.5183,-3.4506,-3.3827,0.0,0.0,0.0,0.0,0.0,0.0,0.0,0.0,0.0,0.0,0.0,0.0,0.0,0.0,0.0,0.0,0.0,0.0,0.0,0.0,0.0,0.0,0.0,0.0,0.0,0.0,0.0,0.0,0.0,0.0,0.0,-4.9031,-5.1297,-5.0187,-5.182,-5.3512,-5.4415,-5.6983,-5.9018,-5.9839,-6.1561,-6.3046,-6.4152,-6.4721,-6.5069,-6.5258,-6.5764,-6.6112,-6.6333,-6.6333,-6.6396,-6.6617,-6.7091,-6.7313,-6.7313,-6.766,-6.7891,-6.8026,-6.7805,-6.7751,-6.7886,-6.8161,-6.8278,-6.831,-6.8608,-6.8703,-6.864,-6.8261,-6.8134,-6.8134,-6.8134,-6.8134,-6.8134,-2.2993,-2.294,-2.2863,-2.2863,-2.276,-2.2957,-2.3681,-2.4474,-2.5247,-2.599,-2.7454,-2.8696,-2.942,-3.0213,-3.1282,-3.2766,-3.349,-3.4539,-3.613,-3.7084,-3.8243,-3.9778,-3.9311,-3.9098,-3.9295,-3.8892,-3.8701,-3.8701,-3.8373,-3.8405,-3.876,-3.8466,-3.8398,-3.8508,-3.8108,-3.7923,-3.7861,-3.7184,-3.6907,-3.6846,-3.6168,-3.5521,-3.4874,-3.4445,-3.386,-3.3211,-3.2475,-3.1551,-3.0628,-3.032,0.0,0.0,0.0,0.0,0.0,0.0,0.0,0.0,0.0,0.0,0.0,0.0,0.0,0.0,0.0,0.0,0.0,0.0,0.0,0.0,0.0,0.0,0.0,0.0,-5.307,-5.5355,-5.6049,-5.6467,-5.7042,-5.799,-5.957,-6.115,-6.2572,-6.3426,-6.4342,-6.5322,-6.5764,-6.6017,-6.6017,-6.6396,-6.6744,-6.6997,-6.7028,-6.7155,-6.7471,-6.785,-6.8071,-6.8071,-6.8166,-6.8333,-6.8508,-6.8224,-6.8044,-6.7935,-6.8218,-6.8241,-6.8098,-6.8382,-6.8697,-6.8949,0.0,0.0,0.0,0.0,-6.8703,-6.8703,-2.3421,-2.3271,-2.3126,-2.3089,-2.2889,-2.2997,-2.3819,-2.4543,-2.5316,-2.6143,-2.7558,-2.8765,-2.942,-3.0282,-3.142,-3.2904,-3.4352,-3.5628,-3.6628,-3.8528,-3.9935,-4.068,-4.0436,-4.0028,-3.9532,-3.9375,-3.9295,-3.9295,-3.9448,-3.9466,-3.9418,-3.9527,-3.9281,-3.8723,-3.8662,-3.8631,-3.8569,-3.7831,-3.7492,-3.743,-3.6753,-3.6138,-3.5614,-3.5614,-3.5213,-3.4536,-3.386,-3.3213,-3.2536,-3.1948,0.0,0.0,0.0,0.0,0.0,0.0,0.0,0.0,0.0,0.0,0.0,0.0,0.0,0.0,0.0,0.0,0.0,0.0,0.0,0.0,0.0,0.0,0.0,0.0,-5.7121,-5.9568,-6.1838,-6.1408,-6.0613,-5.9854,-6.1498,-6.3173,-6.45,-6.469,-6.5258,-6.6523,-6.6681,-6.6712,-6.6712,-6.6807,0.0,0.0,0.0,-6.8039,-6.8671,-6.8766,-6.8766,-6.8671,-6.8197,-6.8035,-6.8257,-6.788,-6.7582,-6.7277,-6.8082,-6.8162,-6.788,-6.8477,-6.9106,-6.964,-6.9075,-6.8901,-6.8996,-6.8996,-6.9082,-6.9146,-2.3488,-2.3375,-2.3271,-2.3126,-2.304,-2.3428,-2.4585,-2.4902,-2.5488,-2.6902,-2.8351,-2.9351,-2.9489,-3.0765,-3.2179,-3.3751,-3.4663,-3.6284,-3.887,-3.9961,-4.0542,-4.068,-4.0436,-4.0238,-4.0138,-3.9978,-3.9927,-3.9927,-4.0053,-4.0127,-4.0132,-4.0228,-4.0252,-4.0074,-3.9521,-3.9305,-3.9247,-3.8015,-3.7492,-3.743,-3.6753,-3.6415,-3.6292,-3.6292,-3.5861,-3.5306,-3.5152,-3.466,-3.4073,-3.395,-3.3827,-3.3519,-3.2351,-3.2013,0.0,0.0,0.0,0.0,0.0,0.0,0.0,0.0,0.0,0.0,0.0,0.0,0.0,0.0,0.0,0.0,0.0,0.0,0.0,-5.6631,-5.9647,-6.1751,-6.226,-6.3602,-6.4089,-6.2825,-6.352,-6.4437,-6.529,-6.589,-6.6301,-6.6586,-6.7091,-6.7407,-6.7407,-6.7976,-6.8355,-6.8482,-6.8482,-6.8545,-6.8703,-6.924,-6.9209,-6.8703,-6.9683,0.0,-6.868,-7.0203,-7.0582,-7.0084,-7.1282,-7.1812,-7.1743,-7.1844,-7.197,-7.197,-7.0255,-7.0098,-7.0771,-7.0771,-7.1288,-7.2021,-2.3847,-2.3674,-2.3555,-2.3468,-2.3342,-2.3693,-2.4969,-2.5171,-2.5669,-2.709,-2.8592,-2.9489,-2.9489,-3.1214,-3.28,-3.3992,-3.5476,-3.7456,-4.0112,-4.0238,-4.0363,-4.0776,-4.0607,-4.0461,-4.0387,-4.0337,-4.0238,-4.0113,-4.0961,-4.1172,-4.0798,-4.1606,-4.1662,-4.099,-4.0647,-4.029,-3.989,-3.8569,-3.8015,-3.7923,-3.6907,-3.6507,-3.6507,-3.6507,-3.6292,-3.5984,-3.5984,-3.5553,-3.4998,-3.4998,-3.4782,-3.4382,-3.3673,-3.3457,-3.3334,0.0,0.0,0.0,0.0,0.0,0.0,0.0,0.0,0.0,0.0,0.0,0.0,0.0,0.0,-4.8757,-5.1859,0.0,-5.7024,-6.034,-6.2284,-6.3734,-6.4601,-6.5491,-6.5523,-6.4172,-6.4911,-6.5701,-6.6048,-6.6712,-6.7091,-6.7091,-6.7755,-6.8134,-6.8134,-6.8482,-6.8829,-6.9177,-6.9177,-6.9367,-6.9746,-7.041,-7.0568,-7.0252,-7.1294,-7.1421,-7.0789,-7.1832,-7.1926,-7.1326,-7.1907,-7.2002,-7.1832,-7.1976,-7.2044,-7.1955,-7.1147,-7.1326,-7.2044,-7.2044,-7.238,-7.2811,-2.419,-2.4026,-2.3847,-2.3806,-2.361,-2.3922,-2.5218,-2.5411,-2.5876,-2.7215,-2.8553,-2.9384,-2.9489,-3.1282,-3.2972,-3.4234,-3.627,-3.841,-4.0549,-4.0043,-4.0043,-4.086,-4.0752,-4.0631,-4.0534,-4.0485,-4.0362,-4.0188,-4.1596,-4.189,-4.1172,-4.2497,-4.2468,-4.1309,-4.1147,-4.0784,-4.0217,-3.8849,-3.8323,-3.82,-3.6999,-3.6507,-3.6507,-3.6507,-3.6507,-3.6507,-3.6507,-3.6138,-3.5676,-3.5676,-3.5337,-3.4874,-3.4751,-3.469,-3.4659,-3.4536,-3.6415,0.0,0.0,0.0,0.0,0.0,0.0,0.0,0.0,-4.4117,-4.5175,-4.9416,-5.0808,-5.2313,-5.5815,-5.782,-6.0248,-6.3979,-6.4863,-6.5504,-6.6981,-6.686,-6.6243,-6.537,-6.6269,-6.6881,-6.6807,-6.7407,-6.7818,-6.7818,-6.8482,-6.8893,-6.8893,-6.9019,-6.9335,-6.9872,-7.003,-7.0378,-7.0978,-7.1674,-7.1958,-7.1832,-7.2495,-7.2653,-7.2432,-7.2843,-7.2653,-7.2021,-7.2044,-7.1913,-7.161,-7.1861,-7.1965,-7.2028,-7.2359,-7.2782,-7.3191,-7.3006,-7.3038,-7.3222,-2.419,-2.417,-2.4066,-2.3837,-2.3785,-2.4219,-2.5538,-2.575,-2.6215,-2.7476,-2.8378,-2.9057,-2.9437,-3.0351,-3.2041,-3.4855,-3.6581,-3.8168,-3.9733,-3.9733,-4.0043,-4.086,-4.0752,-4.0714,-4.069,-4.0436,-4.0362,-4.0461,-4.1154,-4.1219,-4.0681,-4.1405,-4.1317,-4.0582,-3.9942,-3.9598,-3.944,-3.818,-3.7615,-3.7554,-3.6784,-3.6507,-3.6507,-3.6507,-3.6507,-3.6507,-3.6507,-3.6445,-3.6384,-3.6384,-3.6322,-3.6168,-3.5583,-3.5398,-3.5275,-3.469,-3.4782,-3.4998,-3.4597,-3.7404,-4.1451,-4.5559,-4.6122,-4.7543,0.0,-5.3735,-5.259,-5.7132,-5.796,-5.8953,-6.2363,-6.2777,-6.3517,-6.629,-6.6807,-6.7014,-6.735,-6.7343,-6.7484,-6.7892,-6.8084,-6.8001,-6.7524,-6.8134,-6.8577,-6.8577,-6.9177,-6.9556,-6.9556,-7.0188,-7.0599,-7.0662,-7.1263,-7.161,-7.1705,-7.2369,-7.2401,-7.1832,-7.2495,-7.2179,-7.1073,-7.2938,-7.338,-7.2748,-7.4012,-7.4486,-7.4423,-7.4459,-7.449,-7.449,-7.4585,-7.4585,-7.4581,-7.3686,-7.3903,-7.4644,-2.419,-2.419,-2.4161,-2.4046,-2.4026,-2.4481,-2.5781,-2.5997,-2.6485,-2.7755,-2.8438,-2.9063,-2.9738,-3.1097,-3.3007,-3.5594,-3.6042,-3.6995,-3.8905,-3.9043,-3.9388,-4.017,-4.0582,-4.0776,-4.0714,-4.0655,-4.0607,-4.051,-4.1262,-4.1427,-4.1092,-4.1755,-4.1738,-4.1087,-4.0678,-4.0324,-3.9993,-3.8987,-3.8337,-3.7966,-3.7521,-3.7119,-3.6785,-3.6785,-3.6785,-3.6785,-3.6569,-3.6507,0.0,-3.6507,-3.6507,-3.6445,-3.6168,-3.6076,-3.6014,-3.5737,-3.7061,-3.9468,-4.3304,-4.4289,-4.5184,-4.9008,-5.0012,-5.114,-5.5205,-5.4697,-5.474,-5.9754,-6.1099,-6.1976,-6.3606,-6.4578,-6.5606,-6.7346,-6.7439,-6.7713,-6.8927,-6.8744,-6.8899,-7.0173,-7.0582,-7.0118,-6.8423,-6.9607,-7.0097,-6.9327,-6.9936,-7.0315,-7.0315,-7.0978,-7.1389,-7.1389,-7.2053,-7.2401,-7.2401,-7.3096,-7.3317,-7.3033,-7.3696,-7.3728,-7.3222,-7.4075,-7.4297,-7.4044,-7.4644,-7.4897,-7.4897,-7.4897,-7.4897,-7.4897,-7.4897,-7.4897,-7.4866,-7.4463,-7.4526,-7.4897,-2.419,-2.419,-2.419,-2.419,-2.419,-2.4681,-2.6023,-2.6291,-2.679,-2.8066,-2.855,-2.9107,-3.0039,-3.1673,-3.3509,-3.5501,-3.5471,-3.6139,-3.7953,-3.8212,-3.872,-3.9664,-4.025,-4.064,-4.0752,-4.0799,-4.0752,-4.0607,-4.1204,-4.1429,-4.128,-4.1776,-4.1756,-4.1272,-4.0967,-4.0606,-4.0144,-3.9426,-3.8795,-3.8352,-3.8107,-3.777,-3.7419,-3.727,-3.721,-3.7089,-3.6662,-3.6507,-3.6507,-3.6507,-3.6507,-3.6507,-3.6507,-3.6507,-3.6507,-3.6507,-3.8385,-4.1754,-4.7488,-4.8278,-4.8146,-5.1287,-5.3323,-5.477,-5.5857,-5.6176,-5.7393,-6.1297,-6.2898,-6.3819,-6.4397,-6.5772,-6.7197,-6.8238,-6.8405,-6.8993,-7.0498,-7.0372,-7.0662,-7.2052,-7.2873,-7.2547,-7.0647,-7.1733,-7.2026,-7.0748,-7.1583,-7.2185,-7.2185,-7.2429,-7.27,-7.3035,-7.337,-7.3721,-7.4028,-7.4455,-7.4664,-7.4664,-7.4821,-7.4897,-7.4897,-7.4897,-7.4897,-7.4897,-7.4897,-7.4897,-7.4897,-7.5118,-7.5182,-7.5213,-7.5403,-7.5466,-7.5466,-7.5466,-7.534,-7.5213,-2.419,-2.419,-2.419,-2.419,-2.419,-2.474,-2.6345,-2.6591,-2.7065,-2.8396,-2.8612,-2.9111,-3.0347,-3.1588,-3.279,-3.3961,-3.5081,-3.6031,-3.6781,-3.729,-3.8203,-3.9629,-3.9733,-4.0077,-4.0894,-4.0752,-4.0786,-4.0871,-4.0786,-4.082,-4.0905,-4.0796,-4.0724,-4.0676,-3.9961,-3.9573,-3.9382,-3.8783,-3.8423,-3.8311,-3.8278,-3.8334,-3.839,-3.7998,-3.7738,-3.7472,-3.6785,-3.6507,-3.6507,-3.6507,-3.6507,-3.6507,-3.6507,-3.6507,-3.6507,-3.6507,-3.703,-3.845,-4.2147,-4.5223,-4.8263,-5.1884,-5.582,-5.9017,-5.9786,-6.1186,-6.2427,-6.2788,-6.3812,-6.4943,-6.5869,-6.7085,-6.8286,-6.9291,-7.0348,-7.1232,-7.1625,-7.2097,-7.2666,-7.3459,-7.4548,-7.5114,-7.4839,-7.4858,-7.4321,-7.3009,-7.4604,-7.5639,-7.5639,-7.4858,-7.4962,-7.6159,-7.5734,-7.6071,-7.7166,-7.6701,-7.6532,-7.6532,-7.5423,-7.4897,-7.4897,-7.4897,-7.4897,-7.4897,-7.4897,-7.4897,-7.496,-7.5656,-7.5972,-7.6035,-7.6667,-7.692,-7.692,-7.692,-7.6509,-7.6035,-2.43,-2.419,-2.419,-2.419,-2.464,-2.5374,-2.6429,-2.6602,-2.6947,-2.7942,-2.8821,0.0,0.0,0.0,0.0,0.0,-3.4018,-3.5012,-3.5999,-3.6701,-3.7422,-3.8203,-3.9181,-3.9836,-4.0077,-4.0571,-4.0847,-4.0894,-4.0847,-4.0799,-4.0786,-4.0738,-4.0714,-4.0714,-4.0328,-4.0229,-4.0229,-3.9944,-3.9584,-3.9183,-3.9401,-3.9269,-3.8947,-3.881,-3.8728,-3.8557,0.0,-3.7088,-3.6507,-3.6507,-3.6507,-3.6507,-3.6507,-3.6507,-3.6569,-3.703,-3.9172,-4.1987,-4.5011,-4.8709,-5.2554,-5.6057,-5.8562,-6.0599,-6.2068,-6.2646,-6.318,-6.4523,-6.417,-6.3702,-6.417,-6.5775,-6.7123,-6.7445,-6.9755,-7.209,-7.3663,-7.3507,-7.4076,-7.6322,-7.6496,-7.6392,-7.6325,-7.6666,-7.6435,-7.5368,-7.609,-7.6609,-7.6609,-7.6457,-7.6571,-7.694,-7.7211,-7.7606,-7.798,-7.7837,-7.7369,-7.6621,-7.5423,-7.4897,-7.4897,-7.5403,-7.5624,-7.5656,-7.6098,-7.6288,-7.6288,-7.654,-7.6635,-7.6667,-7.6888,-7.6983,-7.7046,-7.7488,-7.752,-7.7299,-2.5144,-2.5071,-2.5071,-2.5071,-2.5474,0.0,0.0,0.0,0.0,0.0,0.0,0.0,0.0,0.0,0.0,0.0,0.0,-3.4184,-3.5208,-3.5746,-3.6387,-3.7186,-3.8061,-3.8732,-3.9284,-3.9802,-4.0204,-4.0457,-4.0457,-4.0571,-4.0752,-4.0752,-4.0752,-4.0752,-4.068,-4.0655,-4.0714,-4.0607,-4.0474,-4.0315,-3.9985,-3.9792,-3.9655,-3.8964,-3.8661,0.0,-3.7726,-3.7001,-3.6487,-3.663,-3.6693,-3.6662,-3.6569,-3.6661,-3.7216,-3.9046,-4.1451,-4.4507,-4.8835,-5.2186,-5.5355,-5.8791,-6.074,-6.2118,-6.3347,-6.3875,-6.4593,-6.622,-6.5003,-6.3715,-6.4013,-6.5545,-6.6437,-6.5304,-6.8234,-7.133,-7.3354,-7.3252,-7.4267,-7.7811,-7.7846,-7.7772,-7.8275,-7.8745,-7.8497,-7.7293,-7.819,-7.8791,-7.8791,-7.8422,-7.8484,-7.8994,-7.8919,-7.9135,-7.9531,-7.9135,-7.8444,-7.7595,-7.6471,-7.605,-7.6305,-7.6338,-7.6351,-7.6382,-7.6793,-7.6983,-7.6983,-7.7236,-7.7362,-7.7362,-7.7523,-7.768,-7.7804,-7.8123,-7.828,-7.8342,-2.6602,-2.6602,-2.6602,0.0,0.0,0.0,0.0,0.0,0.0,0.0,0.0,0.0,0.0,0.0,0.0,0.0,0.0,0.0,-3.447,-3.4551,-3.5231,-3.6665,-3.6478,-3.7016,-3.8489,-3.8605,-3.8984,-3.9675,-3.9675,-4.0032,-4.0791,-4.0791,-4.0791,-4.0791,-4.0791,-4.072,-4.0577,-4.0577,-4.094,-4.1321,-3.9918,-3.9829,-4.0381,-3.8496,-3.7682,-3.7465,-3.6631,-3.6372,-3.6521,-3.6853,-3.7062,-3.7187,-3.7033,-3.7463,-3.8731,-4.2469,-4.3997,-4.6072,-5.2995,-5.5399,-5.668,-6.0016,-6.2273,-6.3678,-6.3711,-6.517,-6.6711,-6.754,-6.6038,-6.4686,-6.4877,-6.6167,-6.6217,-6.3235,-6.627,-6.961,-7.1302,-7.1788,-7.3582,-7.7948,-7.8529,-7.9182,-8.0572,-8.1031,-8.0513,-7.8761,-8.0754,-8.2085,-8.2041,-8.081,-8.0736,-8.2071,-8.0785,-8.0622,-8.181,-8.0656,-7.9849,-7.9471,-7.8289,-7.8078,-7.8668,-7.7557,-7.7046,-7.7046,-7.7078,-7.7078,-7.7141,-7.7804,-7.8057,-7.8059,-7.8502,-7.8849,-7.9037,-7.8786,-7.8849,-7.91,0.0,0.0,0.0,0.0,0.0,0.0,0.0,0.0,0.0,0.0,0.0,0.0,0.0,0.0,0.0,0.0,0.0,0.0,-3.4398,-3.4515,-3.4825,-3.551,-3.6283,-3.6996,-3.7678,-3.8579,-3.9132,-3.9342,-3.9342,-3.9273,-3.9203,-3.9203,-3.9203,-3.9203,-3.9203,-3.9181,-3.9135,-3.9135,-3.9216,-3.933,-3.8952,-3.894,-3.9032,-3.7956,-3.7876,-3.8163,-3.705,-3.6898,-3.7144,-3.6713,-3.8059,-4.0402,-4.2805,-4.4176,-4.5122,-4.6445,-4.931,-5.2467,-5.4208,-5.727,-6.0239,-6.1284,-6.3353,-6.5185,-6.555,-6.6667,-6.709,-6.5267,-6.3418,-6.14,-5.9119,-6.227,-6.4837,-6.3823,-6.9128,-7.3925,-7.5648,-7.5699,-7.6501,-7.9013,-7.9165,-7.9474,-8.0577,-8.1353,-8.1674,-8.1648,-8.2418,-8.2892,-8.2892,-8.2072,-8.1707,-8.2071,-8.1599,-8.1455,-8.181,-8.1201,-8.0386,-7.9384,-7.8835,-7.8131,-7.7496,-7.7672,-7.7741,-7.7773,-7.8342,-7.8563,-7.8595,-7.8753,-7.8847,-7.8847,-7.8912,-7.9037,-7.91,-7.8975,-7.9037,-7.91,0.0,0.0,0.0,0.0,0.0,0.0,0.0,0.0,0.0,0.0,0.0,0.0,0.0,0.0,0.0,0.0,0.0,0.0,0.0,-3.4054,-3.4248,-3.4833,-3.5315,-3.5809,-3.6381,-3.7404,-3.8023,-3.8137,-3.8509,-3.8684,-3.8594,-3.8594,-3.8594,-3.8594,-3.8594,-3.8594,-3.8594,-3.8594,-3.8594,0.0,0.0,-3.7594,-3.7456,-3.6408,-3.627,-3.6551,-3.6024,-3.7235,-3.9209,-4.0257,-4.1726,-4.3602,-4.5963,-4.6961,-4.7688,-4.9946,-5.2395,-5.4662,-5.653,-5.9587,-6.2201,-6.2175,-6.4281,-6.5989,-6.4413,-6.5113,-6.5283,-6.275,-6.0459,-5.8461,-5.709,-6.0774,-6.3484,-6.1846,-6.7764,-7.3077,-7.4541,-7.4667,-7.5755,-7.8846,-7.9179,-7.9737,-8.1074,-8.1566,-8.2146,-8.3033,-8.3138,-8.3164,-8.3075,-8.2442,-8.2071,-8.2071,-8.1918,-8.1948,-8.2293,-8.2056,-8.1936,-8.1929,-8.1179,-8.032,-7.9494,-7.9316,-7.8992,-7.8531,-7.8942,-7.91,-7.91,-7.91,-7.91,-7.9132,-7.8912,-7.8975,-7.91,-7.8912,-7.8975,-7.91,0.0,0.0,0.0,0.0,0.0,0.0,0.0,0.0,0.0,-2.95,-2.9317,-2.9574,0.0,0.0,0.0,0.0,0.0,0.0,0.0,0.0,-3.3531,-3.4205,-3.404,-3.4272,-3.5092,-3.5792,-3.6307,-3.6584,-3.7286,-3.7763,-3.7974,-3.7974,-3.7974,-3.7974,-3.7974,-3.7974,-3.7974,-3.7974,-3.7974,-3.787,-3.6559,-3.6008,-3.587,0.0,-3.4027,-3.416,-3.4541,-3.7373,-4.1493,-4.4903,-4.6355,-4.6977,-4.825,-4.8556,-4.9277,-5.3319,-5.4475,-5.5316,-5.9058,-6.163,-6.3136,-6.2497,-6.4908,-6.6289,-6.2096,-6.2382,-6.278,-6.0013,-5.7484,-5.5945,-5.6485,-5.9853,-6.184,-5.9506,-6.4986,-7.0096,-7.1622,-7.2178,-7.3981,-7.8182,-7.9049,-7.9949,-8.1749,-8.1727,-8.215,-8.3489,-8.3341,-8.312,-8.2931,-8.2442,-8.2118,-8.2024,-8.1974,-8.2259,-8.2914,-8.3121,-8.3782,-8.4942,-8.4027,-8.3167,-8.2434,-8.1369,-8.0239,-7.91,-7.91,-7.91,-7.91,-7.91,-7.91,-7.9037,-7.8786,-7.8849,-7.9037,-7.8786,-7.8849,-7.91,0.0,0.0,0.0,0.0,0.0,0.0,0.0,0.0,0.0,0.0,-3.098,-3.1017,0.0,0.0,0.0,0.0,0.0,0.0,0.0,0.0,0.0,-3.2907,-3.3256,-3.3936,-3.5002,-3.5238,-3.5419,-3.5492,-3.5364,-3.5149,-3.489,-3.489,-3.489,-3.489,-3.489,-3.489,-3.489,-3.489,-3.489,-3.4855,-3.4614,-3.4456,-3.4387,-3.3455,0.0,0.0,-3.4843,-3.7274,-4.0886,-4.5382,-4.8592,-5.1084,-5.3337,-5.5089,-5.6349,-5.6825,-5.8327,-5.9798,-5.9793,-6.1658,-6.3201,-6.1524,-6.4319,-6.6332,-6.2019,-6.2461,-6.2319,-5.7035,-5.5579,-5.4613,-5.2576,-5.5501,-5.9166,-6.2085,-6.6039,-7.0309,-7.4642,-7.5811,-7.6846,-7.8469,-7.9167,-8.015,-8.1749,-8.1727,-8.215,-8.3489,-8.3341,-8.3164,-8.3164,-8.2716,-8.2257,-8.1871,-8.2397,-8.2776,-8.2914,-8.4156,-8.4433,-8.3718,-8.4137,-8.3198,-8.1192,-8.0988,-8.0239,-7.91,-7.91,-7.91,-7.91,-7.91,-7.91,-7.91,-7.9037,-7.9037,-7.91,-7.9037,-7.9037,-7.91,0.0,0.0,0.0,0.0,0.0,0.0,0.0,-3.2118,-3.2632,-3.2632,-3.2632,-3.2485,-3.2082,-3.2008,-3.2339,0.0,0.0,0.0,0.0,0.0,0.0,0.0,0.0,0.0,-3.3757,-3.4629,-3.5002,-3.4846,0.0,-3.4763,-3.4368,-3.4174,-3.4096,-3.4096,-3.4096,-3.4096,-3.4096,-3.4096,-3.3854,-3.3421,-3.3041,-3.2904,-3.28,0.0,0.0,0.0,-3.4372,-3.6932,-4.0468,-4.3573,-4.8075,-5.2908,-5.6228,-5.7577,-5.819,-5.918,-5.9944,-6.0598,-6.0943,-6.2548,-6.4006,-6.3433,-6.5892,-6.6932,-6.0947,-6.0704,-5.9701,-5.2711,-5.1269,-5.0864,-4.9591,-5.2918,-5.6738,-5.9292,-6.4738,-6.9601,-7.2509,-7.539,-7.7385,-7.7856,-7.8879,-8.0106,-8.1426,-8.1561,-8.2107,-8.3279,-8.3253,-8.3075,-8.2851,-8.2396,-8.2185,-8.2362,-8.2742,-8.3293,-8.4087,-8.4846,-8.5114,-8.4899,-8.5293,-8.4505,-8.2774,-8.2149,-8.1192,-8.0027,-7.9381,-7.91,-7.91,-7.91,-7.91,-7.91,-7.91,-7.91,-7.91,-7.91,-7.91,-7.91,0.0,0.0,0.0,0.0,0.0,0.0,0.0,-3.3293,-3.3807,-3.3807,-3.3807,-3.355,-3.2913,-3.2839,-3.3109,0.0,0.0,0.0,0.0,0.0,0.0,0.0,0.0,0.0,0.0,0.0,0.0,-3.4253,-3.4467,0.0,0.0,0.0,0.0,0.0,-3.3632,-3.3524,-3.3371,-3.3371,-3.2904,0.0,0.0,-3.1317,0.0,0.0,0.0,0.0,0.0,-3.6096,-3.9127,-4.1707,-4.6281,-5.1649,-5.58,-5.7191,-5.7599,-5.9179,-5.9587,-5.9911,-6.1917,-6.3665,-6.5051,-6.5719,-6.7502,-6.719,-5.9799,-5.8529,-5.6836,-4.9268,-4.7431,-4.7293,-4.7638,-5.0881,-5.4074,-5.5715,-6.1724,-6.7023,-6.9354,-7.3469,-7.642,-7.7133,-7.8665,0.0,-8.0929,-8.1372,-8.2001,-8.2945,-8.3094,-8.2941,-8.2533,-8.2106,-8.2168,-8.288,-8.3052,-8.3811,-8.519,-8.5363,-8.5742,-8.6294,-8.6294,-8.5703,-8.4452,-8.3277,-8.2034,-8.0869,-7.9629,-7.91,-7.91,-7.91,-7.91,-7.91,-7.91,-7.91,-7.91,-7.91,-7.91,-7.91,0.0,0.0,0.0,0.0,0.0,0.0,0.0,-3.3293,-3.3807,-3.3807,-3.3807,-3.377,-3.3697,-3.3697,-3.3733,0.0,0.0,0.0,0.0,0.0,0.0,0.0,0.0,0.0,0.0,0.0,0.0,-3.3414,-3.2847,0.0,0.0,0.0,0.0,0.0,0.0,-3.1627,-3.1007,-3.1007,0.0,0.0,0.0,0.0,0.0,0.0,0.0,0.0,0.0,-3.4332,-3.5518,-4.1335,-4.3727,-4.5094,-4.9806,-5.3235,-5.5425,-5.4805,-5.6164,-5.8619,-6.2289,-6.4528,-6.5927,-6.6534,-6.7541,-6.6386,-5.908,-5.7009,-5.4922,-4.8957,-4.6569,-4.6017,-4.7431,-4.8596,-5.0581,-5.4352,-5.6899,-6.0819,-6.7729,-7.1089,-7.393,-7.6884,0.0,0.0,-8.0435,-8.1137,-8.1831,-8.2431,-8.2734,-8.2796,-8.2533,-8.2211,-8.2358,-8.288,-8.3569,-8.4328,-8.519,-8.5846,-8.6225,-8.6294,-8.6294,-8.5703,-8.4452,-8.3277,-8.2034,-8.0869,-7.9629,-7.91,-7.91,-7.91,-7.91,-7.91,-7.91,-7.91,-7.91,-7.91,-7.91,-7.91,0.0,0.0,0.0,0.0,0.0,0.0,-3.3146,-3.3587,-3.3807,-3.3807,-3.3807,-3.3807,-3.3807,-3.3807,-3.3807,-3.3807,0.0,0.0,0.0,0.0,0.0,0.0,0.0,0.0,0.0,0.0,-3.3592,-3.3592,-3.3142,0.0,0.0,0.0,0.0,0.0,0.0,-3.1627,-3.1317,-3.0886,0.0,0.0,0.0,0.0,0.0,0.0,0.0,0.0,0.0,0.0,-3.4614,-3.7992,-4.1024,-4.3454,-4.3856,-4.6526,-5.0404,-5.4868,-5.6848,-5.8558,-6.2993,-6.5019,-6.6179,-6.7371,-6.6098,-6.3309,-5.8486,-5.4946,-5.1217,-4.6055,-4.4492,-4.4389,-4.5458,-4.6286,-4.7734,-5.0714,-5.4305,-5.8069,-6.1973,-6.7411,-7.1691,-7.3626,-7.66,-7.8918,-8.0094,-8.106,-8.1924,-8.2638,-8.2846,-8.2796,-8.2533,-8.2257,-8.266,-8.3776,-8.3928,-8.4604,-8.5846,-8.6156,-8.6294,-8.6294,-8.6294,-8.6043,-8.5515,-8.3607,-8.2434,-8.1861,-7.9966,-7.91,-7.91,-7.91,-7.91,-7.91,-7.91,-7.91,-7.91,-7.91,-7.91,-7.91,0.0,0.0,0.0,0.0,0.0,-3.1947,-3.355,-3.3807,-3.3807,-3.3807,-3.4027,-3.4174,-3.4174,-3.4174,-3.4174,-3.4174,-3.344,0.0,0.0,0.0,0.0,0.0,0.0,0.0,0.0,0.0,-3.3807,-3.3807,-3.3465,-3.335,0.0,0.0,-3.2453,-3.2437,0.0,0.0,0.0,0.0,0.0,0.0,0.0,0.0,0.0,0.0,0.0,0.0,0.0,0.0,0.0,0.0,0.0,-4.144,-4.0124,-4.1657,-4.5233,-5.2079,-5.5094,-5.7223,-6.1973,-6.4566,-6.6321,-6.8112,-6.5163,-6.1,-5.7799,-5.3217,-4.839,-4.4086,-4.3,-4.3069,-4.3828,-4.4768,-4.5983,-4.7844,-5.1899,-5.5549,-5.7837,-6.3439,-6.8046,-7.0045,-7.2928,-7.5738,-7.8176,-8.0347,-8.1902,-8.2701,-8.2931,-8.2806,-8.2396,-8.2257,-8.2892,-8.4322,-8.4357,-8.4984,-8.6294,-8.6294,-8.6294,-8.6294,-8.6294,-8.6294,-8.6194,-8.3771,-8.2718,-8.2548,-8.0117,-7.91,-7.91,-7.91,-7.91,-7.91,-7.91,-7.91,-7.91,-7.91,-7.91,-7.9132,0.0,0.0,0.0,0.0,0.0,0.0,-3.355,-3.3807,-3.3807,-3.3807,-3.4491,-3.5004,-3.5004,-3.5004,-3.5004,-3.5004,-3.4234,0.0,0.0,0.0,0.0,0.0,0.0,0.0,0.0,0.0,-3.3807,-3.3807,-3.3465,-3.3465,-3.3793,-3.3105,-3.2795,-3.2779,0.0,0.0,0.0,0.0,0.0,0.0,0.0,0.0,-3.0679,0.0,0.0,0.0,0.0,0.0,0.0,0.0,0.0,0.0,0.0,-3.9733,-4.0573,-4.4618,-4.9152,-5.3893,-5.8657,-6.285,-6.6426,-6.8779,-6.5233,-6.0264,-5.7063,-5.2004,-4.7114,-4.3878,-4.2585,-4.2275,-4.3069,-4.4423,-4.5673,-4.6493,-4.9183,-5.2611,-5.6826,-5.9471,-6.2436,-6.6389,-6.7761,-6.9983,-7.4046,-7.8796,-8.186,-8.2474,-8.2941,-8.2896,-8.2118,-8.235,-8.3044,-8.437,-8.4924,-8.5535,-8.6294,-8.6294,-8.6294,-8.6294,-8.6294,-8.6294,-8.6194,-8.3771,-8.2718,-8.2548,-8.0117,-7.91,-7.91,-7.91,-7.91,-7.91,-7.91,-7.91,-7.91,-7.91,-7.91,-7.9195,0.0,0.0,0.0,0.0,0.0,0.0,0.0,-3.3807,-3.399,-3.4564,-3.4857,-3.5004,-3.5004,-3.5004,-3.4784,-3.4234,-3.3954,0.0,0.0,0.0,0.0,0.0,0.0,0.0,0.0,0.0,-3.4894,-3.5495,-3.5396,-3.541,-3.5495,-3.5027,-3.4647,-3.442,-3.3511,-3.2772,0.0,0.0,0.0,0.0,0.0,-2.9972,-3.0714,0.0,0.0,0.0,0.0,0.0,0.0,0.0,0.0,0.0,0.0,0.0,0.0,-4.1218,-4.4965,-4.9639,-5.3893,-5.6392,-5.7926,-5.8564,-5.5432,-5.1859,-5.0743,-4.6627,-4.2743,-4.1826,-4.1374,-4.136,-4.2216,-4.3207,-4.4492,-4.632,-4.8734,-5.1144,-5.3541,-5.892,-6.3624,-6.6348,-7.2056,-7.6706,-7.9079,-8.0553,-8.1653,-8.2474,-8.2625,-8.2533,-8.2118,-8.2684,-8.3447,-8.4356,-8.4357,-8.5018,-8.6294,-8.6294,-8.6294,-8.6294,-8.6294,-8.6294,-8.6244,-8.4664,-8.3934,-8.3771,-8.1369,-8.036,-8.0299,-7.9443,-7.91,-7.91,-7.91,-7.91,-7.91,-7.91,-7.91,-7.9227,0.0,0.0,0.0,0.0,0.0,0.0,0.0,-3.3587,-3.399,-3.4491,-3.4821,-3.5151,-3.5445,-3.5188,-3.4931,-3.4761,-3.4174,0.0,0.0,0.0,0.0,0.0,0.0,0.0,0.0,-3.5334,-3.5752,-3.6303,-3.6303,-3.6303,-3.6303,-3.6054,-3.5664,-3.5169,-3.4464,-3.3686,0.0,0.0,0.0,0.0,-3.0662,-3.0903,-3.111,0.0,0.0,0.0,0.0,0.0,0.0,0.0,0.0,0.0,0.0,0.0,0.0,0.0,-4.1795,-4.5043,-4.9368,-5.2021,-5.3514,-5.3366,-5.0424,-4.7523,-4.7353,-4.3889,-4.0762,-4.0847,-4.0776,-4.0968,-4.1847,-4.2654,-4.3966,-4.6217,-4.8528,-5.0971,-5.3687,-5.8581,-6.3066,-6.6168,-7.2967,-7.7938,-7.9364,-8.0521,-8.1567,-8.2394,-8.2579,-8.2442,-8.2012,-8.265,-8.3378,-8.4226,-8.4343,-8.5052,-8.6294,-8.6294,-8.6294,-8.6294,-8.6294,-8.6294,-8.6244,-8.5066,-8.4505,-8.4398,-8.2434,-8.1603,0.0,-8.0749,-8.0178,-7.9782,-7.9782,-7.9505,-7.91,-7.91,-7.9258,-7.9574,0.0,0.0,0.0,0.0,0.0,0.0,0.0,-3.322,-3.3733,-3.3807,-3.4491,-3.5298,-3.6119,-3.5481,-3.5298,-3.6046,0.0,0.0,0.0,0.0,0.0,0.0,0.0,0.0,-3.5261,-3.6083,-3.6523,-3.6633,-3.6633,-3.6633,-3.6633,-3.6633,-3.623,-3.5506,-3.5417,-3.4446,0.0,0.0,0.0,0.0,-3.2559,-3.2421,0.0,0.0,0.0,0.0,0.0,0.0,0.0,0.0,0.0,0.0,0.0,0.0,0.0,0.0,0.0,0.0,0.0,-4.9124,-5.1923,-5.1772,-4.9042,-4.6352,-4.6185,-4.3313,0.0,-4.0847,-4.0844,-4.1013,-4.1847,-4.2758,-4.4069,-4.6224,-4.8534,-5.1721,-5.6437,-5.8934,-6.1919,-6.6448,-7.1558,-7.5094,-7.5913,-7.915,-8.1523,-8.2429,-8.2705,-8.2522,-8.1858,-8.2211,-8.2904,-8.3983,-8.4742,-8.5501,-8.6294,-8.6294,-8.6294,-8.6294,-8.6294,-8.6294,-8.6244,-8.5118,-8.4611,-8.4558,-8.3332,-8.283,-8.283,-8.2718,-8.2034,-8.1015,-8.1015,-8.036,-7.935,-7.935,-7.97,-8.0333,0.0,0.0,0.0,0.0,0.0,0.0,0.0,0.0,0.0,0.0,-3.4491,-3.5078,-3.5298,-3.5114,-3.4821,0.0,0.0,0.0,0.0,0.0,0.0,0.0,0.0,0.0,-3.7793,-3.8028,-3.8726,-3.9958,-3.9958,-3.9958,-3.9958,-3.9958,-3.9382,-3.8325,-3.7452,-3.5507,0.0,0.0,0.0,0.0,-3.1972,-3.1938,0.0,0.0,0.0,0.0,-3.18,-3.1903,0.0,0.0,0.0,0.0,0.0,0.0,0.0,0.0,-3.925,-4.0101,-4.184,0.0,-4.3627,-4.34,-4.2821,-4.2206,0.0,-4.1199,-4.0607,-4.0847,-4.115,-4.1473,-4.1803,-4.3519,-4.5198,-4.622,-4.889,-5.2309,-5.6507,-6.3729,-6.929,-7.116,-7.5345,-7.7536,-7.6117,-7.8981,-8.1226,-8.2153,-8.2106,-8.1965,-8.181,-8.1871,-8.2609,-8.3983,-8.419,-8.4949,-8.6294,-8.6294,-8.6294,-8.6294,-8.6294,-8.6294,-8.6294,-8.6008,-8.5856,-8.5805,-8.4611,-8.4076,-8.4022,-8.311,-8.2548,-8.2263,-8.2263,-8.2091,-8.1861,-8.1861,-8.1674,-8.1575,0.0,0.0,0.0,0.0,0.0,0.0,0.0,0.0,0.0,0.0,0.0,0.0,0.0,0.0,0.0,0.0,0.0,0.0,0.0,0.0,0.0,0.0,0.0,0.0,-3.8652,-3.9423,-4.0215,-4.1095,-4.1095,-4.1095,-4.1095,-4.1095,-4.0673,-3.9767,-3.8078,-3.5868,0.0,0.0,0.0,-3.1834,-3.2179,0.0,0.0,0.0,0.0,0.0,-3.18,-3.18,0.0,-3.2248,-3.2904,-3.3662,0.0,0.0,0.0,0.0,-3.855,-3.9284,-4.0112,-4.0618,-4.0823,-4.0583,-4.0704,-4.0799,-4.0485,-4.0734,-4.1072,-4.1267,-4.1728,-4.2381,-4.3194,-4.5707,-4.7686,-4.7842,-5.2175,-5.668,-5.9902,-6.5402,-6.992,-7.1967,-7.5062,-7.7284,-7.8007,-7.9702,-8.1138,-8.206,-8.2012,-8.1871,-8.181,-8.1871,-8.2423,-8.3466,-8.3845,-8.4742,-8.6294,-8.6294,-8.6294,-8.6294,-8.6294,-8.6294,-8.6294,-8.6294,-8.6294,-8.6244,-8.5618,-8.536,-8.5308,-8.4611,-8.3988,-8.3552,-8.3552,-8.3221,-8.2718,-8.2718,-8.2575,-8.2454,0.0,0.0,0.0,0.0,0.0,0.0,0.0,0.0,0.0,0.0,0.0,0.0,0.0,0.0,0.0,0.0,0.0,0.0,0.0,0.0,0.0,0.0,0.0,-3.8175,-3.9239,-4.0581,-4.1352,-4.1462,-4.1462,-4.1462,-4.1462,-4.1462,-4.1151,-4.0474,-3.8285,-3.6206,0.0,0.0,-3.3248,-3.2007,-3.2524,0.0,0.0,0.0,0.0,0.0,0.0,0.0,0.0,-3.18,-3.2283,-3.3041,-3.3854,0.0,0.0,0.0,0.0,0.0,-3.9468,-4.0722,-4.1595,-4.072,-4.0704,-4.0776,-4.0387,-4.0966,-4.1638,-4.1763,-4.245,-4.3594,-4.5562,-4.828,-5.0259,-5.0415,-5.6579,-6.223,-6.474,-6.6869,-6.9002,-7.1322,-7.3713,-7.6318,-7.9417,-8.036,-8.1138,-8.1967,-8.2024,-8.1965,-8.181,-8.1965,-8.2311,-8.288,-8.3638,-8.4708,-8.6122,-8.626,-8.6294,-8.6294,-8.6294,-8.6194,-8.6008,-8.6194,-8.6194,-8.6043,-8.6194,-8.6294,-8.6294,-8.6294,-8.5703,-8.477,-8.477,-8.415,-8.3277,-8.3277,-8.3178,-8.3086,0.0,0.0,0.0,0.0,0.0,0.0,0.0,0.0,0.0,0.0,0.0,0.0,0.0,0.0,0.0,0.0,0.0,0.0,0.0,0.0,0.0,0.0,0.0,-3.9533,-4.1699,-4.1992,-4.2433,-4.313,-4.313,-4.313,-4.313,-4.313,-4.2377,-4.0942,-3.9201,-3.7514,-3.587,-3.4628,-3.3559,-3.2697,-3.2179,0.0,0.0,0.0,0.0,0.0,0.0,0.0,0.0,-3.18,-3.2283,-3.3041,-3.3854,0.0,0.0,0.0,0.0,0.0,-3.9491,-4.2718,-4.5027,-4.1395,-4.0704,-4.0776,-4.0387,-4.0966,-4.1613,-4.1613,-4.314,-4.5391,-4.8535,-4.9487,-5.0686,-5.3422,-5.9418,-6.5055,-6.8833,-7.3046,-7.4908,-7.2652,-7.601,-7.7831,-7.6269,-7.8928,-8.1094,-8.1814,-8.1858,-8.1823,-8.181,-8.1858,-8.2168,-8.288,-8.3638,-8.4466,-8.5363,-8.5984,-8.6294,-8.6294,-8.6294,-8.5754,-8.4804,-8.5856,-8.5754,-8.4822,-8.5856,-8.6294,-8.6294,-8.6294,-8.6194,-8.6008,-8.6008,-8.5907,-8.5754,-8.5754,-8.4797,-8.3472,0.0,0.0,0.0,0.0,0.0,0.0,0.0,0.0,0.0,0.0,0.0,0.0,0.0,0.0,0.0,0.0,0.0,0.0,0.0,0.0,0.0,0.0,0.0,0.0,0.0,-4.2727,-4.313,-4.3515,-4.3515,-4.3515,-4.3515,-4.3515,-4.265,-4.1042,-3.9883,-3.8325,-3.651,-3.4817,-3.3763,-3.3136,0.0,0.0,0.0,0.0,0.0,0.0,0.0,0.0,0.0,0.0,-3.2041,-3.2524,-3.3716,0.0,0.0,0.0,0.0,0.0,-3.9468,-4.1585,-4.3639,-4.4147,-4.606,-4.7768,-4.7548,-4.8724,-4.9275,-4.721,-4.822,-5.0076,-5.205,-5.3894,-5.7302,-6.3973,-6.4636,-6.5787,-7.0269,-7.1249,-7.1773,-7.2512,-7.4866,-7.6748,-7.7667,-7.9364,-8.0737,-8.153,-8.1585,-8.1668,-8.181,-8.181,-8.1948,-8.2293,-8.3018,-8.3776,-8.4535,-8.5328,-8.5915,-8.6294,-8.6294,-8.6008,-8.5515,-8.6043,-8.6008,-8.5515,-8.6093,-8.6294,-8.6294,-8.6294,-8.6294,-8.6294,-8.6294,-8.6294,-8.6178,-8.5211,-8.4645,-8.4101,0.0,0.0,0.0,0.0,0.0,0.0,0.0,0.0,0.0,0.0,0.0,0.0,0.0,0.0,0.0,0.0,0.0,0.0,0.0,0.0,-3.786,0.0,0.0,0.0,0.0,-4.3167,-4.3515,-4.3515,-4.3515,-4.3515,-4.3515,-4.3515,-4.2796,-4.1466,-4.0661,-3.9287,-3.7494,-3.5595,-3.4375,-3.3687,0.0,0.0,0.0,0.0,0.0,0.0,0.0,0.0,0.0,0.0,0.0,0.0,0.0,0.0,0.0,-3.6891,-3.7942,-3.8631,-3.9468,-4.0892,-4.2953,-4.6687,-4.9303,-5.1453,-5.3368,-5.452,-5.4563,-5.2528,-5.3494,-5.4874,-5.5492,-5.8274,-6.3031,-7.0734,-6.8413,-6.7219,-7.173,-7.0434,-7.0155,-7.3198,-7.4237,-7.6076,-7.946,-7.9713,-8.0155,-8.1208,-8.1345,-8.149,-8.1715,-8.1763,-8.181,-8.181,-8.2535,-8.3259,-8.4018,-8.4811,-8.557,-8.6294,-8.6294,-8.6144,-8.5907,-8.6194,-8.6144,-8.5907,-8.6194,-8.6294,-8.6294,-8.6294,-8.6294,-8.6294,-8.6294,-8.6294,-8.6026,-8.3877,-8.3821,-8.4504,0.0,0.0,0.0,0.0,0.0,0.0,0.0,0.0,0.0,0.0,0.0,0.0,0.0,0.0,0.0,0.0,0.0,0.0,-3.3733,-3.6134,-3.786,-3.8652,0.0,0.0,0.0,-4.3478,-4.3515,-4.3515,-4.3515,-4.3515,-4.3515,-4.3515,-4.325,-4.2736,-4.194,-4.0851,-3.9572,-3.7607,-3.5974,-3.4531,-3.3282,0.0,0.0,0.0,0.0,0.0,0.0,0.0,0.0,0.0,0.0,0.0,0.0,0.0,-3.5421,-3.7029,-3.8008,-3.8767,-3.9491,-4.2886,-4.6488,-4.7669,-4.5373,-4.4863,-5.2601,-5.2046,-5.0902,-5.4213,-5.6678,-5.829,-5.8497,-6.0878,-6.3554,-6.5646,-6.8201,-7.1136,-7.4802,-7.6076,-7.6543,-7.6447,-7.6685,-7.7647,-7.9633,-7.8992,-7.9189,-8.0883,-8.1248,-8.1393,-8.1442,-8.1633,-8.181,-8.181,-8.2535,-8.3259,-8.4018,-8.4811,-8.557,-8.6294,-8.6294,-8.5703,-8.4664,-8.5805,-8.5669,-8.4664,-8.5805,-8.6294,-8.6294,-8.6294,-8.6294,-8.6294,-8.6294,-8.6294,-8.5856,-8.2386,-8.2668,-8.4438,0.0,0.0,0.0,0.0,0.0,0.0,0.0,0.0,0.0,0.0,0.0,0.0,0.0,0.0,0.0,0.0,0.0,0.0,-3.3733,-3.6597,-3.8395,-3.8689,0.0,-4.2359,-4.3478,-4.3515,-4.3515,-4.3515,-4.3515,-4.3515,-4.3515,-4.3515,-4.3304,-4.2865,-4.205,-4.1051,-3.9753,-3.7823,-3.638,-3.5249,-3.3559,-3.2731,0.0,0.0,0.0,0.0,0.0,0.0,0.0,0.0,-3.2283,-3.3041,-3.3854,-3.4594,-3.5594,-3.7616,-3.8375,-3.8893,-4.0112,-4.3793,-4.7479,-4.8301,-4.8017,-4.9539,-5.7307,-5.8564,-5.8187,-5.8426,-6.1084,-6.295,-6.171,-6.645,-6.9986,-6.8281,-7.0763,-7.3577,-7.563,-7.6111,-7.6447,-7.6946,-7.6937,-7.7311,-7.8339,-7.764,-7.7797,-7.9274,-7.9459,-7.9809,-8.0398,-8.0529,-8.0913,-8.1538,-8.1813,-8.2377,-8.3328,-8.4087,-8.4846,-8.5639,-8.6087,-8.6093,-8.5618,-8.6093,-8.6043,-8.5618,-8.6093,-8.6294,-8.6294,-8.6294,-8.6294,-8.6294,-8.6294,-8.6294,-8.5958,-8.311,-8.2889,-8.3837,0.0,0.0,0.0,0.0,0.0,0.0,0.0,0.0,0.0,0.0,0.0,0.0,0.0,0.0,0.0,0.0,0.0,0.0,-3.3733,-3.6633,-3.8432,-3.8689,-4.0781,-4.2433,-4.3478,-4.3515,-4.3515,-4.3515,-4.3515,-4.3515,-4.3515,-4.3515,-4.3339,-4.3069,-4.2395,-4.1359,-3.998,-3.8512,-3.7151,-3.5858,-3.4149,-3.3319,0.0,0.0,0.0,0.0,0.0,0.0,0.0,0.0,-3.2283,-3.3041,-3.3854,-3.4786,-3.5939,-3.7974,-3.9629,-4.1067,-4.2393,-4.5174,-4.8155,-5.0259,-5.07,-5.2674,-6.06,-6.2048,-6.2032,-6.3055,-6.5001,-6.6219,-6.5107,-6.9453,-7.2473,-7.0124,-7.24,-7.4691,-7.5367,-7.5734,-7.6114,-7.6538,-7.6581,-7.6789,-7.7203,-7.6629,-7.6726,-7.7827,-7.823,-7.8701,-7.9405,-7.9501,-7.9837,-8.0577,-8.0817,-8.1393,-8.2439,-8.3148,-8.4092,-8.519,-8.5708,-8.6087,-8.6294,-8.6294,-8.6294,-8.6294,-8.6294,-8.6294,-8.6294,-8.6294,-8.6294,-8.6244,-8.5856,-8.5754,-8.5463,-8.3054,-8.2577,-8.295,0.0,0.0,0.0,0.0,0.0,0.0,0.0,0.0,0.0,0.0,0.0,0.0,0.0,0.0,0.0,0.0,0.0,0.0,-3.3733,-3.6134,-3.786,-3.8652,-4.0251,-4.1882,-4.3478,-4.3515,-4.3515,-4.3515,-4.3515,-4.3515,-4.3515,-4.3515,-4.3515,-4.3497,-4.3069,-4.1995,-4.0456,-4.0016,-3.8487,-3.6292,-3.5171,-3.4215,-3.3389,0.0,0.0,0.0,0.0,0.0,0.0,0.0,-3.2283,-3.3041,-3.3854,-3.5111,-3.6594,-3.8146,-4.1802,-4.5553,-4.6464,-4.7133,-4.8781,-5.3808,-5.2523,-5.2398,-6.1426,-6.0718,-6.0257,-6.7689,-6.8211,-6.7623,-6.8698,-6.9064,-6.9339,-6.9914,-7.2465,-7.4356,-7.4203,-7.5621,-7.6331,-7.5435,-7.575,-7.6183,-7.6473,-7.596,-7.6014,-7.6826,-7.7813,-7.8366,-7.8366,-7.8572,-7.8716,-7.8797,-7.9515,-8.0364,-8.1325,-8.2114,-8.3346,-8.5141,-8.519,-8.557,-8.6294,-8.6294,-8.6294,-8.6294,-8.6294,-8.6294,-8.6294,-8.6294,-8.6294,-8.6194,-8.4961,-8.4505,-8.4204,-8.1803,-8.1349,-8.1848,0.0,0.0,0.0,0.0,0.0,0.0,0.0,0.0,0.0,0.0,0.0,0.0,0.0,0.0,0.0,0.0,0.0,0.0,-3.3697,-3.6134,-3.786,-3.8652,-4.0781,-4.2433,0.0,-4.3515,-4.3515,-4.3515,-4.3515,-4.3515,-4.3515,-4.3515,-4.3515,-4.3497,-4.3393,-4.2285,-4.051,-4.0348,-3.8921,-3.6616,-3.5272,-3.4383,-3.3786,0.0,0.0,0.0,0.0,0.0,0.0,0.0,0.0,0.0,-3.3854,-3.4766,-3.5939,-3.7974,-3.956,-4.0929,-4.2289,-4.7561,-5.2255,-5.0528,-5.5012,-6.029,-6.2107,-6.2167,-6.3501,-6.9392,-6.9595,-6.8532,-6.8183,-7.1197,-7.2429,-6.8569,-7.1763,-7.4506,-7.381,-7.4689,-7.547,-7.5565,-7.4943,-7.4675,-7.5111,-7.4551,-7.4458,-7.5236,-7.6076,-7.6767,-7.7343,-7.7392,-7.7774,-7.8511,-7.8749,-7.8914,-7.9111,-8.0622,-8.1326,-8.1255,-8.3722,-8.5371,-8.6294,-8.6294,-8.6294,-8.6294,-8.6294,-8.6294,-8.6294,-8.6294,-8.6294,-8.6244,-8.5907,-8.5754,-8.5463,-8.3054,-8.228,-8.2287,0.0,0.0,0.0,0.0,0.0,0.0,0.0,0.0,0.0,0.0,-2.8987,-2.8987,0.0,0.0,0.0,0.0,0.0,0.0,-3.3733,-3.5826,-3.7382,-3.8175,-3.9937,-4.1552,-4.2983,-4.3314,-4.3515,-4.3515,-4.3515,-4.3515,-4.3515,-4.3515,-4.3515,-4.3497,-4.3321,-4.2213,-4.051,-4.0311,-3.9027,-3.6991,-3.5361,-3.4541,-3.4156,0.0,0.0,0.0,0.0,0.0,0.0,0.0,0.0,0.0,-3.3751,-3.4594,-3.6008,-4.0112,-4.1319,-4.2309,-4.7026,-5.1424,-5.4745,-5.5018,-5.941,-6.3966,-6.5255,-6.6028,-6.745,-7.096,-7.1137,-7.0657,-7.0516,-7.2647,-7.3437,-7.0546,-7.2634,-7.4385,-7.3615,-7.44,-7.5093,-7.5263,-7.4502,-7.3998,-7.4179,-7.4018,-7.3984,-7.4153,-7.5134,-7.5912,-7.6386,-7.642,-7.6719,-7.7304,-7.7643,-7.7558,-7.706,-7.8792,-7.9321,-7.8714,-8.1391,-8.3182,-8.4137,-8.5583,-8.6294,-8.6294,-8.6294,-8.6294,-8.6294,-8.6294,-8.6294,-8.6294,-8.6294,-8.5669,-8.4664,-8.3221,-8.2091,-8.1171,0.0,0.0,0.0,0.0,0.0,0.0,0.0,0.0,0.0,-2.8987,-2.8987,-2.8987,0.0,0.0,0.0,-3.1176,-3.2045,-3.2852,-3.3733,-3.5275,-3.6574,-3.7456,-3.8322,-3.9827,-4.2029,-4.2947,-4.3404,-4.3404,-4.3478,-4.3515,-4.3515,-4.3515,-4.3515,-4.3497,-4.3105,-4.2068,-4.0564,-4.0127,-3.8989,-3.7396,-3.5578,-3.4778,-3.4422,-3.2605,0.0,0.0,0.0,0.0,0.0,0.0,0.0,0.0,-3.3593,-3.4579,-3.6353,-4.2881,-4.5018,-4.7202,-5.6043,-5.6787,-5.669,-6.3517,-6.4323,-6.47,-6.9575,-7.0939,-7.1397,-7.2271,-7.2707,-7.3267,-7.4204,-7.342,-7.3052,-7.4225,-7.4252,-7.406,-7.3671,-7.4616,-7.5116,-7.4674,-7.4264,-7.3923,-7.3421,-7.4052,-7.4221,-7.3544,-7.4864,-7.5709,-7.5709,-7.5709,-7.5709,-7.5709,-7.642,-7.6335,-7.5472,-7.6804,-7.7398,-7.715,-7.8602,-7.965,-8.0427,-8.4276,-8.6144,-8.6244,-8.6294,-8.6294,-8.6294,-8.6294,-8.6294,-8.6294,-8.6194,-8.4804,-8.283,-8.2605,-8.1133,-7.932,0.0,0.0,0.0,0.0,0.0,0.0,0.0,0.0,-2.8987,-2.8987,-2.8987,-2.8987,-2.8987,-2.8987,0.0,-3.0356,-3.1201,-3.2265,-3.3697,-3.4711,-3.5936,-3.7456,-3.8888,-3.9863,-4.0377,-4.1809,-4.2543,-4.2543,-4.3167,-4.3515,-4.3515,-4.3515,-4.3515,-4.3497,-4.3428,-4.2631,-4.1361,-4.0957,-3.9716,-3.7866,-3.6575,-3.5309,-3.411,-3.3045,-3.2283,0.0,0.0,0.0,0.0,0.0,0.0,0.0,-3.3593,-3.4234,-3.5097,-3.8939,-4.2181,-4.5269,-4.8633,-5.4287,-5.9419,-6.0161,-6.3205,-6.6889,-6.998,-7.069,-7.1008,-7.2371,-7.2676,-7.2788,-7.2892,-7.2959,-7.2966,-7.2892,-7.3617,-7.4264,-7.4335,-7.491,-7.515,-7.4674,-7.3822,-7.314,-7.2677,-7.3308,-7.3646,-7.351,-7.4864,-7.5709,-7.5709,-7.5709,-7.5709,-7.5709,-7.5879,-7.5699,-7.5116,-7.5499,-7.5296,-7.4531,-7.6645,-7.7504,-7.7382,-8.2068,-8.4822,-8.5992,-8.6194,-8.6294,-8.6294,-8.6294,-8.6294,-8.6194,-8.5256,-8.4558,-8.388,-8.1976,-8.0988,-8.036,0.0,0.0,0.0,0.0,0.0,0.0,0.0,0.0,-2.9427,-2.906,-2.8987,-2.8987,-2.8987,-2.8987,0.0,0.0,-3.1274,-3.2339,-3.3183,-3.4724,-3.6009,-3.6905,-3.8117,-3.8924,-3.9313,-4.0524,-4.1515,-4.2286,-4.2727,-4.3007,-4.3196,-4.3428,-4.341,-4.3196,-4.3196,-4.274,-4.1903,-4.1343,-4.0038,-3.827,-3.7158,-3.5881,-3.4545,-3.3766,-3.3248,-3.2923,-3.2923,0.0,0.0,0.0,0.0,0.0,0.0,0.0,-3.5062,-3.9928,-4.1447,-4.3222,-5.0875,-5.5043,-5.817,-6.2056,-6.5246,-6.8014,-7.0188,-7.0607,-7.1066,-7.3027,-7.2733,-7.2428,-7.332,-7.2825,-7.2496,-7.332,-7.3661,-7.416,-7.5012,-7.5018,-7.4873,-7.4627,-7.3503,-7.2666,-7.2394,-7.3071,-7.3477,-7.3477,-7.4864,-7.5709,-7.5709,-7.5709,-7.5709,-7.5709,-7.5161,-7.4788,-7.4518,-7.3775,-7.3192,-7.269,-7.4341,-7.5633,-7.6709,-8.0728,-8.2965,-8.377,-8.4505,-8.4792,-8.4792,-8.4792,-8.4792,-8.4776,-8.402,-8.343,-8.2754,-8.1414,-8.0509,-7.9966,0.0,0.0,0.0,0.0,0.0,0.0,0.0,0.0,0.0,-2.9097,-2.8987,-2.8987,-2.8987,-2.8987,-2.928,0.0,0.0,0.0,-3.2583,-3.4798,-3.6009,-3.5862,-3.6648,-3.7367,-3.8065,-3.9129,-4.0308,-4.1579,-4.1835,-4.2193,-4.2589,-4.3195,-4.3232,-4.2787,-4.2939,-4.2687,-4.2104,-4.1461,-4.0308,-3.8757,-3.7639,-3.6457,-3.5318,-3.4559,-3.4234,-3.4096,-3.4096,-3.3662,-3.3076,-3.2938,0.0,0.0,0.0,0.0,-3.5304,-4.1343,-4.1447,-4.2175,-5.3992,-5.6039,-5.6811,-6.543,-6.7696,-6.8364,-7.0124,-7.0401,-7.0964,-7.3341,-7.2662,-7.2157,-7.4065,-7.2732,-7.1954,-7.3916,-7.3815,-7.395,-7.5303,-7.4999,-7.4559,-7.4424,-7.3206,-7.236,-7.2225,-7.2969,-7.3477,-7.3477,-7.4864,-7.5709,-7.5709,-7.5709,-7.5709,-7.5709,-7.4588,-7.3988,-7.3988,-7.2302,-7.1396,-7.1427,-7.2266,-7.3911,-7.6326,-7.9013,-8.0668,-8.1417,-8.2461,-8.3006,-8.3191,-8.2955,-8.2904,-8.2871,-8.2449,-8.168,-8.0763,-8.0518,-7.9811,-7.9037,0.0,0.0,0.0,0.0,0.0,0.0,0.0,0.0,0.0,0.0,-2.8987,-2.8987,-2.8987,-2.8987,-2.9023,-2.9133,-3.0613,-3.1861,-3.2546,0.0,0.0,-3.4174,-3.4894,-3.5371,-3.5481,-3.7719,-3.8805,-3.864,-4.0072,-4.0944,-4.1355,-4.2814,-4.3087,-4.2338,-4.3087,-4.2736,-4.1591,-4.1544,-4.076,-3.9475,-3.8391,-3.7254,-3.6077,-3.5318,-3.4683,-3.4096,-3.4096,-3.4027,-3.3835,-3.3145,-3.2835,0.0,0.0,0.0,-3.4683,-3.7581,-4.086,-4.4155,-4.6829,-5.3171,-6.0379,-6.5979,-6.7204,-6.7536,-6.9327,-6.9522,-6.9906,-7.2124,-7.2044,-7.1987,-7.3388,-7.236,-7.1616,-7.2529,-7.3138,-7.3781,-7.4627,-7.4661,-7.4356,-7.3713,-7.2902,-7.2157,-7.1515,-7.2699,-7.3477,-7.3477,-7.4864,-7.5709,-7.5709,-7.5709,-7.5709,-7.5709,-7.4588,-7.3988,-7.3988,-7.182,-7.0726,-7.0757,-7.1055,-7.2028,-7.3602,-7.4996,-7.7666,-8.1096,-8.147,-8.222,-8.3141,-8.2083,-8.1629,-8.1484,-7.9928,-7.9225,-7.9056,-7.8596,-7.8564,-7.8628,0.0,0.0,0.0,0.0,0.0,0.0,0.0,0.0,0.0,0.0,0.0,-2.8987,-2.8987,-2.8987,-2.8987,-2.8987,-3.0467,-3.2118,-3.383,-3.4197,-3.438,-3.4454,-3.438,-3.4527,-3.5004,-3.6331,-3.7378,-3.8101,-3.9278,-3.9912,-4.0131,-4.1288,-4.194,-4.2236,-4.2901,-4.2693,-4.1909,-4.1924,-4.1227,-4.0057,-3.9588,-4.0175,-4.1078,-3.8215,-3.8491,-4.0112,-3.7525,-3.6077,-3.5283,-3.4904,-3.4249,-3.3628,-3.3992,0.0,0.0,0.0,-3.8582,-4.1736,-4.7525,-5.4595,-6.1461,-6.5853,-6.7211,-6.7837,-6.9567,-6.9802,-7.0174,-7.2072,-7.221,-7.2161,-7.2756,-7.2022,-7.1548,-7.2293,-7.2665,-7.3274,-7.4458,-7.4255,-7.3849,-7.351,-7.2834,-7.2124,-7.1379,-7.2259,-7.3037,-7.3443,-7.4492,-7.527,-7.5676,-7.5709,-7.5709,-7.5709,-7.3955,-7.3342,-7.3988,-7.1099,-7.0015,-7.0793,-7.0853,-7.1629,-7.3045,-7.3539,-7.5178,-7.7609,-7.9056,-8.0034,-8.0487,-7.9928,-7.9735,-7.9534,-7.7984,-7.7645,-7.791,-7.7591,-7.7838,-7.831,0.0,0.0,0.0,0.0,0.0,0.0,0.0,0.0,0.0,0.0,0.0,-2.961,-2.961,0.0,0.0,0.0,-3.0907,-3.2559,-3.4564,-3.4137,-3.399,-3.438,-3.4014,-3.395,-3.427,-3.5021,-3.5977,-3.7216,-3.8024,-3.8595,-3.9033,-3.9613,-4.0444,-4.1502,-4.2158,-4.2131,-4.1563,-4.1881,-4.1421,-4.0622,-4.1578,-4.3468,-4.5432,-4.3009,-4.4182,-4.6535,-4.1974,-3.9595,-3.8387,-3.6835,-3.5559,-3.4628,-3.4441,-3.4766,0.0,0.0,0.0,-3.934,-4.7865,-5.3599,-5.8472,-6.3693,-6.5544,-6.6652,-6.9192,-6.9733,-7.0168,-7.169,-7.1969,-7.196,-7.2124,-7.1684,-7.1481,-7.2022,-7.2293,-7.28,-7.3883,-7.3713,-7.3409,-7.324,-7.2732,-7.2191,-7.165,-7.209,-7.2766,-7.3713,-7.4289,-7.4931,-7.5676,-7.5709,-7.5709,-7.5709,-7.3464,-7.2842,-7.3988,-7.1037,-7.0016,-7.089,-7.1075,-7.1813,-7.2983,-7.2983,-7.3477,-7.4445,-7.6589,-7.7839,-7.8358,-7.773,-7.7676,-7.7796,-7.63,-7.604,-7.6486,-7.665,-7.7145,-7.7707,0.0,0.0,0.0,0.0,0.0,0.0,0.0,0.0,0.0,0.0,0.0,-3.1286,-3.1286,-3.1286,-3.1286,-3.1286,-3.2045,-3.2913,-3.3807,-3.3807,-3.3476,-3.2766,-3.344,0.0,-3.2248,-3.377,-3.4618,-3.4776,-3.5606,-3.6732,-3.8154,-3.8229,-3.8667,-3.9511,-4.0669,-4.07,-3.9916,-4.1041,-4.1288,-4.1194,-4.4794,-4.6355,-4.6906,-5.0252,-5.1636,-5.1257,-4.6672,-4.4983,-4.4053,-3.8249,-3.6249,-3.6042,-3.5352,-3.5145,-3.5352,0.0,0.0,0.0,-4.447,-4.6733,-4.9532,-5.8253,-6.0834,-6.2441,-6.7384,-6.8579,-6.9001,-7.0168,-7.0675,-7.0958,-7.13,-7.1345,-7.1312,-7.1379,-7.1954,-7.2428,-7.2496,-7.3071,-7.324,-7.2529,-7.2428,-7.2394,-7.236,-7.2394,-7.3003,-7.4458,-7.4593,-7.4931,-7.5676,-7.5709,-7.5709,-7.5709,-7.3464,-7.2842,-7.3988,-7.2343,-7.1299,-7.0921,-7.1598,-7.2275,-7.2983,-7.2983,-7.3045,-7.3139,-7.4445,-7.6306,-7.8217,-7.5906,-7.565,-7.6516,-7.4745,-7.4125,-7.431,-7.5602,-7.6289,-7.6639,0.0,0.0,0.0,0.0,0.0,0.0,0.0,0.0,0.0,0.0,0.0,0.0,0.0,-3.1397,-3.1397,-3.1397,-3.2155,-3.2949,-3.3733,-3.333,-3.2913,-3.2619,-3.2218,-3.2033,-3.2075,-3.2751,-3.3315,-3.3844,-3.4671,-3.5225,-3.5531,-3.6276,-3.6641,-3.6803,-3.9782,-4.0567,-3.9779,-4.0996,-4.1277,-4.1274,-4.5596,-4.9079,-5.1528,-4.9913,-5.2977,-5.7081,-4.9705,-4.6704,-4.5837,-4.3815,-4.0747,-3.7629,-3.6904,-3.6684,-3.665,-3.6353,-3.6827,-3.8481,-4.3479,-4.5596,-4.7933,-5.4312,-5.829,-6.1229,-6.3577,-6.6527,-6.8885,-6.9323,-6.9928,-7.0388,-7.0565,-7.0973,-7.1312,-7.1312,-7.1548,-7.1853,-7.2326,-7.2225,-7.1988,-7.1751,-7.1684,-7.1684,-7.1684,-7.1684,-7.2326,-7.3781,-7.3443,-7.351,-7.4221,-7.4728,-7.4999,-7.4999,-7.3233,-7.1778,-7.0767,-7.0908,-7.073,-7.0244,-7.0521,-7.1229,-7.2337,-7.2337,-7.2583,-7.3045,-7.3447,-7.4564,-7.6021,-7.5183,-7.5066,-7.5332,-7.388,-7.3599,-7.4091,-7.5015,-7.5695,-7.6286,0.0,0.0,0.0,0.0,0.0,0.0,0.0,0.0,-3.1788,-3.1788,0.0,0.0,0.0,0.0,-3.2205,-3.2205,-3.2706,-3.322,-3.377,-3.306,-3.2472,-3.2228,-3.1524,-3.1143,-3.1174,-3.1762,-3.2335,-3.2859,-3.3698,-3.409,-3.413,-3.4874,-3.5218,-3.5324,-3.8219,-3.9413,-3.941,-4.0456,-4.0897,-4.1447,-4.7527,-5.0907,-5.2252,-5.2563,-5.546,-5.8598,-5.2493,-4.9866,-4.9296,-4.9,-4.643,-4.2999,-4.0885,-3.895,-3.7275,-3.644,-3.6513,-3.7659,-4.1316,-4.2851,-4.4734,-5.0154,-5.3701,-5.6918,-6.0809,-6.4014,-6.6695,-6.8601,-6.931,-6.9636,-6.9819,-7.0432,-7.1007,-7.1278,-7.1312,-7.1481,-7.1954,-7.1819,-7.1582,-7.1345,-7.1548,-7.1785,-7.2022,-7.1616,-7.2022,-7.3747,-7.2969,-7.2732,-7.3443,-7.4221,-7.4506,-7.4407,-7.3773,-7.2154,-6.9468,-7.082,-7.0973,-6.9905,-7.012,-7.0859,-7.1967,-7.1967,-7.2337,-7.2983,-7.2983,-7.3661,-7.4771,-7.4385,-7.4445,-7.4652,-7.3477,-7.326,-7.3753,-7.4399,-7.4953,-7.5476,0.0,0.0,0.0,0.0,0.0,0.0,0.0,0.0,-3.2729,-3.2729,0.0,0.0,0.0,0.0,0.0,-3.388,-3.3844,-3.3844,-3.3844,-3.3073,-3.2252,-3.1421,-3.1372,-3.0678,-2.9319,-3.0736,-3.1574,-3.1765,-3.249,-3.3248,-3.4027,-3.4061,-3.4456,-3.518,-3.5973,-3.7146,-3.8629,-3.9388,-4.0146,-4.1688,-5.0804,-5.1839,-4.8947,-5.8702,-5.9737,-5.5906,-5.5265,-5.4946,-5.4665,-5.345,-5.2776,-5.1667,-4.7012,-4.176,-3.7178,-3.628,-3.6031,-3.6339,0.0,0.0,0.0,-4.5542,-4.6946,-4.9328,-5.9078,0.0,-6.2367,-6.7832,-6.8754,-6.8717,-6.903,-6.9654,-7.0364,-7.1142,-7.1312,-7.1312,-7.1312,-7.1921,-7.209,-7.1379,-7.1921,-7.2665,-7.3341,-7.2157,-7.2225,-7.439,-7.3206,-7.2665,-7.3375,-7.4153,-7.4388,-7.3972,-7.5064,-7.4005,-7.0655,-7.2343,-7.2086,-6.9874,-7.0521,-7.1229,-7.1937,-7.1937,-7.2337,-7.2983,-7.2983,-7.3661,-7.4684,-7.3477,-7.3722,-7.4593,-7.3447,-7.2983,-7.3076,-7.3753,-7.3999,-7.4184,0.0,0.0,0.0,0.0,0.0,-3.2913,-3.3867,-3.4724,-3.5495,0.0,0.0,0.0,-3.6538,-3.5936,-3.5605,-3.5605,-3.5018,-3.4674,-3.4674,-3.3353,-3.2138,-3.1164,-3.0333,-2.9597,-2.8946,-2.9171,-2.9865,-3.1007,-3.1214,-3.1696,-3.2455,-3.2972,-3.3628,-3.4456,-3.5732,-3.7146,-3.8629,-3.9388,-4.0146,-4.1654,-5.0252,-5.3287,-5.3218,-5.8906,-6.2643,-6.4445,-6.129,-5.8226,-5.6015,-5.8107,-5.2648,-4.4542,-4.2141,-3.9928,-3.8045,-3.7178,-3.6884,-3.6876,-3.7195,0.0,0.0,0.0,0.0,0.0,-5.0484,0.0,-6.1654,-6.2726,-6.5818,-6.8506,-6.8987,-6.8774,-6.8977,-7.0297,-7.0973,-7.1312,-7.1312,-7.1481,-7.1345,-7.0601,-7.1176,-7.1684,-7.1887,-7.1548,-7.1785,0.0,-7.2157,-7.1684,-7.1921,-7.3105,-7.3615,-7.321,-7.4024,-7.3206,-7.0599,-7.1124,-7.0633,-6.9166,-6.9351,-7.0059,-7.1198,-7.1198,-7.1844,-7.2983,-7.2983,-7.32,-7.3477,-7.3169,-7.32,-7.3477,-7.3139,-7.2983,-7.3076,-7.3753,-7.3999,-7.4122,0.0,0.0,-3.306,-3.3537,-3.3903,-3.4468,-3.5408,-3.6266,-3.7088,0.0,0.0,0.0,-3.8028,-3.7272,-3.6795,-3.6795,-3.6046,-3.5371,-3.5041,-3.3793,-3.2677,-3.1727,-3.0391,-2.948,-2.9036,-2.8875,-2.9252,-3.0213,-3.0524,-3.1076,-3.18,-3.2248,-3.3041,-3.4165,-3.5318,-3.687,-3.8629,-3.9388,-4.0146,-4.1654,-5.0355,-5.2977,-5.2356,-5.8973,-6.2195,-6.3098,-6.2437,-6.0864,-5.9615,-6.2957,-5.6675,-4.7218,-4.5979,-4.2565,-3.8814,-3.7934,-3.7376,-3.7092,-3.7284,-3.7597,-3.8091,-3.8802,0.0,0.0,-4.9108,-5.4022,-5.8815,-6.2604,-6.5413,-6.7387,-6.7996,-6.7996,-6.8301,-6.9553,-7.0094,-7.05,-7.0804,-7.0838,-7.0804,-7.0669,-7.077,-7.1075,-7.1718,-7.1481,-7.1616,-7.2326,-7.1718,-7.1447,-7.1751,-7.2868,-7.3501,-7.3584,-7.3841,-7.3102,-7.1342,-7.0822,-7.001,-6.8889,-6.8889,-6.9597,-7.089,-7.089,-7.166,-7.2983,-7.2983,-7.2983,-7.2983,-7.2983,-7.2983,-7.2983,-7.2983,-7.2983,-7.3045,-7.3414,-7.3568,-7.366,0.0,0.0,-3.4894,-3.4968,-3.5628,-3.6229,-3.6413,-3.7199,-3.808,0.0,-3.9056,-3.9093,-3.9093,-3.8358,-3.7881,-3.7836,-3.7088,-3.6216,-3.533,-3.4526,-3.3611,-3.262,-3.1195,-3.0051,-2.9226,-2.9183,-2.9253,-2.9386,-3.0179,-3.0938,-3.1662,-3.1765,-3.2628,-3.413,-3.4938,-3.6525,-3.8629,-3.9491,-4.0526,-4.2378,-5.0493,-5.1666,-4.9654,-5.918,-6.0634,-5.7992,-6.1876,-6.3447,-6.4008,-6.625,-6.2048,-5.5567,-5.3739,-4.7677,-4.082,-3.8832,-3.8114,-3.7921,-3.7902,-3.7956,-3.8193,-3.8836,-3.9571,0.0,-5.0632,-5.2185,-5.4364,-6.3329,-6.4794,-6.4647,-6.5324,-6.5967,-6.6677,-6.7489,-6.803,-6.8774,-7.0026,-7.0128,-7.0331,-7.1109,-7.0534,-7.0669,-7.2124,-7.1616,-7.1481,-7.2225,-7.1751,-7.1751,-7.2496,-7.3138,-7.3849,-7.4593,-7.4221,-7.3478,-7.2443,-7.1305,-7.0135,-6.9012,-6.892,-6.9597,-7.089,-7.089,-7.166,-7.2983,-7.2983,-7.2983,-7.2983,-7.2983,-7.2983,-7.2983,-7.2983,-7.2983,-7.2983,-7.2983,-7.2983,-7.3076,-3.2766,-3.3476,-3.4247,-3.4894,-3.5151,-3.5701,-3.7052,-3.8521,-3.9717,-4.0508,-4.1222,-4.1589,-4.1589,-4.0891,-4.0248,-3.9872,-3.9111,-3.8161,-3.7005,-3.6199,-3.4739,-3.2462,-3.2039,-3.0853,-2.8631,-2.858,-2.8585,-2.8627,-2.9386,-3.0144,-3.0921,-3.1524,-3.2628,-3.4165,-3.549,-3.7008,-3.8698,-4.0101,-4.2871,-4.6527,-4.8321,-5.1134,-5.4918,-6.0806,-6.4844,-6.7605,-6.9264,-6.7862,-6.4638,-6.0827,-6.0093,-5.9464,-5.1587,-5.0098,-4.9618,-4.1513,-4.1302,-4.2826,-3.8957,-3.8328,-3.8802,-3.8937,-3.9571,0.0,-4.2419,-4.5896,-4.9154,0.0,-5.3991,-5.6799,-5.6934,-5.7103,-5.7442,-5.822,-6.1366,-6.5222,-6.9586,-6.9688,-6.9586,-7.0331,-6.9755,-6.9891,-7.1379,-7.0838,-7.0737,-7.1481,-7.1921,-7.2496,-7.324,-7.3409,-7.3849,-7.4593,-7.4221,-7.3708,-7.3102,-7.2038,-7.0913,-6.969,-6.9135,-6.9597,-7.089,-7.089,-7.166,-7.2983,-7.2983,-7.2983,-7.2983,-7.2983,-7.2983,-7.2983,-7.2983,-7.2983,-7.2983,-7.2983,-7.2983,-7.3014,-3.3109,-3.3513,-3.4064,-3.4857,-3.5371,-3.634,-3.8374,-3.9717,-4.0928,-4.2139,-4.2653,-4.2805,-4.2612,-4.1848,-4.1179,-4.0739,-3.9964,-3.9064,-3.8054,-3.7271,-3.6025,-3.4323,-3.3121,-3.1806,-3.0402,-2.9201,-2.8895,-2.9558,-2.9523,-3.011,-3.1248,-3.1627,-3.4007,-3.7996,-3.6801,-3.8629,-4.2526,-4.1378,-4.2654,-4.5795,-4.9677,-5.4506,-5.9872,-6.4774,-6.8374,-7.0899,-7.1476,-7.0426,-6.8318,-6.5899,-6.2959,0.0,-5.6648,-5.4077,-5.1008,0.0,-4.469,-4.4818,-3.987,-3.8783,-3.9005,-3.9005,-3.9571,0.0,0.0,-4.5196,-4.7462,-4.9695,-5.1894,-5.3585,-5.3991,-5.4059,-5.4296,-5.504,-5.8592,-6.1637,-6.2821,-6.6508,-6.9383,-7.0094,-6.9857,-6.9925,-7.0669,-7.0737,-7.0906,-7.1278,-7.1988,-7.2563,-7.2935,-7.3646,-7.439,-7.5134,-7.4755,-7.4333,-7.3901,-7.2771,-7.1861,-7.1253,-7.0325,-7.0756,-7.2314,-7.1717,-7.1998,-7.2983,-7.2983,-7.2983,-7.2983,-7.2983,-7.2983,-7.2983,-7.2983,-7.2983,-7.2983,-7.2983,-7.2983,-7.2983,-3.372,-3.3917,-3.4284,-3.5114,-3.6083,-3.7477,-3.9585,-4.0708,-4.1919,-4.3497,-4.4233,-4.4565,-4.447,-4.4433,-4.4208,-4.3775,-4.314,-4.2036,-4.0277,-3.953,-3.8741,-3.7787,-3.496,-3.3512,-3.37,-3.0868,-2.9723,-3.0455,-2.9972,-3.0386,-3.1593,-3.1869,-3.5042,-4.0411,-3.8629,-4.0526,-4.4941,-4.3147,-4.3611,-4.6012,0.0,-5.7615,-6.1571,-6.652,-6.9462,-7.1074,-7.2002,-7.236,-7.2325,-7.197,-6.6808,-6.0626,-6.1285,-5.7666,0.0,0.0,0.0,0.0,0.0,-3.9383,-3.9208,-3.9208,-3.9673,-4.106,0.0,0.0,0.0,0.0,0.0,0.0,0.0,0.0,0.0,-5.1725,0.0,0.0,0.0,-6.1197,0.0,-6.7489,-6.8876,-6.9519,-6.8944,-6.9722,-7.0601,-7.1447,-7.1548,-7.1921,-7.2766,-7.3815,-7.4864,-7.5912,-7.5622,-7.5322,-7.506,-7.4092,-7.3473,-7.3245,-7.1905,-7.2158,-7.3759,-7.2514,-7.2337,-7.2983,-7.2983,-7.2983,-7.2983,-7.2983,-7.2983,-7.2983,-7.2983,-7.2983,-7.2983,-7.2983,-7.2983,-7.2983,-3.4037,-3.438,-3.5151,-3.6009,-3.7404,-3.8762,-3.9753,-4.1185,-4.2727,-4.4324,-4.6851,-4.8879,-4.9946,-5.2625,-5.4165,-5.3727,-5.3573,-5.1324,-4.6135,-4.5617,-4.4906,-4.345,-3.8555,-3.6838,-3.88,-3.3997,-3.087,-2.9627,-3.0248,-3.0627,-3.0852,-3.2145,-3.3559,-3.5235,-4.0894,-4.1964,-3.9871,-4.5527,-5.0063,0.0,-5.6137,-5.6175,0.0,-6.007,-6.4986,-6.9817,-7.3444,-7.4712,-7.408,0.0,-6.8166,-6.6168,0.0,-5.8758,-6.1084,-4.794,0.0,0.0,0.0,0.0,0.0,0.0,-4.0045,-4.0248,0.0,0.0,-4.0891,-4.15,0.0,0.0,0.0,0.0,0.0,0.0,0.0,0.0,0.0,0.0,0.0,0.0,0.0,-6.7117,-6.4512,-6.5527,-6.7996,-7.1988,-6.9891,-7.0161,-7.4153,-7.3883,-7.4593,-7.669,-7.6729,-7.6776,-7.6994,-7.6921,-7.6299,-7.5256,-7.3397,-7.2975,-7.3759,-7.2514,-7.2337,-7.2983,-7.2983,-7.2983,-7.2983,-7.2983,-7.2983,-7.2983,-7.2983,-7.2983,-7.2983,-7.2983,-7.2983,-7.2983,-3.5371,-3.5453,-3.5915,-3.6853,-3.7955,-3.9051,-4.0045,-4.1994,-4.3561,-4.4197,-4.5794,-4.6809,-4.6816,-4.8083,-4.9636,-5.1373,-5.1246,-5.0004,-4.7438,-4.6535,-4.4743,-4.1757,-3.8629,-3.7215,-3.7732,-3.4697,-3.2593,-3.1489,-3.1386,-3.1558,-3.1972,-3.2593,-3.5456,-4.0135,-4.3034,-4.5675,-4.8176,-5.0937,-5.2408,0.0,0.0,-5.6826,0.0,-6.4637,-6.9507,-7.2177,-7.383,-7.4466,-7.415,0.0,-6.8726,0.0,0.0,0.0,0.0,-5.3386,0.0,0.0,0.0,0.0,0.0,0.0,0.0,0.0,-4.0688,0.0,-4.0113,0.0,0.0,0.0,0.0,0.0,0.0,0.0,-4.4147,0.0,0.0,0.0,0.0,0.0,0.0,0.0,0.0,0.0,-7.1109,-7.1718,-7.2191,-7.2868,-7.3916,-7.4086,-7.4999,-7.6826,-7.7299,-7.748,-7.7285,-7.7715,-7.7379,-7.6168,-7.4652,-7.4102,-7.436,-7.3104,-7.2706,-7.2983,-7.2983,-7.2983,-7.2983,-7.2983,-7.2983,-7.2983,-7.2983,-7.2983,-7.2983,-7.2983,-7.2983,-7.2983,-3.6853,-3.667,-3.6758,-3.7661,-3.8689,-3.9808,-4.1162,-4.2804,-4.4097,-4.4689,-4.596,-4.6864,-4.6849,-4.8496,-5.0616,-5.3218,-5.3749,-5.3301,-5.1864,-4.9738,-4.7736,-4.5996,-4.1116,-3.9225,-4.092,-3.6859,-3.4318,-3.3524,-3.28,-3.2697,-3.3214,-3.3455,-3.6594,-4.2206,-4.3862,-4.7541,-5.2636,-5.424,-5.4752,-5.4904,-5.8523,-6.0497,-6.2125,-6.9453,-7.2937,-7.3931,-7.4176,-7.4172,-7.3952,-7.2827,-6.8844,-6.4991,-6.8245,-6.4807,-5.9388,0.0,0.0,0.0,-4.7427,0.0,0.0,0.0,0.0,0.0,0.0,0.0,0.0,0.0,0.0,0.0,0.0,0.0,0.0,0.0,0.0,-4.3335,0.0,0.0,0.0,0.0,0.0,0.0,0.0,0.0,0.0,0.0,0.0,-7.368,-7.3206,-7.3883,-7.4999,-7.6521,-7.7502,-7.7933,-7.7789,-7.8522,-7.8304,-7.7069,-7.588,-7.5125,-7.4771,-7.3539,-7.2983,-7.2983,-7.2983,-7.2983,-7.2983,-7.2983,-7.2983,-7.2983,-7.2983,-7.2983,-7.2983,-7.2983,-7.2983,-7.2983,-3.8312,-3.7863,-3.7713,-3.8505,-3.9958,-4.1657,-4.3589,-4.3571,-4.4157,-4.6417,-4.923,-5.1937,-5.4397,-6.0354,-6.4475,-6.5102,-6.7533,-6.7011,-6.2328,-5.8032,-5.7488,-6.1501,-4.824,-4.4525,-5.2568,-4.1893,-3.587,-3.5111,-3.4407,-3.4061,-3.4096,-3.4766,-3.5628,-3.6801,-4.2708,-4.5914,-4.7279,-5.3294,-5.8513,-6.2892,-6.4494,-6.8218,-7.2632,0.0,-7.2046,-7.3802,-7.4496,0.0,0.0,-6.9901,-6.8561,-6.7721,-6.3251,0.0,0.0,0.0,0.0,0.0,0.0,-4.9999,-4.8071,-4.4254,-4.2895,0.0,0.0,0.0,-4.0967,0.0,0.0,0.0,0.0,0.0,0.0,-3.8091,0.0,0.0,0.0,0.0,0.0,0.0,0.0,0.0,0.0,0.0,0.0,0.0,0.0,0.0,-7.2326,-7.3105,-7.4187,-7.5676,-7.7198,-7.8348,-7.9042,-7.9786,-7.9528,-7.8358,-7.7125,-7.5938,-7.4771,-7.3539,-7.2983,-7.2983,-7.2983,-7.2983,-7.2983,-7.2983,-7.2983,-7.2983,-7.2983,-7.2983,-7.2983,-7.2983,-7.2983,-7.2983,-3.7739,-3.7918,-3.8311,-3.8879,-3.9873,-4.1234,-4.3227,-4.387,-4.5601,-4.9661,-5.227,-5.5039,-5.8341,-6.124,-6.3764,-6.5807,-6.6891,-6.6089,-6.271,-5.887,-5.6864,-5.7155,-4.7207,-4.3919,-4.8769,-4.2085,-3.7939,-3.6719,-3.5939,-3.5559,-3.5559,-3.5801,-3.6594,-3.8077,-4.3699,-4.8377,-5.2394,0.0,0.0,0.0,0.0,-6.8284,-7.0089,0.0,-7.3118,-7.3727,-7.3775,-7.3961,-7.3907,-7.2185,-7.0387,-6.8877,-6.9049,-6.7015,-6.4401,-6.3849,-6.2649,-6.071,-5.7309,-5.7476,-5.7002,-5.0238,-4.9898,-4.9695,0.0,0.0,0.0,0.0,0.0,0.0,0.0,0.0,0.0,0.0,0.0,0.0,0.0,0.0,0.0,0.0,0.0,0.0,0.0,0.0,0.0,0.0,0.0,0.0,0.0,-7.3341,-7.395,-7.4931,-7.6454,-7.7638,-7.8348,-7.9092,-7.911,-7.8411,-7.718,-7.6621,-7.667,-7.5466,-7.5146,-7.5584,-7.5114,-7.4468,-7.363,-7.3168,-7.2983,-7.2983,-7.2983,-7.2983,-7.2983,-7.2983,-7.2983,-7.2983,-3.8054,-3.8314,-3.8825,-3.917,-4.0336,-4.1721,-4.3164,-4.4503,-4.7163,-5.2251,-5.4555,-5.7177,-6.1198,-6.3176,-6.4873,-6.6585,-6.77,-6.7178,-6.4568,-6.1586,-5.9615,-5.8965,-5.1437,-4.8785,-5.1961,-4.5554,-4.1609,-4.0435,-3.7948,-3.687,-3.7111,-3.6835,-3.7525,-3.9146,-4.2595,-4.8093,-5.4925,-5.8696,-6.2922,0.0,0.0,-6.9825,0.0,0.0,-7.2913,-7.211,0.0,-7.3577,-7.3697,-7.3415,-7.181,-7.0286,-7.2091,-6.9577,-6.6208,-6.7581,-6.6125,-6.37,-6.1873,-6.2618,-6.2313,-5.5614,-5.5243,-5.4668,-4.7736,0.0,-4.4254,0.0,0.0,0.0,0.0,0.0,0.0,0.0,0.0,0.0,0.0,0.0,0.0,0.0,0.0,0.0,0.0,0.0,0.0,0.0,0.0,0.0,0.0,0.0,-7.3713,-7.4187,-7.5676,-7.6961,-7.7976,-7.872,-7.8875,-7.8411,-7.7621,-7.7427,-7.7657,-7.6907,-7.6673,-7.6886,-7.619,-7.521,-7.3937,-7.326,-7.2983,-7.2983,-7.2983,-7.2983,-7.2983,-7.2983,-7.2983,-7.2983,-3.9119,-3.907,-3.9189,-3.9529,-4.1407,-4.3027,-4.3488,-4.5552,-4.897,-5.4384,-5.6421,-5.9132,-6.3633,-6.6971,-6.8675,-6.8245,-7.0556,-7.0872,-6.8213,-6.6179,-6.5688,-6.7124,-6.0543,-5.8435,-6.184,-5.1898,-4.6366,-4.5788,-4.0274,-3.7996,-3.8629,-3.7961,-3.8353,-3.9698,-3.9733,-4.5285,-5.4629,-5.58,-6.1953,-7.0926,-7.2416,-7.2901,-7.2838,-7.3183,-7.1494,-6.9307,-7.2569,-7.3566,-7.3328,-7.3363,-7.2816,-7.2131,-7.2097,-7.1746,-7.1345,-7.1312,-7.1312,-7.0534,-6.6948,-6.5459,-6.4038,-6.0283,-5.8795,-5.707,-5.2604,-5.098,-5.0173,0.0,0.0,0.0,0.0,0.0,0.0,0.0,0.0,0.0,0.0,0.0,0.0,0.0,0.0,0.0,0.0,0.0,0.0,0.0,0.0,0.0,0.0,0.0,-7.3308,-7.3544,-7.4897,-7.6386,-7.7976,-7.8686,-7.8892,-7.8465,-7.8411,-7.8234,-7.7918,-7.7836,-7.7531,-7.7041,-7.6285,-7.5272,-7.3999,-7.3322,-7.3014,-7.2983,-7.2983,-7.2983,-7.2983,-7.2983,-7.2983,-7.2983,-3.8425,-3.8651,-3.9416,-4.068,-4.1561,-4.2362,-4.3182,-4.7984,-5.3336,-5.8295,-6.3623,-6.8559,-7.2771,-7.4526,-7.5012,-7.4196,-7.4786,-7.4135,-7.1633,-6.8341,-6.7401,-6.9439,-6.1502,-5.8694,-6.2301,-5.2691,-4.7484,-4.7168,-4.1792,-3.9215,-3.9388,-3.9215,-3.9319,-3.9733,-4.0342,-4.6079,-5.5391,-5.6314,-6.2675,-7.2244,-7.2749,-7.1654,-6.9966,0.0,-7.208,-7.0298,-7.3252,-7.421,-7.4156,-7.4418,-7.4326,-7.4041,-7.3283,-7.2849,-7.2482,-7.1726,-7.1412,-7.1109,-7.0128,-6.9722,-6.8673,-6.4918,-6.3429,-6.1839,-5.7915,-5.6021,-5.504,0.0,0.0,0.0,0.0,0.0,0.0,0.0,0.0,0.0,0.0,0.0,0.0,0.0,0.0,0.0,0.0,0.0,0.0,0.0,0.0,0.0,0.0,0.0,0.0,-7.4221,-7.4695,-7.5879,-7.7976,-7.8179,-7.874,-7.9734,-7.8869,-7.9395,-8.1143,-7.929,-7.894,-7.9681,-7.8075,-7.6369,-7.4676,-7.403,-7.3445,-7.2983,-7.2983,-7.2983,-7.2983,-7.2983,-7.2983,-7.2983,-3.9093,-3.9445,-4.0502,-4.2202,-4.4621,-4.6387,-4.6589,-4.9639,-5.4215,-6.0676,-6.6126,-7.0697,-7.4167,-7.6755,-7.7847,-7.6876,-7.6201,-7.4803,-7.2271,-7.0469,-6.9377,-6.9095,-6.5422,-6.4029,-6.532,-5.8207,0.0,-5.0783,-4.5451,-4.1968,-4.0215,-3.9824,-3.9778,-4.0156,-4.0899,-4.5635,-5.3401,-5.8565,-6.4675,-7.0972,-7.2409,-7.2047,0.0,-7.3257,-7.3303,-7.238,-7.4628,-7.5248,-7.4956,-7.5161,-7.4912,-7.4493,-7.3949,-7.3546,-7.3175,-7.2632,-7.2113,-7.1785,-7.1785,-7.1548,-7.0804,-6.8673,-6.7827,-6.6542,-6.2787,-6.1028,-6.0178,-6.0102,-5.8011,-5.6594,0.0,0.0,0.0,0.0,0.0,0.0,0.0,0.0,0.0,0.0,0.0,0.0,0.0,0.0,0.0,0.0,0.0,0.0,0.0,0.0,0.0,-7.209,-7.3443,-7.5371,-7.7942,-7.7976,-7.872,-8.0209,-7.9528,-8.0301,-8.2356,-8.0399,-7.9993,-8.0674,-7.8448,-7.6526,-7.4922,-7.3968,-7.3322,-7.2983,-7.2983,-7.2983,-7.2983,-7.2983,-7.2983,-7.2983,-4.062,-4.0967,-4.2027,-4.3712,-4.8668,-5.2431,-5.2552,-5.2854,-5.5651,-6.2959,-6.7114,-7.0194,-7.2391,-7.6191,-7.8207,-7.7319,-7.5909,-7.4167,-7.1835,-7.238,-7.1324,-6.8256,-7.0228,-7.0787,-6.938,-6.5082,-6.0254,0.0,-4.9825,-4.5139,-4.1099,-4.0291,-4.0288,-4.0998,-4.1526,0.0,0.0,-6.1701,-6.7238,-6.9337,-7.1972,-7.317,-7.3444,-7.4374,-7.4682,-7.4754,-7.6103,-7.6165,-7.5593,-7.5663,-7.5135,-7.4378,-7.4275,-7.3968,-7.3612,-7.351,-7.3037,-7.2529,-7.2529,-7.2022,-7.1447,-7.1447,-7.1379,-7.0466,-6.7184,-6.5933,-6.5452,-6.5244,-6.1717,-6.0849,-6.7974,0.0,0.0,0.0,0.0,0.0,0.0,0.0,0.0,0.0,0.0,0.0,0.0,0.0,0.0,0.0,0.0,0.0,0.0,0.0,0.0,-6.9891,-7.236,-7.5033,-7.7942,-7.7976,-7.872,-8.0209,-8.0209,-8.0885,-8.2113,-8.0838,-8.0337,-8.0436,-7.7953,-7.6151,-7.4922,-7.3722,-7.3137,-7.2983,-7.2983,-7.2983,-7.2983,-7.2983,-7.2983,-7.2983,-4.1967,-4.2523,-4.3356,-4.4463,-4.9833,-5.5539,-6.0123,-6.4686,-6.7859,-6.8615,-7.3591,-7.6949,-7.6647,-7.711,-7.7197,-7.6391,-7.567,-7.4733,-7.3435,-7.3109,-7.2617,-7.1786,-7.1324,-7.1076,-7.1041,-6.5808,-6.0808,0.0,-5.1516,-4.6859,-4.2381,-4.2219,-4.2219,-4.2356,-4.2595,0.0,-5.6944,-6.3876,0.0,-7.2243,-7.3003,-7.3415,-7.3682,-7.4251,-7.483,-7.5442,-7.5924,-7.577,-7.5457,-7.6108,-7.5946,-7.5344,-7.4687,-7.4471,-7.4289,-7.368,-7.3409,-7.3308,-7.3308,-7.2766,-7.2225,-7.2225,-7.1751,-7.1142,-7.0466,-7.0229,-7.0083,-7.0117,-6.9373,-6.8301,-6.6703,0.0,0.0,0.0,0.0,0.0,0.0,0.0,0.0,0.0,0.0,0.0,0.0,0.0,0.0,0.0,0.0,0.0,0.0,0.0,0.0,0.0,-7.4458,0.0,0.0,0.0,-7.872,-8.0209,-8.0209,-8.0405,-8.0783,-7.9495,-7.9059,-7.916,-7.7678,-7.6194,-7.4984,-7.4738,-7.3999,-7.2983,-7.2983,-7.2983,-7.2983,-7.2983,-7.2983,-7.2983,-4.4005,-4.4406,-4.6032,-5.0235,-5.5624,-6.1292,-6.7038,-7.2631,-7.5061,-7.1737,-7.426,-7.6155,-7.5546,-7.7002,-7.7937,-7.7591,-7.6211,-7.5084,-7.453,-7.3587,-7.2756,-7.2251,-7.211,-7.1902,-7.1663,-6.8725,-6.414,-5.7842,-5.4658,-4.9798,-4.3425,-4.2937,-4.2654,-4.2712,0.0,-5.0909,0.0,0.0,-6.8527,-7.0862,-7.3166,-7.4008,-7.403,-7.5178,-7.55,-7.5514,-7.6049,-7.5914,-7.5612,-7.6266,-7.6135,-7.5642,-7.527,-7.5168,-7.51,-7.4728,-7.4356,-7.4052,-7.4052,-7.351,-7.2969,-7.2969,-7.2428,-7.1887,-7.1887,-7.1582,-7.1312,-7.1312,-7.1312,-7.0161,-6.6373,-6.2042,0.0,0.0,0.0,0.0,0.0,0.0,0.0,0.0,0.0,0.0,0.0,0.0,0.0,0.0,0.0,0.0,0.0,0.0,0.0,0.0,0.0,0.0,-7.7976,0.0,-7.872,-8.0209,-8.0209,-8.0301,-8.0476,-7.9211,-7.8703,-7.8785,-7.7199,-7.6123,-7.5476,-7.4769,-7.3907,-7.2983,-7.2983,-7.2983,-7.2983,-7.2983,-7.2983,-7.2983,-4.7431,-4.8112,-5.0501,-5.7122,-6.2582,-6.7505,-7.1886,-7.709,-7.8981,-7.444,-7.4582,-7.5006,-7.4555,-7.6996,-7.8508,-7.8176,-7.6473,-7.5196,-7.4617,-7.3647,-7.2769,-7.2022,-7.2479,-7.2479,-7.1987,-7.1428,-6.7603,0.0,-5.8141,-5.2814,-4.4746,-4.3943,-4.3973,-4.4933,-5.0017,-5.431,-5.8118,-6.4544,-6.8197,-6.991,-7.3276,-7.4448,-7.4329,-7.582,-7.5928,-7.539,-7.6083,-7.6041,-7.5757,-7.6216,-7.6041,-7.5709,-7.5709,-7.5709,-7.5709,-7.5709,-7.5303,-7.483,-7.483,-7.4289,-7.3713,-7.3713,-7.3172,-7.2631,-7.2631,-7.2191,-7.1718,-7.1582,-7.1548,-7.0364,-6.6406,-6.4038,0.0,0.0,0.0,0.0,0.0,0.0,0.0,0.0,0.0,0.0,0.0,0.0,0.0,0.0,0.0,0.0,0.0,0.0,0.0,0.0,0.0,-7.4762,-7.6995,0.0,-7.872,-8.0209,-7.9921,-7.99,-8.0033,-7.8809,-7.8314,-7.8439,-7.6884,-7.6061,-7.5692,-7.4491,-7.3599,-7.2983,-7.2983,-7.2983,-7.2983,-7.2983,-7.2983,-7.2983,-5.3556,-5.5607,-5.8104,-6.2616,-6.8518,-7.262,-7.2582,-7.6692,-7.9374,-7.8113,-7.8494,-7.8634,-7.7922,-7.7791,-7.7146,-7.577,-7.56,-7.4831,-7.306,-7.3164,-7.3094,-7.2651,-7.2154,-7.2126,-7.2609,-7.2022,-6.9485,-6.4996,0.0,-5.5069,-4.6823,-4.6525,-4.8384,-5.1996,-5.3293,-5.8084,-6.5276,-6.6699,-6.9567,-7.3263,-7.3906,-7.424,-7.442,-7.5156,-7.5379,-7.5344,-7.5675,-7.5757,-7.5709,-7.5757,-7.5757,-7.5709,-7.5709,-7.5709,-7.5709,-7.5709,-7.5642,-7.5608,-7.5608,-7.5067,-7.4492,-7.4492,-7.395,-7.3375,-7.3375,-7.3341,-7.3105,-7.2428,-7.2293,-7.0939,-6.6508,-6.8741,-7.0128,0.0,0.0,0.0,0.0,0.0,0.0,0.0,0.0,0.0,0.0,0.0,0.0,0.0,0.0,0.0,0.0,0.0,0.0,-7.1041,0.0,-7.1684,-7.3883,-7.6623,-7.872,-8.0209,-7.9079,-7.8651,-7.8751,-7.7549,-7.7027,-7.7181,-7.702,-7.6215,-7.5046,-7.4307,-7.3599,-7.2983,-7.2983,-7.2983,-7.2983,-7.2983,-7.2983,-7.2983,-6.0776,-6.1718,-6.3509,-6.7645,-7.0511,-7.3144,-7.576,-7.7377,-7.8365,-7.8505,-7.82,-7.7919,-7.7782,-7.7046,-7.6285,-7.5547,-7.5574,-7.4967,-7.348,-7.3621,-7.3455,-7.2747,-7.2693,-7.2741,-7.288,-7.2325,-7.0278,-6.6612,-6.2148,-5.726,-5.1933,-5.1393,-5.3297,-5.7261,-6.001,-6.3328,-6.7011,-6.9609,-7.1984,-7.3982,-7.441,-7.4705,-7.5038,-7.5743,-7.5832,-7.5586,-7.5622,-7.5709,-7.5709,-7.5709,-7.5709,-7.5709,-7.5709,-7.5709,-7.5709,-7.5709,-7.5709,-7.5709,-7.5709,-7.5473,-7.527,-7.527,-7.4728,-7.4153,-7.4153,-7.3815,-7.3409,-7.3105,-7.2699,-7.1853,-7.006,-6.935,-6.9147,-6.9451,0.0,0.0,0.0,0.0,0.0,0.0,0.0,0.0,0.0,0.0,0.0,0.0,0.0,0.0,0.0,0.0,0.0,-7.1887,0.0,-7.4356,-7.7468,-7.7841,-7.872,-8.0209,-8.012,-7.9625,-7.8578,-7.856,-7.7994,-7.7016,-7.7016,-7.6246,-7.4984,-7.4707,-7.3968,-7.2983,-7.2983,-7.2983,-7.2983,-7.2983,-7.2983,-7.2983,-6.6977,-6.7259,-6.8706,-7.2939,-7.358,-7.4616,-7.799,-7.806,-7.7894,-7.848,-7.7726,-7.7313,-7.769,-7.7064,-7.645,-7.6036,-7.6034,-7.5526,-7.4325,-7.4418,-7.4072,-7.3092,-7.3275,-7.3296,-7.3005,-7.2649,-7.1335,-6.9068,-6.4549,-6.0531,-5.7087,-5.5371,-5.7259,-6.2324,-6.5164,-6.7465,-6.9354,-7.211,-7.367,-7.4225,-7.48,-7.5214,-7.5447,-7.6049,-7.6182,-7.6007,-7.5805,-7.5805,-7.5899,-7.5757,-7.5845,-7.6014,-7.5777,-7.5845,-7.6048,-7.6048,-7.6217,-7.6386,-7.6386,-7.6386,-7.6386,-7.6386,-7.5811,-7.5303,-7.5303,-7.4525,-7.3747,-7.3544,-7.3071,-7.2732,-7.2732,-7.0567,-6.9485,-7.1616,0.0,0.0,0.0,0.0,0.0,0.0,0.0,-6.7489,-6.7489,0.0,0.0,0.0,0.0,0.0,0.0,0.0,0.0,0.0,0.0,0.0,-7.8179,-7.8077,-7.872,-8.0209,-8.0612,-7.9998,-7.861,-7.8835,-7.8219,-7.7016,-7.7016,-7.6246,-7.5015,-7.5015,-7.4214,-7.2983,-7.2983,-7.2983,-7.2983,-7.2983,-7.2983,-7.2983,-7.1481,-7.2442,-7.4011,-7.878,-7.892,-7.8421,-7.8477,-7.8505,-7.848,-7.8594,-7.7907,-7.7696,-7.8504,-7.8367,-7.7948,-7.7132,-7.7086,-7.6548,-7.5377,-7.547,-7.5038,-7.3851,-7.3817,-7.3557,-7.3005,-7.297,-7.3094,-7.3223,-6.9285,-6.5391,-6.1606,-5.7719,-5.9976,-6.7298,-6.7367,-6.9714,-7.3657,-7.3934,-7.424,-7.4462,-7.5043,-7.547,-7.5708,-7.5688,-7.6148,-7.6702,-7.596,-7.6041,-7.6402,-7.5899,-7.6217,-7.6758,-7.5946,-7.6251,-7.6893,-7.6893,-7.7401,-7.7942,-7.7942,-7.7942,-7.7942,-7.7942,-7.7401,-7.686,-7.686,-7.5709,-7.439,-7.3646,-7.3477,-7.3477,-7.3477,-7.3443,-7.3409,-7.3443,-7.2834,0.0,0.0,0.0,0.0,0.0,-6.9113,-6.9079,-6.9079,0.0,0.0,0.0,0.0,0.0,0.0,0.0,0.0,-7.0297,-7.0229,0.0,-7.3544,-7.6487,-7.872,-8.0209,-7.9761,-7.9198,-7.8552,-7.7495,-7.7016,-7.7016,-7.7016,-7.6246,-7.5015,-7.5015,-7.4214,-7.2983,-7.2983,-7.2983,-7.2983,-7.2983,-7.2983,-7.2983,-7.8618,-7.8384,-7.8242,-7.885,-7.8289,-7.7731,-7.7754,-7.733,-7.7378,-7.8398,-7.7848,-7.7731,-7.8504,-7.8037,-7.7539,-7.716,-7.7613,-7.746,-7.6424,-7.6354,-7.6006,-7.5038,-7.5003,-7.4698,-7.4052,-7.401,-7.3774,-7.3293,-6.9836,-6.7541,-6.6329,-6.5077,-6.6989,-7.1444,-7.1804,-7.2706,-7.3969,-7.4343,-7.4791,-7.5273,-7.5344,-7.5629,-7.5968,-7.5973,-7.5994,-7.6007,-7.5805,-7.6143,-7.6761,-7.6569,-7.7029,-7.7604,-7.7333,-7.7435,-7.7638,-7.7638,-7.7807,-7.7976,-7.7976,-7.7976,-7.7874,-7.7367,-7.7063,-7.6758,-7.6217,-7.5303,-7.4559,-7.4289,-7.3443,-7.2732,-7.2732,-7.2326,-7.2157,-7.2665,-7.2563,-7.2665,-7.3375,0.0,0.0,0.0,-7.165,-7.1548,0.0,-7.4153,0.0,0.0,0.0,0.0,0.0,0.0,0.0,0.0,-7.3172,0.0,-7.8044,-7.8517,-7.9228,-8.0209,-8.0208,-7.9676,-7.874,-7.7548,-7.7016,-7.7016,-7.7016,-7.6246,-7.5015,-7.5015,-7.4214,-7.2983,-7.2983,-7.2983,-7.2983,-7.2983,-7.2983,-7.2983,-8.1298,-8.0442,-7.9531,-7.899,-7.8096,-7.7496,-7.7751,-7.7405,-7.7488,-7.839,-7.813,-7.8047,-7.8539,-7.8153,-7.7789,-7.7664,-7.8119,-7.8104,-7.7438,-7.736,-7.6934,-7.6083,-7.6049,-7.5666,-7.49,-7.49,-7.4698,-7.4292,-7.2215,-7.1196,-7.1156,-7.0995,-7.2082,-7.4163,-7.4406,-7.4614,-7.481,-7.5016,-7.5416,-7.5819,-7.5868,-7.6051,-7.6262,-7.6262,-7.6386,-7.6496,-7.6245,-7.6753,-7.7542,-7.7348,-7.7807,-7.8416,-7.8416,-7.8585,-7.8754,-7.8483,-7.8619,-7.8754,-7.8483,-7.8416,-7.8247,-7.7502,-7.7096,-7.6623,-7.554,-7.5134,-7.4931,-7.4661,-7.4086,-7.3544,-7.3274,-7.2868,-7.2529,-7.2428,-7.2631,-7.2868,-7.3037,0.0,0.0,0.0,0.0,0.0,0.0,-7.3138,-7.3071,0.0,0.0,0.0,0.0,0.0,0.0,-7.368,-7.527,-7.7333,-7.9769,-7.9058,-7.9194,-8.0209,-7.9923,-7.9497,-7.888,-7.7541,-7.7016,-7.7016,-7.7016,-7.64,-7.5353,-7.5107,-7.4368,-7.3322,-7.3076,-7.2983,-7.2983,-7.2983,-7.2983,-7.2983,-8.0513,-7.9413,-7.8648,-7.9323,-7.8344,-7.7716,-7.839,-7.8497,-7.8548,-7.8594,-7.8574,-7.8609,-7.8679,-7.8679,-7.8679,-7.8679,-7.8609,-7.8525,-7.8384,-7.8349,-7.7915,-7.6969,-7.6892,-7.6544,-7.5743,-7.5666,-7.575,-7.5888,-7.5715,-7.5589,-7.5589,-7.5163,-7.5206,-7.5589,-7.5335,-7.5497,-7.591,-7.6037,-7.6075,-7.6144,-7.6609,-7.6691,-7.6541,-7.6563,-7.7066,-7.7775,-7.7168,-7.7726,-7.8675,-7.8191,-7.8585,-7.9194,-7.9194,-7.9667,-8.0073,-7.9397,-7.9634,-7.9972,-7.9295,-7.9058,-7.8855,-7.8111,-7.7367,-7.6454,-7.4999,-7.5168,-7.5439,-7.4762,-7.51,-7.5337,-7.4661,-7.4525,-7.4086,-7.2766,-7.3071,-7.3274,-7.2631,-7.3105,-7.2462,0.0,0.0,0.0,-6.9417,-6.9417,-7.0466,0.0,0.0,0.0,0.0,0.0,-7.4864,-7.5743,-7.6555,-7.7638,-7.9025,-7.8348,-7.8704,-8.0124,-7.913,-7.8735,-7.888,-7.7541,-7.7016,-7.7016,-7.7016,-7.6646,-7.5969,-7.5292,-7.4584,-7.3937,-7.326,-7.2983,-7.2983,-7.2983,-7.2983,-7.2983,-8.1886,-8.0654,-7.9551,-7.9435,-7.8695,-7.8207,-7.8547,-7.8547,-7.8577,-7.8616,-7.8574,-7.882,-7.9452,-7.9522,-7.9522,-7.9522,-7.8925,-7.8855,-7.9402,-7.8841,-7.842,-7.8203,-7.8034,-7.7558,-7.6755,-7.6586,-7.6265,-7.5673,-7.5631,-7.5589,-7.5589,-7.5504,-7.5504,-7.5624,-7.5751,-7.5862,-7.6028,-7.6647,-7.6913,-7.6913,-7.7041,-7.6964,-7.6759,-7.697,-7.7074,-7.7202,-7.7551,-7.8311,-7.9004,-7.8905,-7.9329,-7.9938,-7.9938,-8.0073,-8.0175,-8.0006,-7.9667,-7.9329,-7.916,-7.8686,-7.8077,-7.7333,-7.6555,-7.5879,-7.554,-7.5134,-7.483,-7.4661,-7.4289,-7.395,-7.3781,-7.3747,-7.3815,-7.4052,-7.3747,-7.3612,-7.4018,-7.3747,-7.324,-7.2529,-7.2462,-7.2462,-7.2462,-7.2462,-7.1785,0.0,0.0,0.0,-7.2056,-7.2631,-7.4052,-7.6555,-7.7333,-7.7908,-7.8247,-7.8077,-7.8506,-7.9595,-7.9488,-7.9276,-7.888,-7.7541,-7.7016,-7.7016,-7.7016,-7.6646,-7.5969,-7.5292,-7.4584,-7.3937,-7.326,-7.2983,-7.2983,-7.2983,-7.2983,-7.2983,-8.1632,-8.0468,-7.9408,-7.9325,-7.8747,-7.8357,-7.8574,-7.8574,-7.8574,-7.8574,-7.889,-7.9311,-7.9733,-8.0084,-8.0435,-8.0821,-7.9803,-7.9171,-7.9241,-7.882,-7.8574,-7.8574,-7.8525,-7.8189,-7.7642,-7.7558,-7.7221,-7.6675,-7.6547,-7.6383,-7.6331,-7.6113,-7.6201,-7.6461,-7.6493,-7.6745,-7.7042,-7.715,-7.7189,-7.7223,-7.7433,-7.7262,-7.7042,-7.7686,-7.7861,-7.7976,-7.8348,-7.8991,-7.96,-7.96,-7.987,-8.0209,-8.0209,-7.9972,-7.9701,-7.9701,-7.9431,-7.9025,-7.8686,-7.8044,-7.7299,-7.6555,-7.6014,-7.5709,-7.5709,-7.5405,-7.51,-7.51,-7.4762,-7.439,-7.4052,-7.3984,-7.4018,-7.4086,-7.3206,-7.3003,-7.4424,-7.395,-7.3883,-7.4931,-7.5337,-7.554,-7.554,-7.554,-7.4864,-7.3274,-7.3544,0.0,-7.4356,-7.5067,-7.6217,-7.7841,-7.7976,-7.8145,-7.8483,-7.8822,-7.8834,-7.8537,-7.9314,-7.9135,-7.8024,-7.7312,-7.7016,-7.7016,-7.7016,-7.68,-7.64,-7.5415,-7.4799,-7.4368,-7.3383,-7.2983,-7.2983,-7.2983,-7.2983,-7.2983,-8.0623,-7.9676,-7.8882,-7.912,-7.8699,-7.8399,-7.8741,-7.8763,-7.8715,-7.8609,-7.9276,-7.9803,-7.9803,-8.047,-8.1172,-8.1839,-8.0821,-7.9838,-7.9171,-7.8995,-7.889,-7.8785,-7.875,-7.8631,-7.8357,-7.8314,-7.8143,-7.785,-7.7572,-7.7283,-7.7061,-7.6701,-7.6837,-7.7415,-7.7342,-7.7588,-7.8101,-7.7638,-7.7406,-7.7385,-7.7823,-7.7806,-7.7496,-7.8422,-7.8895,-7.9126,-7.9228,-7.9667,-8.0209,-8.0209,-8.0209,-8.0175,-8.0073,-7.96,-7.9092,-7.8991,-7.8855,-7.8653,-7.801,-7.7299,-7.6555,-7.5879,-7.5709,-7.5709,-7.5709,-7.5709,-7.5709,-7.5709,-7.5709,-7.5506,-7.4897,-7.4796,-7.4458,-7.3477,-7.2462,-7.236,-7.3883,-7.395,-7.4525,-7.6487,-7.7468,-7.7976,-7.7976,-7.7976,-7.7976,-7.7976,-7.7976,-7.8044,-7.8145,-7.8754,-7.916,-7.9261,-7.845,-7.828,-7.8923,-7.9904,-7.9527,-7.7991,-7.9244,-7.8926,-7.7246,-7.7081,-7.7016,-7.7016,-7.7016,-7.6954,-7.6769,-7.5507,-7.4953,-7.4738,-7.3476,-7.2983,-7.2983,-7.2983,-7.2983,-7.2983,-7.9985,-7.9299,-7.8882,-7.9084,-7.8664,-7.8574,-7.9369,-7.9599,-7.9346,-7.8679,-7.9276,-7.9803,-7.9803,-8.047,-8.0961,-8.1102,-8.1488,-8.1664,-8.1558,-8.0926,-8.0259,-7.9627,-7.9592,-7.9276,-7.8567,-7.8399,-7.8058,-7.7623,-7.7138,-7.6782,-7.653,-7.6695,-7.6825,-7.6946,-7.7528,-7.7632,-7.7402,-7.8148,-7.82,-7.7823,-7.8379,-7.8545,-7.8504,-7.8899,-7.9041,-7.9194,-7.9803,-8.0107,-8.0209,-8.0209,-8.0209,-8.0073,-7.9464,-7.9194,-7.8991,-7.8348,-7.7739,-7.7232,-7.7096,-7.6487,-7.5845,-7.5743,-7.5709,-7.5709,-7.5709,-7.5709,-7.5709,-7.5709,-7.5709,-7.5676,-7.554,-7.554,-7.4864,-7.2902,-7.3443,-7.3578,-7.2056,-7.3849,-7.5473,-7.5845,-7.713,-7.7976,-7.7976,-7.7976,-7.7976,-7.7976,-7.7976,-7.8247,-7.8923,-7.9058,-7.9397,-8.0006,-7.8686,-7.8044,-7.8145,-8.0141,-8.0752,-8.0035,-8.0424,-7.9954,-7.8565,-7.7507,-7.7016,-7.7016,-7.7016,-7.6708,-7.6123,-7.5323,-7.4676,-7.4061,-7.3291,-7.2983,-7.2983,-7.2983,-7.2983,-7.2983,-8.0918,-8.0186,-7.9487,-7.9853,-7.9686,-7.9417,-7.915,-7.9146,-7.9171,-7.9241,-7.9908,-8.0575,-8.0961,-8.1699,-8.2155,-8.2155,-8.2471,-8.2682,-8.2682,-8.1593,-8.0751,-8.04,-8.04,-8.0224,-7.9838,-7.9367,-7.8944,-7.8598,-7.7754,-7.7242,-7.7059,-7.7298,-7.7471,-7.7638,-7.8266,-7.8521,-7.843,-7.8626,-7.8578,-7.8366,-7.8769,-7.8929,-7.8948,-7.9497,-7.9701,-7.9735,-8.0073,-8.0209,-8.0209,-8.0209,-7.9938,-7.9566,-7.9228,-7.8551,-7.7841,-7.7502,-7.7164,-7.6792,-7.6352,-7.598,-7.5709,-7.5709,-7.5709,-7.5709,-7.5709,-7.5709,-7.5709,-7.5709,-7.5709,-7.5709,-7.5709,-7.5709,-7.5371,-7.4356,-7.3747,-7.3477,-7.3646,-7.4153,-7.51,-7.6724,-7.7908,-7.8754,-7.9126,-7.916,-7.916,-7.916,-7.916,-7.9329,-7.9667,-7.9701,-7.987,-8.0175,-7.9532,-7.916,-7.916,-8.0987,-8.1277,-8.0084,-8.0548,-7.9806,-7.7863,-7.7246,-7.7016,-7.7016,-7.7016,-7.6831,-7.6461,-7.5446,-7.483,-7.443,-7.3383,-7.2983,-7.2983,-7.2983,-7.2983,-7.2983,-8.167,-8.0921,-8.0177,-8.0709,-8.0563,-8.0146,-7.9517,-7.9227,-7.9346,-7.9978,-8.0716,-8.1348,-8.1769,-8.2471,-8.2928,-8.2928,-8.3103,-8.3208,-8.3208,-8.2083,-8.1387,-8.1207,-8.0997,-8.0926,-8.0926,-8.0189,-7.964,-7.939,-7.8318,-7.765,-7.7424,-7.7613,-7.7868,-7.8131,-7.8695,-7.9015,-7.9233,-7.9029,-7.8893,-7.8817,-7.9207,-7.9363,-7.9431,-7.9972,-8.0209,-8.0209,-8.0209,-8.0209,-8.0175,-8.0006,-7.9566,-7.9058,-7.872,-7.7807,-7.686,-7.669,-7.6623,-7.6487,-7.5879,-7.5709,-7.5709,-7.5709,-7.5709,-7.5709,-7.5709,-7.5709,-7.5709,-7.5709,-7.5709,-7.5709,-7.5709,-7.5709,-7.554,-7.5033,-7.395,-7.3578,-7.4762,-7.4559,-7.5202,-7.7671,-7.8653,-7.9397,-8.0141,-8.0209,-8.0209,-8.0209,-8.0209,-8.0209,-8.0209,-8.0209,-8.0276,-8.0445,-8.0445,-8.0445,-8.0445,-8.1472,-8.1203,-7.9704,-8.0016,-7.9063,-7.7016,-7.7016,-7.7016,-7.7016,-7.7016,-7.6923,-7.6708,-7.5661,-7.5138,-7.4892,-7.3845,-7.3353,-7.3229,-7.3229,-7.3106,-7.2983,-8.0956,-8.0603,-8.0503,-8.1295,-8.0524,-8.0253,-8.164,-8.1189,-8.0751,-8.0821,-8.1523,-8.1734,-8.1067,-8.1699,-8.2155,-8.2155,-8.2822,-8.3208,-8.3208,-8.3103,-8.2726,-8.2023,-8.1313,-8.0926,-8.0926,-8.0189,-7.964,-7.939,-7.8091,-7.723,-7.6884,-7.6841,-7.7051,-7.7604,-7.8096,-7.8488,-7.8784,-7.9467,-7.9484,-7.9142,-7.9837,-8.0107,-8.0107,-8.0175,-8.0209,-8.0209,-8.0209,-8.0209,-8.0107,-7.9431,-7.916,-7.8889,-7.7502,-7.6995,-7.6758,-7.6014,-7.5777,-7.5777,-7.5709,-7.5709,-7.5709,-7.5709,-7.5709,-7.5709,-7.5709,-7.5709,-7.5709,-7.5709,-7.5709,-7.5709,-7.5709,-7.5709,-7.5033,-7.2969,-7.4221,-7.4796,-7.2902,-7.4965,-7.6995,-7.7874,-7.8653,-7.9397,-8.0141,-8.0209,-8.0209,-8.0209,-8.0209,-8.0209,-8.0209,-8.0209,-8.0513,-8.119,-8.119,-8.119,-8.119,-8.0903,-8.0395,-7.9704,-7.8605,-7.7716,-7.7016,-7.7016,-7.7016,-7.7016,-7.7016,-7.6677,-7.6092,-7.5969,-7.5569,-7.4984,-7.4892,-7.4461,-7.3907,-7.3907,-7.3506,-7.2983,-8.326,-8.2971,-8.236,-8.1961,-8.1488,-8.1074,-8.0718,-8.0401,-8.0575,-8.1523,-8.1909,-8.2155,-8.2331,-8.3061,-8.3542,-8.3542,-8.4253,-8.4465,-8.4,-8.3553,-8.3127,-8.2791,-8.2071,-8.1629,-8.1629,-8.1372,-8.0859,-8.0027,-7.9104,-7.8453,-7.8111,-7.7667,-7.7799,-7.85,-7.8729,-7.9095,-7.9661,-7.9933,-7.9969,-7.9803,-8.0073,-8.0209,-8.0209,-8.0209,-8.0209,-8.0141,-7.9701,-7.9532,-7.9431,-7.8686,-7.8111,-7.7638,-7.7063,-7.6555,-7.6082,-7.5777,-7.5709,-7.5709,-7.5709,-7.5709,-7.5709,-7.5709,-7.5709,-7.5709,-7.5709,-7.5709,-7.5709,-7.5709,-7.5709,-7.5709,-7.5709,-7.5709,-7.5405,-7.4593,-7.5134,-7.5405,-7.4559,-7.5439,-7.6589,-7.7841,-7.8247,-7.8889,-8.0073,-8.0209,-8.0209,-8.0209,-8.0209,-8.0412,-8.0851,-8.1325,-8.19,-8.2644,-8.2644,-8.2644,-8.2644,-8.2164,-8.1368,-8.0351,-7.9117,-7.7966,-7.7016,-7.7016,-7.7016,-7.7016,-7.7016,-7.6862,-7.6615,-7.6184,-7.56,-7.4953,-7.4522,-7.3968,-7.3353,-7.3353,-7.3199,-7.2983,-8.4264,-8.3811,-8.2898,-8.207,-8.1814,-8.1466,-8.0655,-8.0505,-8.109,-8.2615,-8.2799,-8.3104,-8.3854,-8.4437,-8.4801,-8.4801,-8.5059,-8.4966,-8.4423,-8.3229,-8.2647,-8.2857,-8.2607,-8.2353,-8.2093,-8.1861,-8.1226,-8.0194,-7.9509,-7.8917,-7.8455,-7.8108,-7.8087,-7.8503,-7.8856,-7.9309,-7.987,-8.0107,-8.0209,-8.0209,-8.0209,-8.0209,-8.0209,-8.0209,-8.0073,-7.9803,-7.9295,-7.8957,-7.8653,-7.7908,-7.7299,-7.686,-7.6589,-7.6149,-7.5709,-7.5709,-7.5709,-7.5709,-7.5709,-7.5709,-7.5709,-7.5709,-7.5709,-7.5709,-7.5709,-7.5709,-7.5709,-7.5709,-7.5709,-7.5709,-7.5709,-7.5709,-7.5709,-7.5709,-7.5709,-7.5709,-7.5709,-7.5709,-7.6251,-7.7807,-7.7976,-7.8551,-8.0073,-8.0209,-8.0209,-8.0209,-8.0209,-8.0513,-8.1257,-8.2205,-8.2983,-8.349,-8.3727,-8.3862,-8.3862,-8.2477,-8.1352,-8.0415,-7.8781,-7.7645,-7.7016,-7.7016,-7.7016,-7.7016,-7.7016,-7.7016,-7.6954,-7.6277,-7.5723,-7.5261,-7.4584,-7.3907,-7.3291,-7.3291,-7.3168,-7.2983,-8.3251,-8.2364,-8.1519,-8.152,-8.1168,-8.1185,-8.1969,-8.2129,-8.2643,-8.4201,-8.4396,-8.472,-8.5506,-8.5583,-8.5583,-8.5583,-8.4859,-8.4387,-8.4387,-8.2186,-8.1291,-8.2076,-8.278,-8.2818,-8.2112,-8.1287,-8.0532,-7.9768,-7.8995,-7.8237,-7.7509,-7.7763,-7.7658,-7.7244,-7.8265,-7.8871,-7.916,-7.9904,-8.0209,-8.0209,-8.0209,-8.0209,-8.0209,-8.0209,-7.9735,-7.9126,-7.9092,-7.8619,-7.7874,-7.713,-7.6893,-7.6758,-7.5946,-7.5709,-7.5709,-7.5709,-7.5709,-7.5709,-7.5709,-7.5709,-7.5709,-7.5709,-7.5709,-7.5709,-7.5709,-7.5709,-7.5709,-7.5709,-7.5709,-7.5709,-7.5709,-7.5709,-7.5709,-7.5709,-7.5709,-7.5709,-7.5709,-7.5709,-7.6251,-7.7807,-7.7976,-7.8551,-8.004,-8.0209,-8.0209,-8.0209,-8.0209,-8.0547,-8.1257,-8.2712,-8.3524,-8.3524,-8.4234,-8.464,-8.464,-8.1392,-7.9762,-7.9645,-7.7183,-7.6369,-7.7016,-7.7016,-7.7016,-7.7016,-7.7016,-7.7016,-7.6954,-7.6277,-7.6,-7.5938,-7.5261,-7.4584,-7.3968,-7.3968,-7.3568,-7.2983,-8.3599,-8.3778,-8.3521,-8.196,-8.2208,-8.247,-8.2169,-8.2574,-8.3288,-8.4283,-8.4884,-8.5353,-8.5582,-8.5591,-8.5584,-8.5584,-8.4924,-8.3984,-8.2867,-8.1598,-8.1018,-8.1235,-8.0966,-8.0718,-8.0505,-8.0759,-8.0408,-7.9346,-7.9387,-7.9125,-7.867,-7.8151,-7.8092,-7.8463,-7.8797,-7.9303,-7.9911,-8.0319,-8.051,-8.046,-8.0309,-8.0209,-8.0209,-8.0209,-7.9735,-7.9058,-7.8517,-7.7841,-7.7096,-7.6318,-7.6048,-7.6014,-7.5777,-7.5709,-7.5709,-7.5709,-7.5709,-7.5709,-7.5709,-7.5709,-7.5709,-7.5709,-7.5709,-7.5709,-7.5709,-7.5709,-7.5709,-7.5709,-7.5709,-7.5709,-7.5709,-7.5709,-7.5709,-7.5709,-7.5709,-7.5709,-7.5709,-7.5709,-7.6082,-7.7096,-7.7671,-7.8382,-7.9329,-7.9904,-8.0209,-8.0209,-8.1156,-8.2069,-8.278,-8.3761,-8.4302,-8.4302,-8.4505,-8.464,-8.464,-8.1886,-8.0475,-8.0448,-7.7903,-7.6831,-7.7016,-7.7016,-7.7016,-7.7016,-7.7016,-7.6739,-7.6308,-7.6092,-7.5446,-7.4584,-7.4368,-7.3876,-7.3291,-7.3291,-7.3168,-7.2983,-8.3603,-8.4051,-8.4046,-8.2354,-8.2932,-8.339,-8.2552,-8.3458,-8.4499,-8.5278,-8.5807,-8.5992,-8.5664,-8.5652,-8.5388,-8.4781,-8.3979,-8.2862,-8.1234,-8.0691,-8.0291,-7.999,-7.9575,-7.9444,-7.974,-8.0194,-7.9941,-7.8952,-7.916,-7.9079,-7.8664,-7.8364,-7.8224,-7.8316,-7.9165,-7.9648,-7.9801,-8.0512,-8.0709,-8.061,-8.0309,-8.0209,-8.0209,-8.0209,-7.9566,-7.8619,-7.8145,-7.7299,-7.6352,-7.5845,-7.5709,-7.5709,-7.5709,-7.5709,-7.5709,-7.5709,-7.5709,-7.5709,-7.5709,-7.5709,-7.5709,-7.5709,-7.5709,-7.5709,-7.5709,-7.5709,-7.5709,-7.5709,-7.5709,-7.5709,-7.5709,-7.5709,-7.5709,-7.5709,-7.5709,-7.5709,-7.5709,-7.5709,-7.6115,-7.7198,-7.7705,-7.8382,-7.9431,-7.9938,-8.0209,-8.0209,-8.1562,-8.2611,-8.305,-8.3959,-8.448,-8.4587,-8.4533,-8.4285,-8.3838,-8.1828,-8.0799,-8.0739,-7.8216,-7.7016,-7.7016,-7.7016,-7.7016,-7.7016,-7.7016,-7.6646,-7.6,-7.5723,-7.4984,-7.3968,-7.3691,-7.3415,-7.3169,-7.3045,-7.3107,-7.3169,-8.3508,-8.3758,-8.3665,-8.2771,-8.361,-8.4076,-8.3203,-8.4574,-8.5955,-8.6781,-8.6953,-8.6694,-8.5815,-8.5631,-8.492,-8.3302,-8.2396,-8.1234,-7.9795,-7.9643,-7.9325,-7.8741,-7.8616,-7.8911,-7.9604,-7.9604,-7.9285,-7.8574,-7.8574,-7.8364,-7.798,-7.8406,-7.8186,-7.754,-7.9386,-7.982,-7.9393,-8.0487,-8.0857,-8.0659,-8.036,-8.0209,-8.0209,-8.0209,-7.9261,-7.7976,-7.7976,-7.6995,-7.5709,-7.5709,-7.5709,-7.5709,-7.5709,-7.5709,-7.5709,-7.5709,-7.5709,-7.5709,-7.5709,-7.5709,-7.5709,-7.5709,-7.5709,-7.5709,-7.5709,-7.5709,-7.5709,-7.5709,-7.5709,-7.5709,-7.5709,-7.5709,-7.5709,-7.5709,-7.5709,-7.5709,-7.5709,-7.5709,-7.6251,-7.7705,-7.7942,-7.8551,-7.9972,-8.0175,-8.0209,-8.0276,-8.1544,-8.2389,-8.2457,-8.3597,-8.4319,-8.4587,-8.4319,-8.3708,-8.2718,-8.1388,-8.0739,-8.062,-7.8152,-7.7016,-7.7016,-7.7016,-7.7016,-7.7016,-7.7016,-7.6585,-7.5941,-7.5261,-7.4584,-7.3845,-7.3229,-7.3169,-7.3447,-7.3169,-7.3231,-7.357,-8.4352,-8.501,-8.5321,-8.45,-8.5191,-8.5588,-8.4744,-8.5622,-8.6427,-8.6641,-8.7328,-8.7263,-8.5882,-8.5153,-8.4115,-8.2505,-8.1049,-8.0056,-7.9721,-7.916,-7.8998,-7.9448,-7.8911,-7.8657,-7.8829,-7.8829,-7.8747,-7.8574,-7.8574,-7.8532,-7.8448,-7.8532,-7.8841,-7.9259,-7.9684,-8.0324,-8.1085,-8.0803,-8.0872,-8.1083,-8.0426,-8.0209,-8.0209,-8.0209,-7.9261,-7.7976,-7.7976,-7.6995,-7.5709,-7.5709,-7.5709,-7.5709,-7.5709,-7.5709,-7.5709,-7.5709,-7.5709,-7.5709,-7.5709,-7.5709,-7.5709,-7.5709,-7.5709,-7.5709,-7.5709,-7.5709,-7.5709,-7.5709,-7.5709,-7.5709,-7.5709,-7.5709,-7.5709,-7.5709,-7.5709,-7.5709,-7.5709,-7.5709,-7.6048,-7.7029,-7.7638,-7.8348,-7.9261,-7.987,-8.0445,-8.1021,-8.1693,-8.2364,-8.2917,-8.3706,-8.4265,-8.4319,-8.4265,-8.3708,-8.2718,-8.1219,-8.0082,-7.9284,-7.7734,-7.7016,-7.7016,-7.7016,-7.7147,-7.7377,-7.7147,-7.6468,-7.5582,-7.5173,-7.4307,-7.3199,-7.3045,-7.3169,-7.3509,-7.3447,-7.3601,-7.3814,-8.5159,-8.5888,-8.6267,-8.5446,-8.61,-8.6499,-8.5731,-8.6498,-8.7194,-8.7295,-8.7762,-8.7216,-8.4816,-8.4165,-8.2976,-8.0629,-7.9693,-7.92,-7.92,-7.8788,-7.8747,-7.916,-7.8788,-7.8574,-7.8574,-7.8574,-7.8574,-7.8574,-7.8574,-7.8574,-7.8574,-7.8364,-7.8784,-7.976,-7.9664,-8.0257,-8.1328,-8.0954,-8.0872,-8.0921,-8.0376,-8.0209,-8.0209,-8.0209,-7.9261,-7.7976,-7.7976,-7.6995,-7.5709,-7.5709,-7.5709,-7.5709,-7.5709,-7.5709,-7.5709,-7.5709,-7.5709,-7.5709,-7.5709,-7.5709,-7.5709,-7.5709,-7.5709,-7.5709,-7.5709,-7.5709,-7.5709,-7.5709,-7.5709,-7.5709,-7.5709,-7.5709,-7.5709,-7.5709,-7.5709,-7.5709,-7.5709,-7.5709,-7.6115,-7.7299,-7.7773,-7.8416,-7.9532,-7.9972,-8.0293,-8.0597,-8.1488,-8.2105,-8.2348,-8.3281,-8.3631,-8.3288,-8.3154,-8.2386,-8.089,-8.0082,-7.9129,-7.7992,-7.7312,-7.7016,-7.7016,-7.7016,-7.7081,-7.7277,-7.7081,-7.6311,-7.5239,-7.5048,-7.4214,-7.3045,-7.3169,-7.3416,-7.3692,-7.3692,-7.3875,-7.4147,-8.6004,-8.6554,-8.6749,-8.6064,-8.6642,-8.7027,-8.6498,-8.7157,-8.7826,-8.8021,-8.7973,-8.675,-8.3808,-8.3012,-8.1578,-7.8846,-7.8574,-7.8574,-7.8574,-7.8574,-7.8574,-7.8574,-7.8574,-7.8574,-7.8574,-7.8574,-7.8574,-7.8574,-7.8574,-7.8532,-7.8448,-7.8066,-7.8554,-7.9721,-7.9428,-7.996,-8.1043,-8.0892,-8.0808,-8.0659,-8.036,-8.0209,-8.0209,-8.0209,-7.9261,-7.7976,-7.7976,-7.6995,-7.5709,-7.5709,-7.5709,-7.5709,-7.5709,-7.5709,-7.5709,-7.5709,-7.5709,-7.5709,-7.5709,-7.5709,-7.5709,-7.5709,-7.5709,-7.5709,-7.5709,-7.5709,-7.5709,-7.5709,-7.5709,-7.5709,-7.5709,-7.5709,-7.5709,-7.5709,-7.5709,-7.5709,-7.5709,-7.5709,-7.6251,-7.7807,-7.8213,-7.8855,-8.0023,-8.0158,-8.0057,-7.9801,-8.0942,-8.1537,-8.1296,-8.2289,-8.2572,-8.1976,-8.1752,-8.0717,-7.8942,-7.888,-7.8216,-7.7016,-7.7016,-7.7016,-7.7016,-7.7016,-7.7016,-7.7081,-7.7016,-7.6246,-7.5048,-7.5015,-7.4278,-7.3107,-7.3386,-7.3723,-7.3966,-7.4026,-7.4239,-7.4479,-8.6848,-8.6921,-8.696,-8.6856,-8.6925,-8.7064,-8.7132,-8.7365,-8.7595,-8.7794,-8.7322,-8.6281,-8.4535,-8.1852,-7.9775,-7.8657,-7.8574,-7.8574,-7.8574,-7.8574,-7.8574,-7.8574,-7.8574,-7.8574,-7.8574,-7.8574,-7.8574,-7.8574,-7.8574,-7.8364,-7.798,-7.7937,-7.8483,-7.9441,-7.8978,-7.9849,-8.1535,-8.0656,-8.056,-8.0906,-8.041,-8.0209,-8.0209,-8.0209,-7.9261,-7.7976,-7.7976,-7.6995,-7.5709,-7.5709,-7.5709,-7.5709,-7.5709,-7.5709,-7.5709,-7.5709,-7.5709,-7.5709,-7.5709,-7.5709,-7.5709,-7.5709,-7.5709,-7.5709,-7.5709,-7.5709,-7.5709,-7.5709,-7.5709,-7.5709,-7.5709,-7.5709,-7.5709,-7.5709,-7.5709,-7.5709,-7.5709,-7.5709,-7.6251,-7.7807,-7.9126,-7.9871,-7.987,-7.9853,-7.9853,-7.9801,-8.0072,-8.0164,-7.9987,-8.0696,-8.0982,-8.0684,-8.0597,-8.0053,-7.8942,-7.866,-7.7992,-7.7016,-7.7016,-7.7016,-7.7016,-7.7016,-7.7147,-7.7408,-7.7147,-7.6376,-7.5429,-7.5112,-7.4404,-7.3447,-7.3509,-7.3845,-7.4359,-7.4659,-7.4778,-7.4838,-8.6995,-8.6995,-8.6995,-8.6995,-8.6995,-8.7098,-8.7368,-8.7464,-8.7447,-8.7259,-8.6982,-8.6016,-8.4048,-8.1346,-7.9404,-7.8657,-7.8574,-7.8574,-7.8574,-7.8574,-7.8574,-7.8574,-7.8574,-7.8574,-7.8574,-7.8574,-7.8448,-7.8194,-7.8194,-7.8109,-7.7893,-7.7367,-7.7937,-7.935,-7.862,-7.9425,-8.1262,-8.0526,-8.036,-8.056,-8.0309,-8.0209,-8.0175,-7.9735,-7.8923,-7.7874,-7.7029,-7.6284,-7.5709,-7.5709,-7.5709,-7.5709,-7.5709,-7.5709,-7.5709,-7.5709,-7.5709,-7.5709,-7.5709,-7.5709,-7.5709,-7.5709,-7.5709,-7.5709,-7.5709,-7.5709,-7.5709,-7.5709,-7.5709,-7.5709,-7.5709,-7.5709,-7.5709,-7.5709,-7.5709,-7.5709,-7.5709,-7.5709,-7.6203,-7.7576,-7.9095,-7.9853,-7.9596,-7.9596,-7.9492,-7.9303,-7.9708,-7.9953,-7.987,-8.0311,-8.0282,-7.9805,-7.9495,-7.8848,-7.7863,-7.7701,-7.7442,-7.7016,-7.7016,-7.7016,-7.7016,-7.7016,-7.6865,-7.6626,-7.6527,-7.5885,-7.4935,-7.4746,-7.4283,-7.3753,-7.3967,-7.4239,-7.4719,-7.4838,-7.4897,-7.4897]},{"header":{"parameterUnit":"m.s-1","parameterCategory":1,"la1":30.6,"la2":28.766,"lo1":-90.7593,"lo2":-88.6598,"dx":0.0162,"dy":0.0183,"nx":116,"ny":114,"refTime":"2022-11-24T18:00:00:Z","depth":0,"parameterNumber":3,"parameterNumberName":"V-component_of_WINDS"},"data":[0.0,0.0,0.0,0.0,0.0,0.0,0.0,0.0,0.0,0.0,0.0,0.0,0.0,0.0,0.0,0.0,0.0,0.0,0.0,0.0,0.0,0.0,0.0,0.0,0.0,0.0,0.0,0.0,0.0,0.0,0.0,0.0,0.0,0.0,0.0,0.0,0.0,0.0,0.0,0.0,0.0,0.0,0.0,0.0,0.0,0.0,0.0,0.0,0.0,0.0,0.0,0.0,0.0,0.0,0.0,0.0,0.0,0.0,0.0,0.0,0.0,0.0,0.0,0.0,0.0,0.0,0.0,0.0,0.0,0.0,0.0,0.0,0.0,0.0,0.0,0.0,0.0,0.0,0.0,0.0,0.0,0.0,0.0,0.0,0.0,0.0,0.0,0.0,0.0,0.0,0.0,0.0,0.0,0.0,0.0,0.0,0.0,0.0,0.0,0.0,0.0,0.0,0.0,0.0,0.0,0.0,0.0,0.0,0.0,0.0,0.0,0.0,0.0,0.0,0.0,0.0,0.0,0.0,0.0,0.0,0.0,0.0,0.0,0.0,0.0,0.0,0.0,0.0,0.0,0.0,0.0,0.0,0.0,0.0,0.0,0.0,0.0,0.0,0.0,0.0,0.0,0.0,0.0,0.0,0.0,0.0,0.0,0.0,0.0,0.0,0.0,0.0,0.0,0.0,0.0,0.0,0.0,0.0,0.0,0.0,0.0,0.0,0.0,0.0,0.0,0.0,0.0,0.0,0.0,0.0,0.0,0.0,0.0,0.0,0.0,0.0,0.0,0.0,0.0,0.0,0.0,0.0,0.0,0.0,0.0,0.0,0.0,0.0,0.0,0.0,0.0,0.0,0.0,0.0,0.0,0.0,0.0,0.0,0.0,0.0,0.0,0.0,0.0,0.0,0.0,0.0,0.0,0.0,0.0,0.0,0.0,0.0,0.0,0.0,0.0,0.0,0.0,0.0,0.0,0.0,0.0,0.0,0.0,0.0,0.0,0.0,0.0,0.0,0.0,0.0,0.0,0.0,0.0,0.0,0.0,0.0,0.0,0.0,0.0,0.0,0.0,0.0,0.0,0.0,0.0,0.0,0.0,0.0,0.0,0.0,0.0,0.0,0.0,0.0,0.0,0.0,0.0,0.0,0.0,0.0,0.0,0.0,0.0,0.0,0.0,0.0,0.0,0.0,0.0,0.0,0.0,0.0,0.0,0.0,0.0,0.0,0.0,0.0,0.0,0.0,0.0,0.0,0.0,0.0,0.0,0.0,0.0,0.0,0.0,0.0,0.0,0.0,0.0,0.0,0.0,0.0,0.0,0.0,0.0,0.0,0.0,0.0,0.0,0.0,0.0,0.0,0.0,0.0,0.0,0.0,0.0,0.0,0.0,0.0,0.0,0.0,0.0,0.0,0.0,0.0,0.0,0.0,0.0,0.0,0.0,0.0,0.0,0.0,0.0,0.0,0.0,0.0,0.0,0.0,0.0,0.0,0.0,0.0,0.0,0.0,0.0,0.0,0.0,0.0,0.0,0.0,0.0,0.0,0.0,0.0,0.0,0.0,0.0,0.0,0.0,0.0,0.0,0.0,0.0,0.0,0.0,0.0,0.0,0.0,0.0,0.0,0.0,0.0,0.0,0.0,0.0,0.0,0.0,0.0,0.0,0.0,0.0,0.0,0.0,0.0,0.0,0.0,0.0,0.0,0.0,0.0,0.0,0.0,0.0,0.0,0.0,0.0,0.0,0.0,0.0,0.0,0.0,0.0,0.0,0.0,0.0,0.0,0.0,0.0,0.0,0.0,0.0,0.0,0.0,0.0,0.0,0.0,0.0,0.0,0.0,0.0,0.0,0.0,0.0,0.0,0.0,0.0,0.0,0.0,0.0,0.0,0.0,0.0,0.0,0.0,0.0,0.0,0.0,0.0,0.0,0.0,0.0,0.0,0.0,0.0,0.0,0.0,0.0,0.0,0.0,0.0,0.0,0.0,0.0,0.0,0.0,0.0,0.0,0.0,0.0,0.0,0.0,0.0,0.0,0.0,0.0,0.0,0.0,0.0,0.0,0.0,0.0,0.0,0.0,0.0,0.0,0.0,0.0,0.0,0.0,0.0,0.0,0.0,0.0,0.0,0.0,0.0,0.0,0.0,0.0,0.0,0.0,0.0,0.0,0.0,0.0,0.0,0.0,0.0,0.0,0.0,0.0,0.0,0.0,0.0,0.0,0.0,0.0,0.0,0.0,0.0,0.0,0.0,0.0,0.0,0.0,0.0,0.0,0.0,0.0,0.0,0.0,0.0,0.0,0.0,0.0,0.0,0.0,0.0,0.0,0.0,0.0,0.0,0.0,0.0,0.0,0.0,0.0,0.0,0.0,0.0,0.0,0.0,0.0,0.0,0.0,0.0,0.0,0.0,0.0,0.0,0.0,0.0,0.0,0.0,0.0,0.0,0.0,0.0,0.0,0.0,0.0,0.0,0.0,0.0,0.0,0.0,0.0,0.0,0.0,0.0,0.0,0.0,0.0,0.0,0.0,0.0,0.0,0.0,0.0,0.0,0.0,0.0,0.0,0.0,0.0,0.0,0.0,0.0,0.0,0.0,0.0,0.0,0.0,0.0,0.0,0.0,0.0,0.0,0.0,0.0,0.0,0.0,0.0,0.0,0.0,0.0,0.0,0.0,0.0,0.0,0.0,0.0,0.0,0.0,0.0,0.0,0.0,0.0,0.0,0.0,0.0,0.0,0.0,0.0,0.0,0.0,0.0,0.0,0.0,0.0,0.0,0.0,0.0,0.0,0.0,0.0,0.0,0.0,0.0,0.0,0.0,0.0,0.0,0.0,0.0,0.0,0.0,0.0,0.0,0.0,0.0,0.0,0.0,0.0,0.0,0.0,0.0,0.0,0.0,0.0,0.0,0.0,0.0,0.0,0.0,0.0,0.0,0.0,0.0,0.0,0.0,0.0,0.0,0.0,0.0,0.0,0.0,0.0,0.0,0.0,0.0,0.0,0.0,0.0,0.0,0.0,0.0,0.0,0.0,0.0,0.0,0.0,0.0,0.0,0.0,0.0,0.0,0.0,0.0,0.0,0.0,0.0,0.0,0.0,0.0,0.0,0.0,0.0,0.0,0.0,0.0,0.0,0.0,0.0,0.0,0.0,0.0,0.0,0.0,0.0,0.0,0.0,0.0,0.0,0.0,0.0,0.0,0.0,0.0,0.0,0.0,0.0,0.0,0.0,0.0,0.0,0.0,0.0,0.0,0.0,0.0,0.0,0.0,0.0,0.0,0.0,0.0,0.0,0.0,0.0,0.0,0.0,0.0,0.0,0.0,0.0,0.0,0.0,0.0,0.0,0.0,0.0,0.0,0.0,0.0,0.0,0.0,0.0,0.0,0.0,0.0,0.0,0.0,0.0,0.0,0.0,0.0,0.0,0.0,0.0,0.0,0.0,0.0,0.0,0.0,0.0,0.0,0.0,0.0,0.0,0.0,0.0,0.0,0.0,0.0,0.0,0.0,0.0,0.0,0.0,0.0,0.0,0.0,0.0,0.0,0.0,0.0,0.0,0.0,0.0,0.0,0.0,0.0,0.0,0.0,0.0,0.0,0.0,0.0,0.0,0.0,0.0,0.0,0.0,0.0,0.0,0.0,0.0,0.0,0.0,0.0,0.0,0.0,0.0,0.0,0.0,0.0,0.0,0.0,0.0,0.0,0.0,0.0,0.0,0.0,0.0,0.0,0.0,0.0,0.0,0.0,0.0,0.0,0.0,0.0,0.0,0.0,0.0,0.0,0.0,0.0,0.0,0.0,0.0,0.0,0.0,0.0,0.0,0.0,0.0,0.0,0.0,0.0,0.0,0.0,0.0,0.0,0.0,0.0,0.0,0.0,0.0,0.0,0.0,0.0,0.0,0.0,0.0,0.0,0.0,0.0,0.0,0.0,0.0,0.0,0.0,0.0,0.0,0.0,0.0,0.0,0.0,0.0,0.0,0.0,0.0,0.0,0.0,0.0,0.0,0.0,0.0,0.0,0.0,0.0,0.0,0.0,0.0,0.0,0.0,0.0,0.0,0.0,0.0,0.0,0.0,0.0,0.0,0.0,0.0,0.0,0.0,0.0,0.0,0.0,0.0,0.0,0.0,0.0,0.0,0.0,0.0,0.0,0.0,0.0,0.0,0.0,0.0,0.0,0.0,0.0,0.0,0.0,0.0,0.0,0.0,0.0,0.0,0.0,0.0,0.0,0.0,0.0,0.0,0.0,0.0,0.0,0.0,0.0,0.0,0.0,0.0,0.0,0.0,0.0,0.0,0.0,0.0,0.0,0.0,0.0,0.0,0.0,0.0,0.0,0.0,0.0,0.0,0.0,0.0,0.0,0.0,0.0,0.0,0.0,0.0,0.0,0.0,0.0,0.0,0.0,0.0,0.0,0.0,0.0,0.0,0.0,0.0,0.0,0.0,0.0,0.0,0.0,0.0,0.0,0.0,0.0,0.0,0.0,0.0,0.0,0.0,0.0,0.0,0.0,0.0,0.0,0.0,0.0,0.0,0.0,0.0,0.0,0.0,0.0,0.0,0.0,0.0,0.0,0.0,0.0,0.0,0.0,0.0,0.0,0.0,0.0,0.0,0.0,0.0,0.0,0.0,0.0,0.0,0.0,0.0,0.0,0.0,0.0,0.0,0.0,0.0,0.0,0.0,0.0,0.0,0.0,0.0,0.0,0.0,0.0,0.0,0.0,0.0,0.0,0.0,0.0,0.0,0.0,0.0,0.0,0.0,0.0,0.0,0.0,0.0,0.0,0.0,0.0,0.0,0.0,0.0,0.0,0.0,0.0,0.0,0.0,0.0,0.0,0.0,0.0,0.0,0.0,0.0,0.0,0.0,0.0,0.0,0.0,0.0,0.0,0.0,0.0,0.0,0.0,0.0,0.0,0.0,0.0,0.0,0.0,0.0,0.0,0.0,0.0,0.0,0.0,0.0,0.0,0.0,0.0,0.0,0.0,0.0,0.0,0.0,0.0,0.0,0.0,0.0,0.0,0.0,0.0,0.0,0.0,0.0,0.0,0.0,0.0,0.0,0.0,0.0,0.0,0.0,0.0,0.0,0.0,0.0,0.0,0.0,0.0,0.0,0.0,0.0,0.0,0.0,0.0,0.0,0.0,0.0,0.0,0.0,0.0,0.0,0.0,0.0,0.0,0.0,0.0,0.0,0.0,0.0,0.0,0.0,0.0,0.0,0.0,0.0,0.0,0.0,0.0,0.0,0.0,0.0,0.0,0.0,0.0,0.0,0.0,0.0,0.0,0.0,0.0,0.0,0.0,0.0,0.0,0.0,0.0,0.0,0.0,0.0,0.0,0.0,0.0,0.0,0.0,0.0,0.0,0.0,0.0,0.0,0.0,0.0,0.0,0.0,0.0,0.0,0.0,0.0,0.0,0.0,0.0,0.0,0.0,0.0,0.0,0.0,0.0,0.0,0.0,0.0,0.0,0.0,0.0,0.0,0.0,0.0,0.0,0.0,0.0,0.0,0.0,0.0,0.0,0.0,0.0,0.0,0.0,0.0,0.0,0.0,0.0,0.0,0.0,0.0,0.0,0.0,0.0,0.0,0.0,0.0,0.0,0.0,0.0,0.0,0.0,0.0,0.0,0.0,0.0,0.0,0.0,0.0,0.0,0.0,0.0,0.0,0.0,0.0,0.0,0.0,0.0,0.0,0.0,0.0,0.0,0.0,0.0,0.0,0.0,0.0,0.0,0.0,0.0,0.0,0.0,0.0,0.0,0.0,0.0,0.0,0.0,0.0,0.0,0.0,0.0,0.0,0.0,0.0,0.0,0.0,0.0,0.0,0.0,0.0,0.0,0.0,0.0,0.0,0.0,0.0,0.0,0.0,0.0,0.0,0.0,0.0,0.0,0.0,0.0,0.0,0.0,0.0,0.0,0.0,0.0,0.0,0.0,0.0,0.0,0.0,0.0,0.0,0.0,0.0,0.0,0.0,0.0,0.0,0.0,0.0,0.0,0.0,0.0,0.0,0.0,0.0,0.0,0.0,0.0,0.0,0.0,0.0,0.0,0.0,0.0,0.0,0.0,0.0,0.0,0.0,0.0,0.0,3.1165,2.8234,0.0,0.0,0.0,0.0,0.0,0.0,0.0,0.0,0.0,0.0,0.0,0.0,0.0,0.0,0.0,0.0,0.0,0.0,0.0,0.0,0.0,0.0,0.0,0.0,0.0,0.0,0.0,0.0,0.0,0.0,0.0,0.0,0.0,0.0,0.0,0.0,1.4671,1.5493,1.6028,1.6817,1.7861,1.8072,1.7881,1.7363,0.0,0.0,0.0,0.0,0.0,0.0,0.0,0.0,0.0,0.0,0.0,0.0,0.0,0.0,0.0,0.0,0.0,0.0,0.0,0.0,0.0,0.0,0.0,0.0,0.0,0.0,0.0,0.0,0.0,0.0,0.0,0.0,0.0,0.0,0.0,0.0,0.0,0.0,0.0,0.0,0.0,0.0,0.0,0.0,0.0,0.0,0.0,0.0,0.0,0.0,0.0,0.0,0.0,0.0,0.0,0.0,0.0,0.0,0.0,0.0,0.0,0.0,0.0,0.0,0.0,0.0,0.0,0.0,0.0,0.0,3.3504,3.215,0.0,0.0,0.0,0.0,0.0,0.0,0.0,0.0,0.0,0.0,0.0,0.0,0.0,0.0,0.0,0.0,0.0,0.0,0.0,0.0,0.0,0.0,0.0,1.2202,1.2289,1.2463,1.2388,1.2438,0.0,0.0,0.0,0.0,0.0,0.0,1.4612,1.5168,1.6002,1.7109,1.7369,1.8235,1.9661,2.058,2.0322,1.9023,1.8638,0.0,0.0,0.0,0.0,0.0,0.0,0.0,0.0,0.0,0.0,0.0,0.0,0.0,0.0,0.0,0.0,0.0,0.0,0.0,0.0,0.0,0.0,0.0,0.0,0.0,0.0,0.0,0.0,0.0,0.0,0.0,0.0,0.0,0.0,0.0,0.0,0.0,0.0,0.0,0.0,0.0,0.0,0.0,0.0,0.0,0.0,0.0,0.0,0.0,0.0,0.0,0.0,0.0,0.0,0.0,0.0,0.0,0.0,0.0,0.0,0.0,0.0,0.0,3.475,3.4862,3.4955,3.4955,3.5754,3.7021,3.5684,3.6197,3.7678,3.3931,0.0,0.0,0.0,0.0,0.0,0.0,0.0,0.0,0.0,0.0,0.0,0.0,0.0,0.0,0.0,0.0,0.0,0.0,0.0,0.0,0.0,1.2606,1.2753,1.3121,1.3265,1.3372,1.3541,0.0,0.0,0.0,0.0,1.5049,1.5604,1.6647,1.7699,1.8779,2.014,2.1135,2.1793,2.2383,2.2558,2.2301,2.0422,1.9338,1.8855,0.0,0.0,0.0,0.0,0.0,0.0,0.0,0.0,0.0,0.0,0.0,0.0,0.0,0.0,0.0,0.0,0.0,0.0,0.0,0.0,0.0,0.0,0.0,0.0,0.0,0.0,0.0,0.0,0.0,0.0,0.0,0.0,0.0,0.0,0.0,0.0,0.0,0.0,0.0,0.0,0.0,2.914,2.9866,0.0,0.0,0.0,0.0,0.0,0.0,0.0,0.0,0.0,0.0,0.0,0.0,0.0,3.3754,3.441,3.5626,3.6472,3.6936,3.8032,3.885,3.9288,3.9288,3.9633,4.0172,3.9965,0.0,3.6579,3.6831,0.0,0.0,0.0,0.0,0.0,0.0,0.0,0.0,0.0,0.0,0.0,0.0,0.0,0.0,0.0,0.0,0.0,0.0,0.0,0.0,0.0,1.29,1.3148,1.3386,1.3459,1.3549,1.3692,1.4056,0.0,0.0,1.5167,1.6046,1.7026,1.8025,1.9451,2.13,2.2248,2.2991,2.3496,2.3737,2.4001,2.4242,2.2991,2.1837,2.073,1.9913,0.0,0.0,0.0,0.0,0.0,0.0,0.0,0.0,0.0,0.0,0.0,0.0,0.0,0.0,0.0,0.0,0.0,0.0,0.0,0.0,0.0,0.0,0.0,0.0,0.0,0.0,0.0,0.0,0.0,0.0,0.0,0.0,0.0,0.0,0.0,0.0,0.0,0.0,0.0,2.7569,2.8775,2.9989,2.9177,2.8543,0.0,0.0,0.0,0.0,0.0,0.0,0.0,0.0,0.0,3.6191,3.6533,3.7037,3.7738,3.8539,3.9196,3.9762,4.0333,4.0846,4.1352,4.1352,4.1466,4.1696,4.1971,4.1337,4.0032,3.8873,3.795,3.7133,0.0,0.0,0.0,0.0,3.5121,3.5404,0.0,0.0,0.0,0.0,0.0,0.0,0.0,0.0,0.0,0.0,0.0,0.0,1.2974,1.3286,1.3589,1.3876,1.3895,1.4017,1.4251,1.4725,1.508,1.5225,1.6146,1.7226,1.8412,1.9742,2.1453,2.3568,2.4131,2.4626,2.5096,2.5096,2.5312,2.5673,2.5288,2.4266,2.2727,2.1668,2.0971,2.0519,0.0,0.0,0.0,0.0,0.0,0.0,0.0,0.0,0.0,0.0,0.0,0.0,0.0,0.0,0.0,0.0,0.0,0.0,0.0,0.0,0.0,0.0,0.0,0.0,0.0,0.0,0.0,0.0,0.0,0.0,0.0,0.0,0.0,0.0,0.0,0.0,0.0,2.9201,2.9981,3.0856,3.1048,3.0879,0.0,0.0,0.0,0.0,0.0,0.0,3.6633,3.6913,3.7697,3.9001,3.9672,4.0384,4.1214,4.1604,4.204,4.2545,4.2545,4.2752,4.3119,4.3119,4.3119,4.3142,4.351,4.3739,4.3671,4.133,4.0828,4.1353,3.9195,3.8246,3.8147,3.833,3.8404,3.8707,0.0,0.0,0.0,0.0,0.0,0.0,0.0,0.0,0.0,0.0,0.0,1.2992,1.3764,1.3874,1.4187,1.4946,1.5001,1.5228,1.5774,1.6002,1.6383,1.6946,1.7753,1.8635,1.9582,2.1951,2.3863,2.518,2.5709,2.6262,2.6777,2.6777,2.6777,2.6801,2.6777,2.5889,2.4338,2.3304,2.2847,2.271,2.1121,0.0,0.0,0.0,0.0,0.0,0.0,0.0,0.0,0.0,0.0,0.0,0.0,0.0,0.0,0.0,0.0,0.0,0.0,0.0,0.0,0.0,0.0,0.0,0.0,0.0,0.0,0.0,0.0,0.0,0.0,0.0,0.0,0.0,0.0,0.0,0.0,0.0,0.0,3.4551,3.5958,0.0,0.0,0.0,0.0,3.5975,3.6116,3.7364,4.0009,3.9672,4.0699,4.3372,4.3074,4.3349,4.4359,4.4405,4.4681,4.5231,4.5231,4.5254,4.5277,4.5277,4.5277,4.5277,4.53,4.553,4.5875,4.4773,4.3318,4.1908,4.2256,4.1335,4.0106,4.1762,4.2418,4.2696,0.0,0.0,0.0,0.0,0.0,1.211,1.211,1.2312,1.2533,1.268,1.3139,1.369,1.4231,1.4524,1.4891,1.5441,1.5573,1.5886,1.6492,1.6921,1.7413,1.8061,1.8887,2.0267,2.2247,2.4177,2.5552,2.6321,2.6513,2.6873,2.7402,2.7402,2.7594,2.7882,2.7546,2.709,2.6465,2.5444,2.4602,2.3881,2.3023,2.2469,0.0,0.0,0.0,0.0,0.0,0.0,0.0,0.0,0.0,0.0,0.0,0.0,0.0,0.0,0.0,0.0,0.0,0.0,0.0,0.0,0.0,0.0,0.0,0.0,0.0,0.0,0.0,0.0,0.0,0.0,0.0,0.0,0.0,0.0,0.0,0.0,0.0,3.429,3.5788,0.0,3.6022,3.7286,3.8501,3.9337,4.0796,4.2022,4.3065,4.3571,4.4104,4.4773,4.4956,4.5071,4.5094,4.5094,4.5347,4.5852,4.5852,4.6012,4.6334,4.6334,4.6334,4.6357,4.6678,4.6931,4.7021,4.7069,4.6427,4.5474,4.5389,4.5154,4.4797,4.5249,4.5391,4.5506,0.0,0.0,0.0,1.211,1.211,1.211,1.211,1.2441,1.2735,1.2882,1.3488,1.4084,1.4653,1.4946,1.5313,1.5863,1.6127,1.6466,1.7064,1.7748,1.8419,1.9058,2.0041,2.1641,2.388,2.515,2.6112,2.6718,2.7215,2.7478,2.7538,2.7813,2.8162,2.8498,2.8138,2.7993,2.7906,2.7224,2.631,2.5264,2.4771,2.4242,2.3616,0.0,0.0,0.0,0.0,0.0,0.0,0.0,0.0,0.0,0.0,0.0,0.0,0.0,0.0,0.0,0.0,0.0,0.0,0.0,0.0,0.0,0.0,0.0,0.0,0.0,0.0,0.0,0.0,0.0,0.0,0.0,0.0,0.0,0.0,3.4073,3.5503,3.452,3.6704,3.8202,3.7915,3.98,4.1514,4.2777,4.4242,4.5186,4.537,4.6012,4.6311,4.6127,4.6449,4.6541,4.638,4.638,4.6541,4.6885,4.6724,4.6978,4.7603,4.7419,4.7489,4.7816,4.8134,4.8292,4.8315,4.8772,4.8638,4.8208,4.767,4.7532,4.7745,4.7461,4.739,4.739,0.0,1.211,1.211,1.211,1.211,1.211,1.211,1.2459,1.2863,1.3259,1.3662,1.4231,1.5038,1.5129,1.546,1.6285,1.6707,1.711,1.7532,1.8489,1.9331,2.0038,2.1283,2.2737,2.4385,2.4942,2.5587,2.6371,2.7758,2.8018,2.7249,2.8122,2.8546,2.857,2.8546,2.8522,2.8522,2.8522,2.7921,2.6898,2.6382,2.5829,2.5252,0.0,0.0,0.0,0.0,0.0,0.0,0.0,0.0,0.0,0.0,0.0,0.0,0.0,0.0,0.0,0.0,0.0,0.0,0.0,0.0,0.0,0.0,0.0,0.0,0.0,0.0,0.0,0.0,0.0,0.0,0.0,0.0,0.0,3.4217,3.6021,3.7014,3.5806,3.9209,4.1568,4.1352,4.2857,4.452,4.6035,4.615,4.638,4.6862,4.6908,4.716,4.7571,4.7594,4.7895,4.8377,4.84,4.8423,4.84,4.7941,4.8108,4.9026,4.8492,4.8729,4.9507,4.966,4.9747,4.9696,4.9858,4.9916,4.9801,4.8837,4.8446,4.8446,4.8446,4.8446,4.8446,1.211,1.211,1.211,1.211,1.211,1.2202,1.2478,1.2882,1.3286,1.3662,1.4341,1.4964,1.5478,1.5808,1.6303,1.7092,1.7275,1.7825,1.8953,1.9269,2.0085,2.1537,2.2689,2.366,2.4451,2.5247,2.5747,2.5953,2.7012,2.7615,2.7819,2.8668,2.9292,2.9629,2.9244,2.9076,2.9051,2.8667,2.8354,2.8017,2.7488,2.6959,2.6369,0.0,0.0,0.0,0.0,0.0,0.0,0.0,0.0,0.0,0.0,0.0,0.0,0.0,0.0,0.0,0.0,0.0,0.0,0.0,0.0,0.0,0.0,0.0,0.0,0.0,0.0,0.0,0.0,0.0,0.0,0.0,3.6447,3.7785,3.7052,3.7996,3.9058,3.9808,4.1591,4.2977,4.3575,4.4727,4.5806,4.6609,4.7023,4.7275,4.7413,4.778,4.8033,4.8194,4.8194,4.824,4.84,4.8745,4.8905,4.8905,4.9158,4.9439,4.9651,4.949,4.9564,4.9776,4.9864,4.9835,4.9858,4.9847,4.9916,4.987,4.9594,4.9502,4.9502,4.9502,4.9502,4.9502,1.1401,1.1594,1.1744,1.1744,1.1943,1.2239,1.2625,1.3047,1.3424,1.3856,1.4598,1.5258,1.5643,1.6065,1.6633,1.7422,1.7807,1.8413,1.9413,2.0031,2.0926,2.2106,2.2926,2.3667,2.4317,2.4956,2.5253,2.5253,2.6373,2.7079,2.7457,2.8528,2.9397,3.0086,2.9773,2.9629,2.9581,2.9051,2.8835,2.8787,2.8258,2.769,2.7186,2.6911,2.6454,2.5889,2.5372,2.465,2.3929,2.3688,0.0,0.0,0.0,0.0,0.0,0.0,0.0,0.0,0.0,0.0,0.0,0.0,0.0,0.0,0.0,0.0,0.0,0.0,0.0,0.0,0.0,0.0,0.0,0.0,3.8735,4.031,4.035,4.0838,4.1443,4.2132,4.328,4.4428,4.5461,4.6081,4.6747,4.7459,4.778,4.7964,4.7964,4.824,4.8492,4.8676,4.8699,4.8791,4.902,4.9296,4.9457,4.9457,4.9525,4.9761,5.0117,4.991,4.9892,5.004,5.0248,5.0151,4.9817,5.0025,5.0256,5.044,0.0,0.0,0.0,0.0,4.9916,4.9916,1.0397,1.0821,1.1217,1.1293,1.1694,1.2163,1.2698,1.3084,1.3461,1.3901,1.4653,1.5294,1.5643,1.6101,1.6707,1.7495,1.8265,1.8944,1.9476,2.081,2.1739,2.2087,2.253,2.3169,2.393,2.4188,2.4317,2.4317,2.5679,2.6433,2.6713,2.8064,2.9266,3.0254,3.0206,3.0182,3.0134,2.9556,2.9292,2.9244,2.8715,2.8234,2.7762,2.7762,2.745,2.6922,2.6454,2.5949,2.542,2.4904,0.0,0.0,0.0,0.0,0.0,0.0,0.0,0.0,0.0,0.0,0.0,0.0,0.0,0.0,0.0,0.0,0.0,0.0,0.0,0.0,0.0,0.0,0.0,0.0,4.0933,4.2883,4.3602,4.4004,4.4038,4.3487,4.4681,4.5898,4.6862,4.7,4.7413,4.8331,4.8446,4.8469,4.8469,4.8538,0.0,0.0,0.0,4.9434,4.9893,4.9962,4.9962,4.9893,4.9548,4.9771,5.0392,5.0114,5.0122,5.0467,5.0955,5.0783,5.0114,5.0555,5.1019,5.1413,5.0532,5.0175,5.0244,5.0244,5.0191,5.0237,1.0244,1.0499,1.0728,1.1217,1.1393,1.1841,1.3004,1.3241,1.3552,1.4304,1.5074,1.5606,1.568,1.6358,1.711,1.7898,1.843,1.9292,2.0668,2.1528,2.2013,2.2087,2.253,2.2882,2.3057,2.3256,2.3343,2.3343,2.4725,2.5997,2.7261,2.8628,2.9989,3.138,3.0946,3.0778,3.0663,2.9701,2.9292,2.9244,2.8715,2.845,2.8354,2.8354,2.8017,2.7522,2.7402,2.7079,2.6561,2.6465,2.6369,2.6129,2.5276,2.5011,0.0,0.0,0.0,0.0,0.0,0.0,0.0,0.0,0.0,0.0,0.0,0.0,0.0,0.0,0.0,0.0,0.0,0.0,0.0,4.0208,4.2841,4.4864,4.5027,4.6104,4.6564,4.5645,4.615,4.6816,4.7436,4.7872,4.8171,4.8377,4.8745,4.8974,4.8974,4.9388,4.9663,4.9755,4.9755,4.9801,4.9916,5.0306,5.0283,4.9916,5.0627,0.0,5.0014,5.124,5.1516,5.127,5.2147,5.2414,5.2244,5.2437,5.253,5.253,5.2224,5.2107,5.2249,5.2249,5.2271,5.2327,0.9484,0.9806,1.009,1.0387,1.0668,1.1301,1.2688,1.2894,1.3291,1.4366,1.5203,1.568,1.568,1.6597,1.744,1.8027,1.8813,1.9916,2.1328,2.1507,2.1688,2.1909,2.222,2.2485,2.2618,2.2706,2.2882,2.3101,2.4128,2.5292,2.6685,2.78,2.924,3.0958,3.0699,3.0846,3.1235,3.0134,2.9701,2.9629,2.8835,2.8522,2.8522,2.8522,2.8354,2.8114,2.8114,2.7777,2.7282,2.7282,2.7114,2.6801,2.6249,2.6081,2.5985,0.0,0.0,0.0,0.0,0.0,0.0,0.0,0.0,0.0,0.0,0.0,0.0,0.0,0.0,3.6161,3.7076,0.0,4.1335,4.1859,4.4324,4.5988,4.5445,4.6284,4.6845,4.6516,4.716,4.7734,4.7987,4.8469,4.8745,4.8745,4.9227,4.9502,4.9502,4.9755,5.0008,5.026,5.026,5.0398,5.0673,5.1156,5.127,5.1041,5.1798,5.189,5.1431,5.2189,5.2258,5.1821,5.2484,5.2553,5.2189,5.2654,5.2825,5.2881,5.3249,5.314,5.2825,5.2825,5.2829,5.2901,0.8804,0.9133,0.9484,0.9588,0.9961,1.0713,1.2096,1.2325,1.2796,1.4129,1.4943,1.546,1.568,1.6633,1.7532,1.8155,1.9234,2.0369,2.1504,2.1291,2.1291,2.1668,2.1954,2.2176,2.2353,2.2441,2.2662,2.2969,2.3654,2.4552,2.5664,2.6491,2.7843,2.9602,2.9826,3.0386,3.1069,3.0284,2.9941,2.9845,2.8907,2.8522,2.8522,2.8522,2.8522,2.8522,2.8522,2.8234,2.7873,2.7873,2.7546,2.7186,2.709,2.7042,2.7018,2.6922,2.845,0.0,0.0,0.0,0.0,0.0,0.0,0.0,0.0,3.3169,3.3581,3.5657,3.6999,3.8182,3.9264,4.1433,4.3074,4.346,4.5207,4.6401,4.5713,4.6166,4.6708,4.7059,4.7816,4.8369,4.8538,4.8974,4.9273,4.9273,4.9755,5.0053,5.0053,5.0145,5.0375,5.0765,5.088,5.1133,5.1569,5.2074,5.2281,5.2189,5.2671,5.2786,5.2625,5.2924,5.2786,5.2327,5.2825,5.2608,5.2028,5.2811,5.313,5.3177,5.391,5.3733,5.3176,5.3164,5.3187,5.3199,0.8804,0.8857,0.9028,0.951,0.964,1.0125,1.1404,1.16,1.2086,1.3438,1.3994,1.4646,1.5611,1.6138,1.7037,1.8484,1.9399,2.0241,2.1126,2.1126,2.1291,2.1668,2.1954,2.2106,2.215,2.253,2.2662,2.2485,2.3166,2.3918,2.4747,2.5435,2.6385,2.7502,2.8424,2.8968,2.9117,2.9297,2.9388,2.934,2.8739,2.8522,2.8522,2.8522,2.8522,2.8522,2.8522,2.8474,2.8426,2.8426,2.8378,2.8258,2.7738,2.7594,2.7498,2.7042,2.7114,2.7282,2.697,2.8831,3.1449,3.4176,3.4598,3.5502,0.0,3.8684,3.7599,4.1319,4.1438,4.1184,4.2362,4.3348,4.4269,4.4924,4.5274,4.5735,4.6831,4.7045,4.7253,4.7759,4.7894,4.8281,4.8947,4.9502,4.9824,4.9824,5.026,5.0536,5.0536,5.0995,5.1293,5.1339,5.1775,5.2028,5.2097,5.2579,5.2602,5.2189,5.2671,5.2441,5.1638,5.2992,5.3314,5.2855,5.3773,5.4117,5.4072,5.4222,5.4245,5.4245,5.4314,5.4314,5.4186,5.4153,5.4188,5.4232,0.8804,0.8804,0.8883,0.908,0.9133,0.9582,1.0844,1.1035,1.1482,1.2758,1.3602,1.4372,1.503,1.6231,1.755,1.8926,1.9164,1.9619,2.0686,2.0759,2.0943,2.1302,2.1692,2.1909,2.2106,2.2132,2.222,2.2397,2.2813,2.3319,2.3904,2.4473,2.5265,2.6238,2.6797,2.7327,2.7809,2.7745,2.8045,2.848,2.7638,2.7655,2.8163,2.8163,2.8163,2.8163,2.8443,2.8522,0.0,2.8522,2.8522,2.8474,2.8258,2.8186,2.8138,2.7921,2.8955,3.0697,3.3078,3.3526,3.3895,3.6347,3.7092,3.7669,3.965,3.9286,3.9226,4.1743,4.2683,4.2995,4.3105,4.4383,4.5301,4.4681,4.5595,4.5888,4.4548,4.5825,4.6364,4.4705,4.5946,4.763,4.9371,4.8852,4.8969,5.0253,5.0811,5.1087,5.1087,5.1569,5.1867,5.1867,5.235,5.2602,5.2602,5.3107,5.3268,5.3061,5.3543,5.3566,5.3199,5.3819,5.398,5.3796,5.4232,5.4416,5.4416,5.4416,5.4416,5.4416,5.4416,5.4416,5.4393,5.4349,5.4395,5.4416,0.8804,0.8804,0.8804,0.8804,0.8804,0.9166,1.0251,1.0422,1.0858,1.2058,1.2898,1.365,1.4328,1.5964,1.7351,1.8089,1.8318,1.8813,1.981,2.0158,2.0534,2.1089,2.1401,2.1666,2.1954,2.1865,2.1954,2.222,2.243,2.267,2.2941,2.3336,2.3926,2.4676,2.5104,2.5683,2.6257,2.6281,2.6725,2.7356,2.6621,2.6693,2.7249,2.7452,2.7534,2.7696,2.8259,2.8522,2.8522,2.8522,2.8522,2.8522,2.8522,2.8522,2.8522,2.8522,2.9989,3.2402,3.6029,3.6215,3.587,3.7864,3.8919,3.9519,3.9476,3.9701,4.028,4.1638,4.2826,4.3555,4.3539,4.4782,4.5325,4.4103,4.4849,4.4591,4.1942,4.3654,4.4369,4.223,4.3679,4.5774,4.8102,4.7254,4.7447,4.9538,4.9775,4.9728,4.9728,5.0951,5.1379,5.0902,5.1853,5.2101,5.1595,5.2619,5.3134,5.3134,5.3988,5.4416,5.4416,5.4416,5.4416,5.4416,5.4416,5.4416,5.4416,5.4577,5.4623,5.4646,5.4783,5.4829,5.4829,5.4829,5.4737,5.4646,0.8804,0.8804,0.8804,0.8804,0.8804,0.9005,0.9621,0.9744,1.0153,1.1365,1.156,1.2095,1.3472,1.4982,1.5728,1.5343,1.6733,1.7817,1.8238,1.9308,2.0259,2.1071,2.1126,2.131,2.1687,2.1954,2.1972,2.1731,2.1972,2.1991,2.175,2.2036,2.2169,2.2258,2.3363,2.4013,2.4251,2.5126,2.5673,2.5841,2.5819,2.5735,2.5652,2.6299,2.667,2.6976,2.8099,2.8522,2.8522,2.8522,2.8522,2.8522,2.8522,2.8522,2.8522,2.8522,2.8931,2.9906,3.234,3.4233,3.604,3.8305,4.0,4.1229,4.1765,4.1174,4.0929,4.2152,4.2236,4.2578,4.422,4.4297,4.4029,4.3614,4.2269,4.0919,3.9907,4.0583,4.1322,4.1667,4.1642,4.239,4.4194,4.4315,4.521,4.73,4.6391,4.5673,4.5673,4.8613,4.9381,4.7589,4.9772,5.0112,4.8336,5.0647,5.1743,5.1743,5.355,5.4416,5.4416,5.4416,5.4416,5.4416,5.4416,5.4416,5.4462,5.4967,5.5197,5.5243,5.5702,5.5885,5.5885,5.5885,5.5587,5.5243,0.8844,0.8804,0.8804,0.8804,0.8938,0.9204,0.9619,0.9715,0.9908,1.0482,1.1353,0.0,0.0,0.0,0.0,0.0,1.5593,1.6513,1.7704,1.8399,1.9222,2.0259,2.0833,2.1181,2.131,2.1629,2.1776,2.1687,2.1776,2.1865,2.1972,2.2061,2.2106,2.2106,2.2643,2.2818,2.2818,2.3236,2.3844,2.4425,2.4145,2.436,2.4872,2.5084,2.521,2.54,0.0,2.7632,2.8522,2.8522,2.8522,2.8522,2.8522,2.8522,2.857,2.8931,3.0058,3.1712,3.3995,3.5633,3.7313,3.9801,4.0721,4.1067,4.1472,4.1661,4.1917,4.2505,4.1474,4.0974,4.2473,4.1501,4.0431,4.0425,4.0273,3.955,3.7837,3.9807,4.064,3.8469,3.9927,4.137,4.1982,4.2496,4.3465,4.5062,4.5606,4.5804,4.5804,4.7775,4.8547,4.7961,4.907,4.9322,4.8728,4.9468,5.0484,5.1682,5.355,5.4416,5.4416,5.4783,5.4944,5.4967,5.5288,5.5426,5.5426,5.561,5.5679,5.5702,5.5862,5.5931,5.5977,5.6299,5.6322,5.6161,0.9152,0.9125,0.9125,0.9125,0.9272,0.0,0.0,0.0,0.0,0.0,0.0,0.0,0.0,0.0,0.0,0.0,0.0,1.513,1.6278,1.7242,1.8241,1.9255,2.0025,2.0594,2.0888,2.1163,2.1321,2.1511,2.1511,2.1629,2.1954,2.1954,2.1954,2.1954,2.2087,2.2132,2.2106,2.222,2.2782,2.3452,2.2853,2.3032,2.3651,2.3586,2.3634,0.0,2.5029,2.6089,2.6999,2.798,2.8283,2.8323,2.8443,2.8643,2.9011,3.0029,3.1449,3.3235,3.5726,3.7224,3.8491,4.0595,4.1066,4.1115,4.1236,4.1283,4.1249,4.1379,3.9932,3.9044,4.0194,3.9189,3.7972,3.7514,3.7726,3.733,3.548,3.7525,3.8455,3.6387,3.8389,3.9841,3.9454,4.0339,4.1409,4.2734,4.3453,4.3899,4.3899,4.6194,4.7158,4.6299,4.742,4.7667,4.7081,4.7667,4.9017,5.0994,5.2803,5.3747,5.3927,5.4956,5.5472,5.5495,5.5794,5.5931,5.5931,5.6115,5.6207,5.6207,5.6583,5.6567,5.6528,5.702,5.7135,5.6919,0.9715,0.9715,0.9715,0.0,0.0,0.0,0.0,0.0,0.0,0.0,0.0,0.0,0.0,0.0,0.0,0.0,0.0,0.0,1.4058,1.5837,1.7231,1.8032,1.8838,1.9578,2.0303,2.0418,2.0619,2.0985,2.0985,2.1229,2.1632,2.1632,2.1632,2.1632,2.1632,2.1765,2.2031,2.2031,2.2344,2.2787,2.2013,2.1851,2.1982,2.1836,2.192,2.2289,2.3562,2.396,2.423,2.6898,2.7928,2.815,2.8609,2.9138,2.9989,3.1786,3.3004,3.4404,3.7366,3.8701,3.9596,4.0672,4.1022,4.1156,4.1177,4.0034,3.8905,3.8798,3.7648,3.6784,3.7551,3.734,3.661,3.5142,3.4866,3.4422,3.3154,3.4049,3.5097,3.5625,3.7246,3.7874,3.6931,3.7893,3.916,4.0565,4.0262,4.0036,4.0125,4.3876,4.4983,4.2837,4.4895,4.5266,4.3499,4.5285,4.7387,4.9659,5.1573,5.2664,5.3187,5.5066,5.5977,5.5977,5.6,5.6,5.6046,5.6528,5.6712,5.6843,5.7692,5.7814,5.7556,5.79,5.7814,5.747,0.0,0.0,0.0,0.0,0.0,0.0,0.0,0.0,0.0,0.0,0.0,0.0,0.0,0.0,0.0,0.0,0.0,0.0,1.4029,1.4562,1.5323,1.637,1.7746,1.8244,1.782,1.892,1.9564,1.9669,1.9669,2.0064,2.079,2.079,2.079,2.079,2.079,2.0833,2.0918,2.0918,2.1016,2.1133,2.093,2.0869,2.0863,2.0555,2.0619,2.0991,2.1607,2.2171,2.3042,2.5886,2.8355,3.0376,3.153,3.2763,3.3848,3.3899,3.5335,3.7166,3.8222,3.9085,4.0061,4.1239,4.0069,3.8877,3.9484,3.82,3.6807,3.6551,3.4972,3.386,3.4477,3.3898,3.3304,3.3224,3.3809,3.4276,3.4077,3.4998,3.5775,3.6113,3.681,3.7165,3.6827,3.7289,3.8085,3.9054,3.9976,4.0429,4.0429,4.2497,4.3444,4.2837,4.373,4.3997,4.3499,4.5591,4.7706,4.9725,5.181,5.3698,5.515,5.6045,5.6482,5.6505,5.6919,5.7079,5.7102,5.7217,5.7286,5.7286,5.7596,5.7556,5.747,5.7642,5.7556,5.747,0.0,0.0,0.0,0.0,0.0,0.0,0.0,0.0,0.0,0.0,0.0,0.0,0.0,0.0,0.0,0.0,0.0,0.0,0.0,1.3629,1.4186,1.501,1.6234,1.6746,1.6436,1.7392,1.8187,1.8756,1.8886,1.9498,2.0521,2.0521,2.0521,2.0521,2.0521,2.0521,2.0521,2.0521,2.0521,0.0,0.0,1.9989,1.9916,1.9308,1.9234,1.9537,2.0175,2.1988,2.4382,2.6583,2.9352,3.1897,3.1812,3.3112,3.4647,3.4568,3.6178,3.8186,3.8852,3.9347,3.9913,4.0958,3.9391,3.7812,3.8417,3.6745,3.4894,3.4159,3.2401,3.1084,3.1402,3.1553,3.1565,3.1258,3.2594,3.3689,3.3774,3.4718,3.5527,3.5725,3.6502,3.697,3.7054,3.7387,3.8088,3.905,4.0101,4.0674,4.0856,4.2119,4.2837,4.2837,4.3213,4.3573,4.3756,4.5017,4.6357,4.778,4.9869,5.2036,5.4126,5.528,5.6215,5.7056,5.7355,5.747,5.747,5.747,5.747,5.7493,5.7728,5.7642,5.747,5.7728,5.7642,5.747,0.0,0.0,0.0,0.0,0.0,0.0,0.0,0.0,0.0,1.0774,1.0707,1.0801,0.0,0.0,0.0,0.0,0.0,0.0,0.0,0.0,1.3462,1.3776,1.4581,1.5125,1.5395,1.5936,1.6786,1.7843,1.8186,1.8982,2.0191,2.0191,2.0191,2.0191,2.0191,2.0191,2.0191,2.0191,2.0191,2.0136,1.9439,1.9146,1.9072,0.0,1.8045,1.8211,1.9146,2.229,2.618,2.7652,3.032,3.2817,3.1634,3.2444,3.4026,3.4874,3.6313,3.7929,3.9368,3.9357,3.9165,4.0392,3.8808,3.7124,3.7496,3.5384,3.2943,3.1658,3.0004,2.8814,2.8703,3.0005,3.0748,2.9912,3.152,3.2966,3.3113,3.4138,3.4892,3.5013,3.6129,3.7069,3.7363,3.7785,3.8635,3.9822,4.0311,4.0765,4.1235,4.2119,4.2748,4.2927,4.3357,4.3738,4.4086,4.4196,4.4783,4.5761,4.7419,4.9602,5.2138,5.3857,5.5664,5.747,5.747,5.747,5.747,5.747,5.747,5.7556,5.79,5.7814,5.7556,5.79,5.7814,5.747,0.0,0.0,0.0,0.0,0.0,0.0,0.0,0.0,0.0,0.0,1.1276,1.1289,0.0,0.0,0.0,0.0,0.0,0.0,0.0,0.0,0.0,1.2262,1.331,1.3711,1.3348,1.4958,1.5909,1.6128,1.6773,1.7572,1.8502,1.8502,1.8502,1.8502,1.8502,1.8502,1.8502,1.8502,1.8502,1.8484,1.8356,1.832,1.8284,1.7789,0.0,0.0,1.8673,2.0981,2.4024,2.6004,2.9632,3.3652,3.5555,3.5519,3.5211,3.7434,3.698,3.6465,3.9389,3.8435,3.7321,4.0241,3.7887,3.5084,3.5626,3.3211,3.0395,2.8826,2.8243,2.7902,2.7588,2.8738,3.0065,3.087,3.1854,3.2972,3.4213,3.4849,3.5122,3.5039,3.587,3.6632,3.7363,3.7785,3.8635,3.9822,4.0311,4.0674,4.0674,4.1579,4.2479,4.3303,4.3811,4.4013,4.4086,4.4746,4.5963,4.7728,4.8332,5.061,5.4123,5.4498,5.5664,5.747,5.747,5.747,5.747,5.747,5.747,5.747,5.7556,5.7556,5.747,5.7556,5.7556,5.747,0.0,0.0,0.0,0.0,0.0,0.0,0.0,1.169,1.1877,1.1877,1.1877,1.1824,1.1677,1.165,1.177,0.0,0.0,0.0,0.0,0.0,0.0,0.0,0.0,0.0,1.2328,1.3554,1.4409,1.4881,0.0,1.6674,1.7559,1.7933,1.8081,1.8081,1.8081,1.8081,1.8081,1.8081,1.7953,1.777,1.7568,1.7495,1.744,0.0,0.0,0.0,1.8228,2.0472,2.3423,2.4841,2.7826,3.1399,3.3535,3.417,3.4362,3.5296,3.531,3.5429,3.7437,3.666,3.5845,3.8682,3.6713,3.4012,3.3871,3.1938,2.9522,2.7075,2.6547,2.6478,2.6299,2.7694,2.9066,2.9643,3.1226,3.2641,3.3427,3.4456,3.5164,3.5071,3.5843,3.6823,3.797,3.8141,3.8724,4.0169,4.0493,4.0856,4.1308,4.2209,4.3125,4.3793,4.3995,4.4288,4.471,4.5113,4.5853,4.7061,4.7157,4.8789,5.1597,5.2587,5.4123,5.6036,5.7015,5.747,5.747,5.747,5.747,5.747,5.747,5.747,5.747,5.747,5.747,5.747,0.0,0.0,0.0,0.0,0.0,0.0,0.0,1.2118,1.2305,1.2305,1.2305,1.2211,1.202,1.1993,1.2051,0.0,0.0,0.0,0.0,0.0,0.0,0.0,0.0,0.0,0.0,0.0,0.0,1.397,1.5166,0.0,0.0,0.0,0.0,0.0,1.7789,1.7825,1.7697,1.7697,1.7495,0.0,0.0,1.6652,0.0,0.0,0.0,0.0,0.0,1.9803,2.2306,2.3537,2.5522,2.7752,2.9514,3.0972,3.2175,3.2467,3.286,3.3723,3.5568,3.4928,3.4497,3.7182,3.5797,3.35,3.2553,3.1039,2.896,2.599,2.5286,2.5212,2.5396,2.6699,2.7925,2.8235,3.0188,3.1789,3.234,3.3772,3.4927,3.5152,3.5746,0.0,3.8384,3.8269,3.8674,4.0231,4.064,4.1127,4.1939,4.2855,4.3575,4.4068,4.416,4.4563,4.5297,4.5388,4.559,4.5883,4.5883,4.6897,4.8881,5.0782,5.2766,5.4675,5.6668,5.747,5.747,5.747,5.747,5.747,5.747,5.747,5.747,5.747,5.747,5.747,0.0,0.0,0.0,0.0,0.0,0.0,0.0,1.2118,1.2305,1.2305,1.2305,1.2291,1.2265,1.2265,1.2278,0.0,0.0,0.0,0.0,0.0,0.0,0.0,0.0,0.0,0.0,0.0,0.0,1.3543,1.5056,0.0,0.0,0.0,0.0,0.0,0.0,1.6817,1.6486,1.6486,0.0,0.0,0.0,0.0,0.0,0.0,0.0,0.0,0.0,1.8303,1.8985,2.169,2.2763,2.335,2.5377,2.6906,2.8546,3.1403,3.0733,3.0191,3.5152,3.44,3.323,3.7166,3.5723,3.3099,3.2078,3.0153,2.7984,2.5826,2.4826,2.4532,2.5286,2.5839,2.6682,2.8068,2.8835,2.9993,3.2124,3.3055,3.3984,3.5038,0.0,0.0,3.7507,3.7942,3.8485,3.9318,4.0576,4.1506,4.1939,4.2568,4.3216,4.4068,4.4435,4.4838,4.5297,4.5645,4.5847,4.5883,4.5883,4.6897,4.8881,5.0782,5.2766,5.4675,5.6668,5.747,5.747,5.747,5.747,5.747,5.747,5.747,5.747,5.747,5.747,5.747,0.0,0.0,0.0,0.0,0.0,0.0,1.2064,1.2225,1.2305,1.2305,1.2305,1.2305,1.2305,1.2305,1.2305,1.2305,0.0,0.0,0.0,0.0,0.0,0.0,0.0,0.0,0.0,0.0,1.2769,1.2769,1.3897,0.0,0.0,0.0,0.0,0.0,0.0,1.6817,1.6652,1.6379,0.0,0.0,0.0,0.0,0.0,0.0,0.0,0.0,0.0,0.0,1.8356,1.9989,2.1356,2.244,2.2769,2.3898,2.5752,2.9021,2.9279,2.9276,3.2618,3.2861,3.2636,3.4698,3.3497,3.1478,3.0365,2.8451,2.6308,2.4295,2.3657,2.3602,2.417,2.4611,2.5381,2.6682,2.7819,2.9031,3.0478,3.1883,3.3335,3.4822,3.4909,3.5757,3.7775,3.8014,3.8747,4.0417,4.0967,4.1506,4.1939,4.2479,4.3145,4.396,4.4508,4.4985,4.5645,4.581,4.5883,4.5883,4.5883,4.6353,4.7158,5.0236,5.2138,5.3034,5.6123,5.747,5.747,5.747,5.747,5.747,5.747,5.747,5.747,5.747,5.747,5.747,0.0,0.0,0.0,0.0,0.0,1.1588,1.2211,1.2305,1.2305,1.2305,1.2385,1.2438,1.2438,1.2438,1.2438,1.2438,1.2171,0.0,0.0,0.0,0.0,0.0,0.0,0.0,0.0,0.0,1.2305,1.2305,1.3098,1.339,0.0,0.0,1.5436,1.5471,0.0,0.0,0.0,0.0,0.0,0.0,0.0,0.0,0.0,0.0,0.0,0.0,0.0,0.0,0.0,0.0,0.0,2.1572,2.1222,2.1917,2.3422,2.625,2.7469,2.8452,3.0478,3.1578,3.2347,3.322,3.2047,3.0331,2.9133,2.7115,2.5056,2.3256,2.2803,2.284,2.3242,2.3804,2.4514,2.5506,2.6945,2.8303,2.9232,3.077,3.2456,3.4069,3.4104,3.4915,3.7079,3.7787,3.9065,4.1346,4.1235,4.1398,4.2209,4.2479,4.3036,4.4012,4.4617,4.5187,4.5883,4.5883,4.5883,4.5883,4.5883,4.5883,4.6072,4.9962,5.1688,5.1958,5.5839,5.747,5.747,5.747,5.747,5.747,5.747,5.747,5.747,5.747,5.747,5.7493,0.0,0.0,0.0,0.0,0.0,0.0,1.2211,1.2305,1.2305,1.2305,1.2596,1.2784,1.2784,1.2784,1.2784,1.2784,1.2502,0.0,0.0,0.0,0.0,0.0,0.0,0.0,0.0,0.0,1.2305,1.2305,1.3098,1.3098,1.2342,1.3882,1.4601,1.4637,0.0,0.0,0.0,0.0,0.0,0.0,0.0,0.0,1.627,0.0,0.0,0.0,0.0,0.0,0.0,0.0,0.0,0.0,0.0,2.1126,2.1459,2.3165,2.5112,2.7164,2.9165,3.0909,3.2398,3.3546,3.1993,2.9882,2.8684,2.6569,2.4461,2.3147,2.2584,2.2419,2.284,2.362,2.4349,2.4721,2.6151,2.7607,2.8721,2.9895,3.1215,3.2829,3.2958,3.3568,3.512,3.6953,3.9155,4.1796,4.1127,4.1218,4.2748,4.2299,4.2656,4.392,4.4799,4.548,4.5883,4.5883,4.5883,4.5883,4.5883,4.5883,4.6072,4.9962,5.1688,5.1958,5.5839,5.747,5.747,5.747,5.747,5.747,5.747,5.747,5.747,5.747,5.747,5.7539,0.0,0.0,0.0,0.0,0.0,0.0,0.0,1.2305,1.2371,1.2623,1.273,1.2784,1.2784,1.2784,1.2703,1.2502,1.2358,0.0,0.0,0.0,0.0,0.0,0.0,0.0,0.0,0.0,1.2744,1.2919,1.319,1.3151,1.2919,1.393,1.4751,1.537,1.585,1.6474,0.0,0.0,0.0,0.0,0.0,1.5936,1.6288,0.0,0.0,0.0,0.0,0.0,0.0,0.0,0.0,0.0,0.0,0.0,0.0,2.1743,2.3345,2.5361,2.7164,2.8193,2.8881,2.9439,2.8016,2.6424,2.6204,2.4467,2.2787,2.2181,2.2115,2.2224,2.2447,2.2913,2.3657,2.4629,2.5913,2.7122,2.802,2.986,3.1722,3.3261,3.4756,3.6075,3.7086,3.7991,3.9495,4.1796,4.1759,4.1939,4.2748,4.2928,4.3324,4.403,4.4617,4.5205,4.5883,4.5883,4.5883,4.5883,4.5883,4.5883,4.5978,4.8512,4.9688,4.9962,5.3857,5.5488,5.5576,5.6928,5.747,5.747,5.747,5.747,5.747,5.747,5.747,5.7561,0.0,0.0,0.0,0.0,0.0,0.0,0.0,1.2225,1.2371,1.2596,1.2717,1.2837,1.2945,1.2851,1.2757,1.2652,1.2438,0.0,0.0,0.0,0.0,0.0,0.0,0.0,0.0,1.2904,1.3013,1.3213,1.3213,1.3213,1.3213,1.366,1.4545,1.5704,1.5934,1.6566,0.0,0.0,0.0,0.0,1.6303,1.6431,1.6541,0.0,0.0,0.0,0.0,0.0,0.0,0.0,0.0,0.0,0.0,0.0,0.0,0.0,2.1989,2.3448,2.529,2.6363,2.7047,2.7338,2.597,2.4607,2.4848,2.3459,2.2017,2.1776,2.1909,2.2128,2.2309,2.262,2.3316,2.4574,2.5803,2.7031,2.8246,3.001,3.1788,3.3533,3.5293,3.6758,3.7855,3.8514,3.9673,4.1869,4.1849,4.2119,4.3034,4.291,4.3288,4.4196,4.4728,4.5223,4.5883,4.5883,4.5883,4.5883,4.5883,4.5883,4.5978,4.7883,4.8789,4.8973,5.2138,5.3501,0.0,5.4851,5.5751,5.6384,5.6384,5.6841,5.747,5.747,5.7584,5.7814,0.0,0.0,0.0,0.0,0.0,0.0,0.0,1.2091,1.2278,1.2305,1.2596,1.2891,1.3146,1.2958,1.2891,1.312,0.0,0.0,0.0,0.0,0.0,0.0,0.0,0.0,1.2878,1.3133,1.3293,1.3333,1.3333,1.3333,1.3333,1.3333,1.418,1.5715,1.5722,1.643,0.0,0.0,0.0,0.0,1.7312,1.7238,0.0,0.0,0.0,0.0,0.0,0.0,0.0,0.0,0.0,0.0,0.0,0.0,0.0,0.0,0.0,0.0,0.0,2.5165,2.6385,2.6593,2.5326,2.4065,2.4299,2.3212,0.0,2.1776,2.1946,2.221,2.2309,2.2675,2.337,2.4643,2.5874,2.7284,2.9223,3.0434,3.1805,3.3584,3.4708,3.5919,3.7539,3.839,3.9762,4.1886,4.1687,4.2047,4.341,4.2568,4.2928,4.4655,4.5058,4.5462,4.5883,4.5883,4.5883,4.5883,4.5883,4.5883,4.5978,4.7791,4.8604,4.8697,5.0691,5.1507,5.1507,5.1688,5.2766,5.4388,5.4388,5.5488,5.7124,5.7124,5.7508,5.8098,0.0,0.0,0.0,0.0,0.0,0.0,0.0,0.0,0.0,0.0,1.2596,1.2811,1.2891,1.2824,1.2717,0.0,0.0,0.0,0.0,0.0,0.0,0.0,0.0,0.0,1.3802,1.3841,1.4095,1.4593,1.4593,1.4593,1.4593,1.4593,1.5019,1.5777,1.6139,1.6746,0.0,0.0,0.0,0.0,1.7,1.6982,0.0,0.0,0.0,0.0,1.6908,1.6963,0.0,0.0,0.0,0.0,0.0,0.0,0.0,0.0,2.0869,2.1266,2.2071,0.0,2.2953,2.338,2.2888,2.2382,0.0,2.2603,2.222,2.1776,2.2285,2.2753,2.2638,2.3323,2.4159,2.49,2.6201,2.7594,2.9259,3.2296,3.4452,3.49,3.5937,3.6879,3.7743,3.8735,4.0277,4.2425,4.2855,4.3124,4.3499,4.3303,4.3578,4.4655,4.4765,4.5168,4.5883,4.5883,4.5883,4.5883,4.5883,4.5883,4.5883,4.6335,4.6616,4.671,4.8604,4.9525,4.9616,5.1055,5.1958,5.2408,5.2408,5.2677,5.3034,5.3034,5.4315,5.6065,0.0,0.0,0.0,0.0,0.0,0.0,0.0,0.0,0.0,0.0,0.0,0.0,0.0,0.0,0.0,0.0,0.0,0.0,0.0,0.0,0.0,0.0,0.0,0.0,1.4068,1.4349,1.4687,1.5008,1.5008,1.5008,1.5008,1.5008,1.5359,1.6067,1.6755,1.7349,0.0,0.0,0.0,1.6927,1.711,0.0,0.0,0.0,0.0,0.0,1.6908,1.6908,0.0,1.7147,1.7495,1.7899,0.0,0.0,0.0,0.0,2.0605,2.1053,2.1328,2.154,2.182,2.2264,2.2043,2.1865,2.2441,2.2637,2.2591,2.2232,2.2775,2.3372,2.3514,2.4367,2.5222,2.5841,2.7596,2.9349,3.0686,3.3055,3.4765,3.5295,3.5803,3.6862,3.868,3.9305,4.0454,4.2604,4.3034,4.3303,4.3499,4.3303,4.3595,4.438,4.4581,4.5058,4.5883,4.5883,4.5883,4.5883,4.5883,4.5883,4.5883,4.5883,4.5883,4.5978,4.6971,4.7438,4.7531,4.8604,4.9596,5.0327,5.0327,5.0873,5.1688,5.1688,5.3369,5.5747,0.0,0.0,0.0,0.0,0.0,0.0,0.0,0.0,0.0,0.0,0.0,0.0,0.0,0.0,0.0,0.0,0.0,0.0,0.0,0.0,0.0,0.0,0.0,1.3895,1.4282,1.4821,1.5102,1.5142,1.5142,1.5142,1.5142,1.5142,1.5642,1.661,1.7347,1.7904,0.0,0.0,1.7678,1.7018,1.7293,0.0,0.0,0.0,0.0,0.0,0.0,0.0,0.0,1.6908,1.7165,1.7568,1.7953,0.0,0.0,0.0,0.0,0.0,2.1041,2.1595,2.2116,2.234,2.2043,2.1909,2.2618,2.2942,2.3021,2.2793,2.3409,2.4165,2.4802,2.5603,2.6372,2.716,2.9375,3.1452,3.272,3.3705,3.4591,3.5366,3.5456,3.6709,3.9704,3.9738,4.0454,4.2783,4.2927,4.3124,4.3499,4.3124,4.3306,4.4068,4.4471,4.504,4.5792,4.5865,4.5883,4.5883,4.5883,4.6072,4.6335,4.6072,4.6072,4.6353,4.6072,4.5883,4.5883,4.5883,4.6897,4.8327,4.8327,4.9321,5.0782,5.0782,5.2863,5.5648,0.0,0.0,0.0,0.0,0.0,0.0,0.0,0.0,0.0,0.0,0.0,0.0,0.0,0.0,0.0,0.0,0.0,0.0,0.0,0.0,0.0,0.0,0.0,1.4389,1.5177,1.5284,1.5444,1.5698,1.5698,1.5698,1.5698,1.5698,1.648,1.7908,1.7402,1.7893,1.9072,1.8412,1.7844,1.7385,1.711,0.0,0.0,0.0,0.0,0.0,0.0,0.0,0.0,1.6908,1.7165,1.7568,1.7953,0.0,0.0,0.0,0.0,0.0,2.0998,2.2416,2.3564,2.2651,2.2043,2.1909,2.2618,2.2942,2.3066,2.3066,2.4098,2.5355,2.6284,2.666,2.7234,2.833,3.0602,3.279,3.4319,3.6022,3.6839,3.6025,3.6357,3.7437,3.9176,3.946,4.0542,4.3159,4.341,4.3392,4.3499,4.341,4.3575,4.4068,4.4471,4.4911,4.5388,4.5718,4.5883,4.5883,4.5883,4.6803,4.8347,4.6616,4.6803,4.8235,4.6616,4.5883,4.5883,4.5883,4.6072,4.6335,4.6335,4.6522,4.6803,4.6803,4.9452,5.3563,0.0,0.0,0.0,0.0,0.0,0.0,0.0,0.0,0.0,0.0,0.0,0.0,0.0,0.0,0.0,0.0,0.0,0.0,0.0,0.0,0.0,0.0,0.0,0.0,0.0,1.5551,1.5698,1.5784,1.5784,1.5784,1.5784,1.5784,1.6639,1.8166,1.7601,1.782,1.8603,1.8221,1.7623,1.6793,0.0,0.0,0.0,0.0,0.0,0.0,0.0,0.0,0.0,0.0,1.7037,1.7293,1.788,0.0,0.0,0.0,0.0,0.0,2.1041,2.2053,2.3264,2.397,2.4619,2.5066,2.5481,2.618,2.6476,2.5367,2.6045,2.7048,2.7748,2.8355,2.9592,3.2333,3.2579,3.316,3.4939,3.5426,3.5687,3.5956,3.6212,3.7433,4.0216,4.0329,4.1249,4.3693,4.3837,4.3767,4.3499,4.3499,4.3573,4.3756,4.4141,4.4545,4.4948,4.537,4.5682,4.5883,4.5883,4.6335,4.7158,4.6353,4.6335,4.7158,4.6259,4.5883,4.5883,4.5883,4.5883,4.5883,4.5883,4.5883,4.6184,4.8579,5.086,5.3449,0.0,0.0,0.0,0.0,0.0,0.0,0.0,0.0,0.0,0.0,0.0,0.0,0.0,0.0,0.0,0.0,0.0,0.0,0.0,0.0,1.3733,0.0,0.0,0.0,0.0,1.5712,1.5784,1.5784,1.5784,1.5784,1.5784,1.5784,1.6589,1.7976,1.7575,1.7594,1.7934,1.799,1.7373,1.6385,0.0,0.0,0.0,0.0,0.0,0.0,0.0,0.0,0.0,0.0,0.0,0.0,0.0,0.0,0.0,1.9564,2.0334,2.0866,2.1041,2.1857,2.314,2.502,2.6008,2.6785,2.793,2.876,2.9012,2.793,2.8443,2.9177,2.9428,3.0094,3.1684,3.4882,3.411,3.3789,3.5861,3.5309,3.5169,3.6595,3.661,3.7826,4.1254,4.1275,4.1949,4.4207,4.4282,4.4015,4.3678,4.3589,4.3499,4.3499,4.3884,4.427,4.4673,4.5095,4.5498,4.5883,4.5883,4.6166,4.6522,4.6072,4.6166,4.6522,4.6072,4.5883,4.5883,4.5883,4.5883,4.5883,4.5883,4.5883,4.6466,5.1148,5.3015,5.3835,0.0,0.0,0.0,0.0,0.0,0.0,0.0,0.0,0.0,0.0,0.0,0.0,0.0,0.0,0.0,0.0,0.0,0.0,1.2278,1.3107,1.3733,1.4068,0.0,0.0,0.0,1.5771,1.5784,1.5784,1.5784,1.5784,1.5784,1.5784,1.6386,1.7375,1.6945,1.713,1.7722,1.7787,1.74,1.6795,1.7279,0.0,0.0,0.0,0.0,0.0,0.0,0.0,0.0,0.0,0.0,0.0,0.0,0.0,1.8834,1.9637,2.0209,2.0613,2.0998,2.2683,2.4394,2.4749,2.3746,2.3791,2.8042,2.8332,2.8143,2.9742,3.1015,3.1813,3.1596,3.1775,3.2208,3.3178,3.4097,3.5564,3.8011,3.7826,3.7851,3.8742,3.8443,3.9137,4.1344,4.156,4.2438,4.4719,4.4459,4.4193,4.4104,4.3748,4.3499,4.3499,4.3884,4.427,4.4673,4.5095,4.5498,4.5883,4.5883,4.6897,4.8512,4.671,4.6878,4.8512,4.671,4.5883,4.5883,4.5883,4.5883,4.5883,4.5883,4.5883,4.6616,5.236,5.3942,5.3793,0.0,0.0,0.0,0.0,0.0,0.0,0.0,0.0,0.0,0.0,0.0,0.0,0.0,0.0,0.0,0.0,0.0,0.0,1.2278,1.332,1.3975,1.4082,0.0,1.5418,1.5771,1.5784,1.5784,1.5784,1.5784,1.5784,1.5784,1.5784,1.6353,1.7264,1.6883,1.7056,1.7699,1.7788,1.7547,1.7192,1.7423,1.7403,0.0,0.0,0.0,0.0,0.0,0.0,0.0,0.0,1.7165,1.7568,1.7953,1.8394,1.8926,1.9948,2.0351,2.0625,2.1328,2.3224,2.5112,2.548,2.5598,2.6479,2.9753,3.1139,3.1511,3.1066,3.2308,3.3207,3.2039,3.3494,3.4894,3.4979,3.5958,3.749,3.9475,3.8885,3.8742,4.0162,3.9413,3.9711,4.2203,4.2265,4.2791,4.4396,4.4385,4.4239,4.4222,4.4065,4.3932,4.3926,4.4075,4.4263,4.4306,4.471,4.5113,4.5535,4.5773,4.6259,4.6971,4.6259,4.6353,4.6971,4.6259,4.5883,4.5883,4.5883,4.5883,4.5883,4.5883,4.5883,4.6429,5.1055,5.2806,5.3282,0.0,0.0,0.0,0.0,0.0,0.0,0.0,0.0,0.0,0.0,0.0,0.0,0.0,0.0,0.0,0.0,0.0,0.0,1.2278,1.3333,1.3988,1.4082,1.4843,1.5444,1.5771,1.5784,1.5784,1.5784,1.5784,1.5784,1.5784,1.5784,1.615,1.6857,1.686,1.7026,1.728,1.7602,1.7472,1.7008,1.7213,1.7207,0.0,0.0,0.0,0.0,0.0,0.0,0.0,0.0,1.7165,1.7568,1.7953,1.8447,1.9109,2.0191,2.1071,2.1778,2.2363,2.3956,2.5672,2.6372,2.6958,2.8155,3.1379,3.2991,3.3681,3.3175,3.3837,3.4288,3.3803,3.4912,3.6035,3.6601,3.7388,3.8571,4.039,3.953,3.9306,4.1018,4.0185,4.0294,4.2574,4.2804,4.3189,4.4257,4.426,4.43,4.4242,4.4068,4.4027,4.3977,4.4108,4.4193,4.4064,4.456,4.4948,4.5297,4.5572,4.5773,4.5883,4.5883,4.5883,4.5883,4.5883,4.5883,4.5883,4.5883,4.5883,4.5978,4.6616,4.6803,4.7251,5.1145,5.2861,5.3868,0.0,0.0,0.0,0.0,0.0,0.0,0.0,0.0,0.0,0.0,0.0,0.0,0.0,0.0,0.0,0.0,0.0,0.0,1.2278,1.3107,1.3733,1.4068,1.47,1.5244,1.5771,1.5784,1.5784,1.5784,1.5784,1.5784,1.5784,1.5784,1.5784,1.5832,1.6857,1.6914,1.6345,1.7296,1.7085,1.6158,1.6635,1.655,1.6285,0.0,0.0,0.0,0.0,0.0,0.0,0.0,1.7165,1.7568,1.7953,1.8669,1.9457,2.0283,2.2226,2.4157,2.4188,2.493,2.6074,2.7417,2.7269,2.8008,3.2747,3.3397,3.3745,3.6276,3.5792,3.5484,3.7203,3.5761,3.5139,3.7664,3.8025,3.8707,4.0815,3.9997,3.9736,4.1492,4.0915,4.0935,4.2281,4.3195,4.3887,4.4355,4.4361,4.4337,4.4337,4.389,4.3633,4.3566,4.3963,4.4203,4.4156,4.4584,4.5018,4.5389,4.5297,4.5498,4.5883,4.5883,4.5883,4.5883,4.5883,4.5883,4.5883,4.5883,4.5883,4.6072,4.8069,4.8789,4.9229,5.3123,5.4871,5.5598,0.0,0.0,0.0,0.0,0.0,0.0,0.0,0.0,0.0,0.0,0.0,0.0,0.0,0.0,0.0,0.0,0.0,0.0,1.2265,1.3107,1.3733,1.4068,1.4843,1.5444,0.0,1.5784,1.5784,1.5784,1.5784,1.5784,1.5784,1.5784,1.5784,1.5832,1.6116,1.6285,1.6316,1.661,1.6974,1.7416,1.6966,1.7096,1.7494,0.0,0.0,0.0,0.0,0.0,0.0,0.0,0.0,0.0,1.7953,1.8485,1.9109,2.0191,2.1034,2.1705,2.2308,2.4957,2.7275,2.6024,2.8409,3.1636,3.3459,3.3842,3.4658,3.7481,3.7102,3.6439,3.6924,3.7162,3.7503,3.8008,3.8762,3.9929,4.176,4.0659,4.0446,4.2862,4.1009,4.044,4.2712,4.2826,4.2988,4.3437,4.3701,4.3987,4.4317,4.4233,4.4114,4.4081,4.4214,4.4875,4.6021,4.5266,4.6481,4.9671,4.7007,4.5871,4.5883,4.5883,4.5883,4.5883,4.5883,4.5883,4.5883,4.5883,4.5883,4.5978,4.6522,4.6803,4.7251,5.1145,5.2671,5.331,0.0,0.0,0.0,0.0,0.0,0.0,0.0,0.0,0.0,0.0,1.0586,1.0586,0.0,0.0,0.0,0.0,0.0,0.0,1.2278,1.3039,1.356,1.3895,1.4536,1.5124,1.5645,1.5765,1.5784,1.5784,1.5784,1.5784,1.5784,1.5784,1.5784,1.5832,1.6197,1.6363,1.6316,1.6698,1.7121,1.7446,1.6961,1.7128,1.7544,0.0,0.0,0.0,0.0,0.0,0.0,0.0,0.0,0.0,1.7898,1.8394,1.9146,2.1328,2.197,2.2437,2.4546,2.6841,2.8498,2.7882,3.0189,3.3033,3.4697,3.5571,3.6718,3.9334,3.8524,3.7767,3.9088,3.8933,3.8945,3.9913,4.0262,4.0809,4.2181,4.1347,4.1304,4.3234,4.1404,4.0702,4.2612,4.2734,4.2715,4.2812,4.3379,4.3828,4.4101,4.4121,4.4071,4.4071,4.4265,4.5117,4.6646,4.6181,4.7661,5.0995,4.9146,4.8267,4.8332,4.671,4.5883,4.5883,4.5883,4.5883,4.5883,4.5883,4.5883,4.5883,4.5883,4.6878,4.8512,5.0873,5.2677,5.4365,0.0,0.0,0.0,0.0,0.0,0.0,0.0,0.0,0.0,1.0586,1.0586,1.0586,0.0,0.0,0.0,1.1309,1.1663,1.1957,1.2278,1.2839,1.3267,1.3586,1.3948,1.4496,1.5297,1.5631,1.5744,1.5744,1.5771,1.5784,1.5784,1.5784,1.5784,1.5832,1.6763,1.6837,1.6389,1.7136,1.7206,1.6846,1.6779,1.6822,1.6928,1.6973,0.0,0.0,0.0,0.0,0.0,0.0,0.0,0.0,1.7862,1.8338,1.9329,2.286,2.3999,2.4966,2.8709,2.9483,2.9668,3.141,3.207,3.3144,3.6218,3.7818,3.9271,4.1306,3.9888,3.9265,4.2411,4.0697,3.9664,4.2531,4.201,4.1475,4.232,4.2001,4.2067,4.3004,4.191,4.1399,4.2283,4.2754,4.2851,4.2461,4.3223,4.3711,4.3711,4.3711,4.3711,4.3711,4.4121,4.4965,4.6249,4.7066,4.8481,5.0462,5.1167,5.1849,5.223,4.8168,4.6166,4.5978,4.5883,4.5883,4.5883,4.5883,4.5883,4.5883,4.6072,4.8347,5.1507,5.1868,5.4211,5.7366,0.0,0.0,0.0,0.0,0.0,0.0,0.0,0.0,1.0586,1.0586,1.0586,1.0586,1.0586,1.0586,0.0,1.1049,1.1356,1.1744,1.2265,1.2677,1.308,1.3586,1.4106,1.4509,1.4696,1.5217,1.5484,1.5484,1.5712,1.5784,1.5784,1.5784,1.5784,1.5832,1.6021,1.6364,1.6711,1.5927,1.6603,1.8061,1.6765,1.6889,1.7804,1.7478,1.7165,0.0,0.0,0.0,0.0,0.0,0.0,0.0,1.7862,1.8155,1.8612,2.0704,2.2428,2.3943,2.5182,2.811,3.0685,2.9913,3.2378,3.5285,3.6624,3.8282,3.997,4.105,4.0909,4.0868,4.1872,4.0963,4.055,4.1872,4.1545,4.159,4.2809,4.2274,4.2086,4.3004,4.166,4.096,4.1854,4.2324,4.2519,4.2441,4.3223,4.3711,4.3711,4.3711,4.3711,4.3711,4.3808,4.4813,4.6824,4.6948,4.9014,5.2917,5.1576,5.1909,5.3682,5.0661,4.8235,4.6447,4.6072,4.5883,4.5883,4.5883,4.5883,4.6072,4.7624,4.8697,4.9779,5.2855,5.4498,5.5488,0.0,0.0,0.0,0.0,0.0,0.0,0.0,0.0,1.0747,1.0613,1.0586,1.0586,1.0586,1.0586,0.0,0.0,1.1383,1.177,1.2078,1.2639,1.3106,1.3387,1.3826,1.4119,1.4309,1.475,1.511,1.5391,1.5551,1.592,1.6527,1.6021,1.6069,1.6527,1.6527,1.6406,1.619,1.6442,1.7047,1.7846,1.7179,1.7501,1.8319,1.7954,1.7678,1.7459,1.7459,0.0,0.0,0.0,0.0,0.0,0.0,0.0,1.8594,2.1174,2.198,2.28,2.6202,2.8349,3.004,3.1364,3.3875,3.6164,3.6732,3.8436,4.0105,4.1002,4.1046,4.1187,4.2225,4.1517,4.1226,4.2225,4.2101,4.2172,4.3199,4.2876,4.2577,4.3086,4.1904,4.1322,4.1797,4.2187,4.2422,4.2422,4.3223,4.3711,4.3711,4.3711,4.3711,4.3711,4.4494,4.5494,4.6677,4.8484,5.0539,5.2934,5.3518,5.4198,5.4842,5.1182,4.887,4.7636,4.6481,4.6038,4.6038,4.6038,4.6038,4.6149,4.8143,4.9389,5.0588,5.3504,5.5203,5.6123,0.0,0.0,0.0,0.0,0.0,0.0,0.0,0.0,0.0,1.0626,1.0586,1.0586,1.0586,1.0586,1.0693,0.0,0.0,0.0,1.1899,1.2665,1.3106,1.3053,1.3293,1.3601,1.3854,1.4242,1.4771,1.5391,1.5486,1.6197,1.7424,1.6311,1.6433,1.7559,1.7185,1.6761,1.632,1.7492,1.7894,1.7816,1.7902,1.8276,1.8779,1.8375,1.8155,1.8081,1.8081,1.7899,1.7587,1.7513,0.0,0.0,0.0,0.0,1.8722,2.1925,2.198,2.2189,2.7659,2.8631,2.9181,3.3518,3.5428,3.6254,3.6601,3.8324,4.0047,4.0758,4.0693,4.1032,4.2654,4.1992,4.1543,4.2676,4.2617,4.2695,4.3476,4.3301,4.3047,4.2969,4.2266,4.1777,4.1699,4.2129,4.2422,4.2422,4.3223,4.3711,4.3711,4.3711,4.3711,4.3711,4.5373,4.6345,4.6345,5.0041,5.1991,5.2014,5.5202,5.6458,5.5837,5.168,4.9433,4.8799,4.725,4.6367,4.6114,4.6457,4.6548,4.6767,4.9052,5.0916,5.2573,5.4566,5.6275,5.7556,0.0,0.0,0.0,0.0,0.0,0.0,0.0,0.0,0.0,0.0,1.0586,1.0586,1.0586,1.0586,1.06,1.064,1.1142,1.1597,1.1886,0.0,0.0,1.2438,1.2744,1.2918,1.2958,1.3775,1.4557,1.5416,1.5937,1.6803,1.8036,1.6542,1.681,1.8519,1.681,1.7375,1.9505,1.7795,1.8414,2.044,1.9037,1.8778,1.9182,1.8779,1.8393,1.8081,1.8081,1.8045,1.799,1.7623,1.7458,0.0,0.0,0.0,1.8393,1.993,2.1668,2.3292,2.4248,2.6946,3.0351,3.4073,3.5358,3.5815,3.6186,3.8141,3.9854,3.9569,4.0037,4.0936,4.2264,4.1777,4.1348,4.1875,4.2226,4.2598,4.3086,4.3105,4.293,4.2558,4.209,4.166,4.1289,4.1973,4.2422,4.2422,4.3223,4.3711,4.3711,4.3711,4.3711,4.3711,4.5373,4.6345,4.6345,4.9707,5.1385,5.1408,5.4277,5.6022,5.6733,5.4613,5.2017,4.9331,4.8711,4.759,4.6204,4.7749,4.8444,4.884,5.2778,5.445,5.4971,5.7366,5.8134,5.8049,0.0,0.0,0.0,0.0,0.0,0.0,0.0,0.0,0.0,0.0,0.0,1.0586,1.0586,1.0586,1.0586,1.0586,1.1089,1.169,1.2355,1.2489,1.2556,1.2583,1.2556,1.261,1.2784,1.381,1.4677,1.5394,1.5819,1.6942,1.866,1.6891,1.7051,1.875,1.7279,1.7684,1.9376,1.8392,1.8897,2.0245,1.9523,2.036,2.1841,2.0319,2.0466,2.1328,1.9952,1.9182,1.876,1.8559,1.821,1.788,1.8027,0.0,0.0,0.0,2.0461,2.2017,2.4346,2.7593,3.0895,3.3463,3.5175,3.6165,3.5638,3.7212,3.8898,3.8929,3.9411,4.0309,4.1794,4.1582,4.1308,4.1738,4.1953,4.2305,4.2988,4.2871,4.2637,4.2441,4.2051,4.1641,4.1211,4.1719,4.2168,4.2402,4.3008,4.3457,4.3691,4.3711,4.3711,4.3711,4.6324,4.7288,4.6345,5.0598,5.3,5.3589,5.486,5.5963,5.6941,5.6174,5.4495,5.2102,4.988,4.8446,4.7766,4.8621,4.8862,4.9337,5.3222,5.4874,5.5445,5.7545,5.839,5.8477,0.0,0.0,0.0,0.0,0.0,0.0,0.0,0.0,0.0,0.0,0.0,1.0814,1.0814,0.0,0.0,0.0,1.1249,1.185,1.2623,1.2425,1.2371,1.2556,1.2422,1.2483,1.2855,1.3839,1.481,1.5797,1.6091,1.7133,1.888,1.7534,1.7585,1.8859,1.7949,1.821,1.9381,1.9252,1.9591,2.0253,2.0787,2.2328,2.422,2.2868,2.3492,2.4808,2.2318,2.1053,2.0411,1.9586,1.8907,1.8412,1.8264,1.8485,0.0,0.0,0.0,2.0698,2.4454,2.731,2.9793,3.2366,3.4484,3.5813,3.5255,3.6591,3.8098,3.8319,3.8873,3.9786,4.1327,4.1387,4.1269,4.1582,4.1738,4.2031,4.2656,4.2558,4.2383,4.2285,4.1992,4.168,4.1367,4.1621,4.2012,4.2558,4.2891,4.3262,4.3691,4.3711,4.3711,4.3711,4.7027,4.7985,4.6345,5.1021,5.409,5.5385,5.553,5.6107,5.7021,5.7021,5.6254,5.4835,5.166,4.9828,4.9082,4.9998,5.0083,5.004,5.3799,5.55,5.6082,5.776,5.853,5.8823,0.0,0.0,0.0,0.0,0.0,0.0,0.0,0.0,0.0,0.0,0.0,1.1349,1.1349,1.1349,1.1349,1.1349,1.1663,1.202,1.2305,1.2305,1.2184,1.1966,1.2171,0.0,1.2988,1.3601,1.4918,1.6915,1.7174,1.7717,1.8455,1.8388,1.8651,1.9058,1.8427,1.9196,2.0945,2.0462,2.0754,2.1788,2.3755,2.4647,2.4941,2.6719,2.7528,2.7326,2.4882,2.3981,2.3485,2.0338,1.9274,1.9164,1.8797,1.8687,1.8797,0.0,0.0,0.0,2.3026,2.4263,2.5991,3.0892,3.2858,3.3991,3.5265,3.6849,3.7953,3.7604,3.8473,3.9739,4.0958,4.1191,4.1172,4.1211,4.1543,4.1816,4.1855,4.2187,4.2285,4.1875,4.1816,4.1797,4.1777,4.1797,4.2148,4.2988,4.3066,4.3262,4.3691,4.3711,4.3711,4.3711,4.7027,4.7985,4.6345,5.0186,5.3241,5.5409,5.5938,5.6468,5.7021,5.7021,5.6941,5.6758,5.4835,5.2077,4.9232,5.2658,5.3093,5.1976,5.6069,5.7653,5.7797,5.8934,5.9069,5.8807,0.0,0.0,0.0,0.0,0.0,0.0,0.0,0.0,0.0,0.0,0.0,0.0,0.0,1.1389,1.1389,1.1389,1.1703,1.2033,1.2278,1.2131,1.202,1.1913,1.2206,1.2578,1.3,1.4411,1.5624,1.6598,1.6863,1.7419,1.8202,1.7938,1.8169,1.8803,1.8392,1.9295,2.1039,2.0552,2.0862,2.1888,2.4244,2.6096,2.7398,2.6609,2.8168,3.0351,2.6082,2.4572,2.4372,2.2931,2.1381,2.0008,1.9622,1.9454,1.9436,1.9329,1.9684,2.0568,2.2815,2.4244,2.5755,2.8651,3.1649,3.3765,3.3273,3.5466,3.7596,3.7444,3.7968,3.8916,4.0433,4.0976,4.1172,4.1172,4.1308,4.1484,4.1758,4.1699,4.1562,4.1426,4.1387,4.1387,4.1387,4.1387,4.1758,4.2598,4.2402,4.2441,4.2851,4.3144,4.3301,4.3301,4.688,4.9562,5.1062,5.14,5.2697,5.488,5.5097,5.565,5.6516,5.6516,5.6708,5.6941,5.6358,5.4673,5.2492,5.3752,5.3915,5.361,5.6307,5.7502,5.7886,5.8608,5.9006,5.92,0.0,0.0,0.0,0.0,0.0,0.0,0.0,0.0,1.157,1.157,0.0,0.0,0.0,0.0,1.1682,1.1682,1.1904,1.2091,1.2291,1.2074,1.1859,1.173,1.1943,1.2385,1.3033,1.4516,1.5683,1.6562,1.6893,1.7416,1.81,1.7769,1.8041,1.8683,1.8589,1.9436,2.09,2.0669,2.1007,2.198,2.5271,2.7068,2.7783,2.7948,2.9489,3.1075,2.7326,2.6028,2.5936,2.5237,2.3913,2.2384,2.1454,2.0601,1.9924,1.958,1.9773,2.0447,2.2142,2.3327,2.4605,2.6738,2.9538,3.1713,3.1824,3.4037,3.6307,3.7054,3.7632,3.85,4.0006,4.0664,4.0996,4.1152,4.1172,4.1269,4.1543,4.1465,4.1328,4.1191,4.1308,4.1445,4.1582,4.1348,4.1582,4.2578,4.2129,4.1992,4.2402,4.2851,4.345,4.4158,4.6099,4.9013,5.2944,5.1454,5.204,5.4616,5.4784,5.5361,5.6227,5.6227,5.6516,5.7021,5.7021,5.6013,5.4324,5.4917,5.4835,5.4487,5.6254,5.7237,5.7622,5.8127,5.856,5.8969,0.0,0.0,0.0,0.0,0.0,0.0,0.0,0.0,1.1953,1.1953,0.0,0.0,0.0,0.0,0.0,1.2331,1.2318,1.2318,1.2318,1.2037,1.1779,1.1436,1.1457,1.1968,1.3092,1.3846,1.5102,1.689,1.7275,1.7678,1.8045,1.8063,1.832,1.8705,1.9127,1.9751,2.0539,2.0943,2.1346,2.2108,2.7013,2.7563,2.6094,3.1212,3.1763,2.9648,2.8769,2.8451,2.823,2.7087,2.6601,2.6113,2.4148,2.1971,2.0186,1.9955,1.9921,2.0091,0.0,0.0,0.0,2.5244,2.6493,2.7837,3.0918,0.0,3.4127,3.6257,3.7428,3.8385,3.9654,4.0215,4.0625,4.1074,4.1172,4.1172,4.1172,4.1523,4.1621,4.1211,4.1523,4.1953,4.2344,4.166,4.1699,4.2949,4.2266,4.1953,4.2363,4.2812,4.4037,4.6223,4.4658,4.6244,5.1216,5.0186,5.13,5.4592,5.5097,5.565,5.6203,5.6203,5.6516,5.7021,5.7021,5.6013,5.451,5.6254,5.5933,5.4568,5.6358,5.7021,5.7093,5.7622,5.7814,5.7959,0.0,0.0,0.0,0.0,0.0,1.202,1.2368,1.2639,1.2919,0.0,0.0,0.0,1.3253,1.308,1.2959,1.2959,1.2746,1.2663,1.2663,1.2181,1.1976,1.2119,1.241,1.2946,1.3807,1.4504,1.5382,1.6486,1.6597,1.6853,1.7257,1.7532,1.788,1.832,1.8999,1.9751,2.0539,2.0943,2.1346,2.2089,2.6719,2.8333,2.8297,3.091,3.2784,3.3637,3.106,2.9588,2.885,2.913,2.6681,2.3311,2.2171,2.1174,2.0389,2.0186,2.0235,2.0493,2.0883,0.0,0.0,0.0,0.0,0.0,2.7768,0.0,3.4528,3.477,3.6766,3.8759,3.9729,3.9707,3.9824,4.0586,4.0976,4.1172,4.1172,4.1269,4.1191,4.0762,4.1094,4.1387,4.1504,4.1308,4.1445,0.0,4.166,4.1387,4.1523,4.2207,4.3579,4.5747,4.5696,4.7427,5.1293,5.0967,5.1909,5.4039,5.4183,5.4736,5.5626,5.5626,5.6131,5.7021,5.7021,5.6678,5.6254,5.6782,5.6678,5.6254,5.6758,5.7021,5.7093,5.7622,5.7814,5.7911,0.0,0.0,1.2074,1.2248,1.2382,1.2545,1.2931,1.32,1.3453,0.0,0.0,0.0,1.3841,1.352,1.3347,1.3347,1.312,1.2918,1.2797,1.2342,1.2096,1.2179,1.2163,1.2627,1.3617,1.4044,1.4865,1.6065,1.623,1.6523,1.6908,1.7147,1.7568,1.8118,1.8779,1.9604,2.0539,2.0943,2.1346,2.2089,2.6774,2.8168,2.7838,3.0781,3.2291,3.2672,3.13,3.0429,3.013,3.1132,2.8412,2.4515,2.3935,2.2454,2.0856,2.0758,2.0718,2.0826,2.1202,2.1598,2.1992,2.2402,0.0,0.0,2.7431,3.0409,3.336,3.515,3.7009,3.8515,3.9258,3.9258,3.9434,4.0156,4.0469,4.0703,4.0879,4.0898,4.0879,4.0801,4.0859,4.1035,4.1406,4.1269,4.1348,4.1758,4.1406,4.125,4.1426,4.207,4.308,4.4542,4.5694,4.7587,5.0187,5.0985,5.216,5.3822,5.3822,5.4375,5.5385,5.5385,5.5987,5.7021,5.7021,5.7021,5.7021,5.7021,5.7021,5.7021,5.7021,5.7021,5.7069,5.7357,5.7478,5.755,0.0,0.0,1.2744,1.277,1.3012,1.3186,1.3253,1.3493,1.3813,0.0,1.4215,1.4229,1.4229,1.3961,1.3788,1.3912,1.3682,1.345,1.3253,1.2952,1.2609,1.2359,1.1819,1.2065,1.3204,1.3299,1.4071,1.5625,1.6046,1.645,1.6835,1.689,1.7348,1.81,1.8577,1.9421,2.0539,2.0998,2.1548,2.2474,2.6848,2.7471,2.6263,3.0807,3.1312,2.9788,3.085,3.1375,3.1652,3.2492,3.0767,2.8008,2.7381,2.4819,2.1991,2.1636,2.14,2.1345,2.1773,2.1914,2.2051,2.2422,2.2789,0.0,2.8066,2.945,3.115,3.5375,3.6752,3.7324,3.7715,3.8086,3.8496,3.8965,3.9277,3.9707,4.043,4.0488,4.0605,4.1055,4.0723,4.0801,4.1641,4.1348,4.1269,4.1699,4.1426,4.1426,4.1855,4.2226,4.2637,4.3066,4.5149,4.7149,4.8864,5.051,5.2253,5.3918,5.3846,5.4375,5.5385,5.5385,5.5987,5.7021,5.7021,5.7021,5.7021,5.7021,5.7021,5.7021,5.7021,5.7021,5.7021,5.7021,5.7021,5.7093,1.1966,1.2184,1.2465,1.2744,1.2837,1.3038,1.344,1.3973,1.4456,1.4794,1.5003,1.5137,1.5137,1.4883,1.5048,1.5806,1.5604,1.5661,1.609,1.5787,1.5421,1.5051,1.494,1.4799,1.4707,1.472,1.4881,1.5221,1.5625,1.6028,1.6398,1.6762,1.7348,1.8118,1.8871,1.9677,2.0576,2.1266,2.2795,2.4739,2.5693,2.6974,2.8589,3.1149,3.2862,3.3891,3.4064,3.3374,3.2051,3.0327,2.9961,2.9648,2.6356,2.5664,2.5487,2.2598,2.2659,2.3374,2.221,2.2129,2.2402,2.248,2.2789,0.0,2.4183,2.6365,2.8379,0.0,3.1015,3.2793,3.2871,3.2969,3.3164,3.3613,3.543,3.7656,4.0176,4.0234,4.0176,4.0605,4.0273,4.0351,4.1211,4.0898,4.084,4.1269,4.1523,4.1855,4.2285,4.2383,4.2637,4.3066,4.5149,4.7297,4.9424,5.103,5.2713,5.4447,5.4015,5.4375,5.5385,5.5385,5.5987,5.7021,5.7021,5.7021,5.7021,5.7021,5.7021,5.7021,5.7021,5.7021,5.7021,5.7021,5.7021,5.7045,1.2051,1.2198,1.2398,1.273,1.2918,1.3227,1.3919,1.4456,1.4897,1.5337,1.5524,1.5792,1.6304,1.6116,1.6325,1.7293,1.7118,1.7036,1.7192,1.6838,1.6465,1.6142,1.5577,1.5341,1.5449,1.4879,1.4962,1.5716,1.5698,1.601,1.6615,1.6817,1.8082,2.0149,1.9567,2.0539,2.2612,2.1943,2.262,2.4286,2.6136,2.845,3.1001,3.2826,3.4276,3.5252,3.5054,3.4444,3.3598,3.2498,3.1305,0.0,2.8553,2.7405,2.6201,0.0,2.395,2.4207,2.25,2.2279,2.2519,2.2519,2.2789,0.0,0.0,2.6094,2.7402,2.8691,2.9961,3.0937,3.1172,3.1211,3.1348,3.1777,3.3828,3.5586,3.6269,3.8398,4.0059,4.0469,4.0332,4.0371,4.0801,4.084,4.0937,4.1152,4.1562,4.1894,4.2109,4.2519,4.2949,4.3379,4.5474,4.7698,4.9847,5.1549,5.2811,5.3693,5.4329,5.4539,5.4492,5.5404,5.6251,5.7021,5.7021,5.7021,5.7021,5.7021,5.7021,5.7021,5.7021,5.7021,5.7021,5.7021,5.7021,5.7021,1.2315,1.2345,1.2478,1.2824,1.3133,1.3641,1.4359,1.4816,1.5257,1.5832,1.6209,1.6662,1.7349,1.7335,1.7693,1.8638,1.8534,1.8332,1.8249,1.7911,1.7758,1.7771,1.6441,1.6029,1.6802,1.539,1.5145,1.6193,1.5936,1.6156,1.6798,1.6945,1.8632,2.1431,2.0539,2.1548,2.3895,2.2942,2.3067,2.4208,0.0,2.9753,3.1881,3.3529,3.4633,3.5339,3.5312,3.5292,3.5275,3.52,3.3127,3.0641,3.0723,2.9224,0.0,0.0,0.0,0.0,0.0,2.2566,2.2637,2.2637,2.2847,2.3647,0.0,0.0,0.0,0.0,0.0,0.0,0.0,0.0,0.0,2.9863,0.0,0.0,0.0,3.5332,0.0,3.8965,3.9766,4.0137,3.9805,4.0254,4.0762,4.125,4.1308,4.1523,4.2012,4.2617,4.3223,4.3828,4.5551,4.7525,4.9799,5.116,5.2046,5.2366,5.4061,5.4375,5.3589,5.5391,5.6516,5.7021,5.7021,5.7021,5.7021,5.7021,5.7021,5.7021,5.7021,5.7021,5.7021,5.7021,5.7021,5.7021,1.2472,1.2556,1.2837,1.3106,1.3614,1.4108,1.4469,1.499,1.5551,1.6187,1.7575,1.8397,1.7871,1.8378,1.9181,2.0154,2.023,2.0411,2.0843,2.0849,2.1359,2.2618,2.0177,1.933,2.0467,1.7934,1.6327,1.5753,1.6083,1.6285,1.6361,1.7092,1.7844,1.8685,2.1687,2.2254,2.12,2.4207,2.6409,0.0,2.8526,2.8623,0.0,3.0442,3.2578,3.462,3.592,3.644,3.6131,0.0,3.4079,3.3533,0.0,3.0263,3.1292,2.6233,0.0,0.0,0.0,0.0,0.0,0.0,2.3062,2.3179,0.0,0.0,2.3549,2.39,0.0,0.0,0.0,0.0,0.0,0.0,0.0,0.0,0.0,0.0,0.0,0.0,0.0,3.875,3.7246,3.7832,3.9258,4.1562,4.0351,4.0508,4.2812,4.2656,4.3066,4.4277,4.4523,4.5904,4.8462,4.8651,4.9549,5.112,5.2354,5.3141,5.3589,5.5391,5.6516,5.7021,5.7021,5.7021,5.7021,5.7021,5.7021,5.7021,5.7021,5.7021,5.7021,5.7021,5.7021,5.7021,1.2918,1.3035,1.325,1.3414,1.3814,1.4455,1.5472,1.6278,1.6885,1.7187,1.8039,1.8972,1.9872,2.0286,2.1325,2.348,2.3287,2.3184,2.3652,2.3012,2.2491,2.2144,2.0539,1.9787,2.0063,1.8449,1.733,1.6743,1.6688,1.678,1.7,1.733,1.8852,2.1284,2.2821,2.4094,2.5213,2.7012,2.7573,0.0,0.0,2.9661,0.0,3.2403,3.4277,3.5398,3.6109,3.632,3.6166,0.0,3.4359,0.0,0.0,0.0,0.0,2.9137,0.0,0.0,0.0,0.0,0.0,0.0,0.0,0.0,2.3432,0.0,2.3101,0.0,0.0,0.0,0.0,0.0,0.0,0.0,2.5488,0.0,0.0,0.0,0.0,0.0,0.0,0.0,0.0,0.0,4.1055,4.1406,4.168,4.207,4.2676,4.2773,4.3301,4.4355,4.4629,4.5867,4.8293,4.8562,4.9533,5.1376,5.2881,5.3715,5.4026,5.5842,5.6804,5.7021,5.7021,5.7021,5.7021,5.7021,5.7021,5.7021,5.7021,5.7021,5.7021,5.7021,5.7021,5.7021,1.3641,1.3574,1.3561,1.3707,1.4082,1.4884,1.6578,1.7621,1.8378,1.8683,1.9391,2.0256,2.135,2.1973,2.3067,2.4887,2.5135,2.5352,2.5718,2.4731,2.393,2.3562,2.1518,2.0582,2.0962,1.929,1.8247,1.7825,1.744,1.7385,1.766,1.7789,1.9457,2.2382,2.3261,2.5079,2.7474,2.8537,2.8654,2.8277,3.0546,3.1745,3.2426,3.4912,3.6067,3.6258,3.6379,3.6477,3.6569,3.6112,3.5078,3.4193,3.5811,3.4458,3.2329,0.0,0.0,0.0,2.6833,0.0,0.0,0.0,0.0,0.0,0.0,0.0,0.0,0.0,0.0,0.0,0.0,0.0,0.0,0.0,0.0,2.5019,0.0,0.0,0.0,0.0,0.0,0.0,0.0,0.0,0.0,0.0,0.0,4.2539,4.2266,4.2656,4.3301,4.418,4.4746,4.5792,4.7552,4.8,4.9168,5.1011,5.2763,5.3834,5.4324,5.6174,5.7021,5.7021,5.7021,5.7021,5.7021,5.7021,5.7021,5.7021,5.7021,5.7021,5.7021,5.7021,5.7021,5.7021,1.4754,1.4062,1.368,1.4015,1.4593,1.5627,1.7556,1.8719,1.9718,2.0788,2.2436,2.2988,2.1565,2.3168,2.3866,2.2814,2.483,2.6312,2.6617,2.5913,2.6731,2.9664,2.4579,2.2748,2.5074,2.1288,1.9072,1.8669,1.8246,1.8063,1.8081,1.8485,1.8944,1.9567,2.2768,2.4477,2.5072,2.7817,3.0056,3.1873,3.2773,3.4759,3.7108,0.0,3.6709,3.6696,3.7142,0.0,0.0,3.6098,3.655,3.7442,3.5513,0.0,0.0,0.0,0.0,0.0,0.0,2.8867,2.7754,2.5615,2.4766,0.0,0.0,0.0,2.3652,0.0,0.0,0.0,0.0,0.0,0.0,2.1992,0.0,0.0,0.0,0.0,0.0,0.0,0.0,0.0,0.0,0.0,0.0,0.0,0.0,0.0,4.1758,4.2207,4.2832,4.3691,4.457,4.5234,4.575,4.6181,4.7314,4.9082,5.0927,5.268,5.4324,5.6174,5.7021,5.7021,5.7021,5.7021,5.7021,5.7021,5.7021,5.7021,5.7021,5.7021,5.7021,5.7021,5.7021,5.7021,1.636,1.634,1.6114,1.5659,1.5908,1.6817,1.8628,1.9303,2.0124,2.1465,2.1919,2.2377,2.3276,2.4123,2.56,2.8018,2.7451,2.8053,3.084,2.7922,2.7047,2.9279,2.4706,2.2985,2.4916,2.2025,2.0173,1.9472,1.9109,1.8907,1.8907,1.9036,1.9457,2.0246,2.3235,2.5587,2.7347,0.0,0.0,0.0,0.0,3.5736,3.6583,0.0,3.6754,3.6759,3.7186,3.7077,3.6748,3.678,3.6349,3.5951,3.6714,3.6292,3.5698,3.6124,3.5626,3.4611,3.3004,3.3184,3.291,2.9078,2.8809,2.8691,0.0,0.0,0.0,0.0,0.0,0.0,0.0,0.0,0.0,0.0,0.0,0.0,0.0,0.0,0.0,0.0,0.0,0.0,0.0,0.0,0.0,0.0,0.0,0.0,0.0,4.2344,4.2695,4.3262,4.4141,4.4824,4.5234,4.5664,4.6949,4.8997,5.0843,5.2169,5.3064,5.4829,5.5859,5.6185,5.5836,5.6371,5.7526,5.7165,5.7021,5.7021,5.7021,5.7021,5.7021,5.7021,5.7021,5.7021,1.7846,1.8121,1.795,1.7184,1.7539,1.8466,2.0013,2.0281,2.0937,2.2855,2.2528,2.3029,2.5271,2.6007,2.762,3.0696,3.0319,3.0526,3.2192,3.0204,2.9076,2.9159,2.6563,2.5396,2.6049,2.3651,2.2007,2.1218,2.0071,1.9604,1.9732,1.9586,1.9952,2.0814,2.2648,2.537,2.8745,3.0637,3.2755,0.0,0.0,3.6834,0.0,0.0,3.6552,3.6149,0.0,3.6885,3.6644,3.7205,3.7084,3.6881,3.8231,3.7876,3.7268,3.8333,3.7889,3.6777,3.5723,3.6152,3.5976,3.219,3.1894,3.1562,2.763,0.0,2.5615,0.0,0.0,0.0,0.0,0.0,0.0,0.0,0.0,0.0,0.0,0.0,0.0,0.0,0.0,0.0,0.0,0.0,0.0,0.0,0.0,0.0,0.0,0.0,4.2558,4.2832,4.3691,4.4433,4.5019,4.5449,4.6809,4.8997,5.0167,5.1248,5.2381,5.3476,5.469,5.5733,5.5228,5.6034,5.7766,5.7237,5.7021,5.7021,5.7021,5.7021,5.7021,5.7021,5.7021,5.7021,1.9238,1.9426,1.9273,1.8749,1.9529,2.058,2.1682,2.1545,2.2253,2.4784,2.4532,2.4948,2.7339,2.8773,2.995,3.1011,3.3088,3.3426,3.1176,3.2725,3.2572,2.9886,3.0021,2.9694,2.8672,2.6088,2.4459,2.3709,2.1189,2.0149,2.0539,2.0131,2.0393,2.1108,2.1126,2.4079,2.8971,2.8585,3.1652,3.6922,3.7697,3.795,3.7816,3.749,3.633,3.5028,3.628,3.708,3.7463,3.7481,3.8615,3.988,3.9861,4.0489,4.1191,4.1172,4.1172,4.0723,3.8652,3.7793,3.6973,3.4805,3.3945,3.2949,3.0371,2.9434,2.9113,0.0,0.0,0.0,0.0,0.0,0.0,0.0,0.0,0.0,0.0,0.0,0.0,0.0,0.0,0.0,0.0,0.0,0.0,0.0,0.0,0.0,0.0,0.0,4.2324,4.2461,4.3242,4.4101,4.5019,4.543,4.6703,4.8911,4.8997,5.0081,5.2063,5.2255,5.3535,5.5717,5.5297,5.6081,5.7814,5.7285,5.7045,5.7021,5.7021,5.7021,5.7021,5.7021,5.7021,5.7021,2.1081,2.148,2.1792,2.2087,2.2098,2.217,2.2539,2.2248,2.2708,2.482,2.5948,2.7179,2.8849,3.0965,3.3006,3.4894,3.418,3.4471,3.6401,3.4167,3.3513,3.5286,3.176,3.0473,3.1915,2.7283,2.485,2.4948,2.2163,2.0851,2.0943,2.0851,2.0906,2.1126,2.1394,2.45,2.9452,2.9628,3.2975,3.811,3.8073,3.7301,3.6228,0.0,3.6036,3.5145,3.6922,3.771,3.7988,3.8843,3.952,3.9888,3.9893,4.0277,4.0696,4.0684,4.0919,4.1055,4.0488,4.0254,3.9648,3.748,3.6621,3.5703,3.3437,3.2344,3.1777,0.0,0.0,0.0,0.0,0.0,0.0,0.0,0.0,0.0,0.0,0.0,0.0,0.0,0.0,0.0,0.0,0.0,0.0,0.0,0.0,0.0,0.0,0.0,0.0,4.2851,4.3125,4.3808,4.5019,4.5137,4.5805,4.6967,4.8331,4.8892,4.8876,5.1614,5.3622,5.4891,5.5819,5.7028,5.8343,5.7838,5.7381,5.7021,5.7021,5.7021,5.7021,5.7021,5.7021,5.7021,2.2287,2.2773,2.3207,2.3694,2.3663,2.3827,2.4706,2.3411,2.3433,2.6304,2.6215,2.6961,2.9777,3.1401,3.3144,3.5339,3.5029,3.4981,3.5738,3.5327,3.5064,3.5016,3.3875,3.342,3.3732,3.0139,0.0,2.6718,2.385,2.208,2.1383,2.1286,2.1373,2.1577,2.2091,2.4585,2.8618,3.1221,3.4207,3.734,3.7794,3.7306,0.0,3.6825,3.6647,3.6483,3.7922,3.8341,3.8398,3.9022,3.9832,4.0447,4.0465,4.0872,4.1295,4.1303,4.1425,4.1445,4.1445,4.1308,4.0879,3.9648,3.916,3.8418,3.625,3.5234,3.4831,3.4962,3.3662,3.2757,0.0,0.0,0.0,0.0,0.0,0.0,0.0,0.0,0.0,0.0,0.0,0.0,0.0,0.0,0.0,0.0,0.0,0.0,0.0,0.0,0.0,4.1621,4.2402,4.3516,4.5,4.5019,4.5449,4.6308,4.7314,4.7774,4.7668,5.0606,5.2821,5.4544,5.5699,5.7145,5.8536,5.779,5.7285,5.7021,5.7021,5.7021,5.7021,5.7021,5.7021,5.7021,2.3158,2.3652,2.4081,2.4355,2.4597,2.536,2.7211,2.4928,2.4342,2.8196,2.6691,2.6857,3.1101,3.2047,3.3096,3.4931,3.6207,3.5774,3.3211,3.6483,3.6833,3.2923,3.5976,3.685,3.497,3.334,3.1283,0.0,2.5937,2.3686,2.1968,2.182,2.1989,2.2318,2.29,0.0,0.0,3.2894,3.5376,3.5998,3.7366,3.7685,3.7321,3.7386,3.7643,3.8192,3.8986,3.9122,3.9037,3.9073,4.0161,4.1547,4.149,4.1956,4.25,4.2441,4.2168,4.1875,4.1875,4.1582,4.125,4.125,4.1211,4.0684,3.8789,3.8066,3.7884,3.824,3.5992,3.5309,3.984,0.0,0.0,0.0,0.0,0.0,0.0,0.0,0.0,0.0,0.0,0.0,0.0,0.0,0.0,0.0,0.0,0.0,0.0,0.0,0.0,4.0351,4.1777,4.332,4.5,4.5019,4.5449,4.6308,4.6308,4.6934,4.8007,4.9902,5.2296,5.4895,5.5989,5.7254,5.8536,5.7598,5.7141,5.7021,5.7021,5.7021,5.7021,5.7021,5.7021,5.7021,2.4108,2.4551,2.4905,2.5092,2.5323,2.6194,2.8196,2.6546,2.5964,2.8597,3.0671,3.296,3.5741,3.8026,3.9334,3.945,3.8973,3.849,3.8024,3.8058,3.7903,3.7469,3.6833,3.6803,3.7376,3.3893,3.1486,0.0,2.7753,2.5442,2.3372,2.3342,2.3342,2.3418,2.3308,0.0,3.0358,3.3963,0.0,3.7607,3.7498,3.7205,3.6937,3.7629,3.8128,3.8647,3.984,4.0713,4.129,4.1646,4.2423,4.3172,4.2903,4.2887,4.2891,4.2539,4.2383,4.2324,4.2324,4.2012,4.1699,4.1699,4.1426,4.1074,4.0684,4.0547,4.0565,4.0584,4.0154,3.9434,3.8608,0.0,0.0,0.0,0.0,0.0,0.0,0.0,0.0,0.0,0.0,0.0,0.0,0.0,0.0,0.0,0.0,0.0,0.0,0.0,0.0,0.0,4.2988,0.0,0.0,0.0,4.5449,4.6308,4.6308,4.7599,4.999,5.1872,5.4209,5.6987,5.8668,5.9128,5.8584,5.8392,5.7814,5.7021,5.7021,5.7021,5.7021,5.7021,5.7021,5.7021,2.5343,2.5509,2.5648,2.6081,2.6012,2.6651,2.8715,2.8245,2.8344,3.0543,3.2193,3.3707,3.5328,3.6728,3.7488,3.7217,3.7376,3.7538,3.777,3.79,3.7975,3.8013,3.7438,3.733,3.7704,3.5396,3.3123,3.0998,2.8833,2.6408,2.3824,2.3739,2.3765,2.3981,0.0,2.7642,0.0,0.0,3.5863,3.679,3.7179,3.7506,3.772,3.8305,3.9303,4.0363,4.1184,4.208,4.2779,4.2493,4.2965,4.3672,4.3457,4.3398,4.3359,4.3144,4.293,4.2754,4.2754,4.2441,4.2129,4.2129,4.1816,4.1504,4.1504,4.1328,4.1172,4.1172,4.1172,4.0508,3.832,3.582,0.0,0.0,0.0,0.0,0.0,0.0,0.0,0.0,0.0,0.0,0.0,0.0,0.0,0.0,0.0,0.0,0.0,0.0,0.0,0.0,0.0,0.0,4.5019,0.0,4.5449,4.6308,4.6308,4.7774,5.0409,5.2304,5.4725,5.7504,5.9103,5.9474,5.8969,5.8416,5.7742,5.7021,5.7021,5.7021,5.7021,5.7021,5.7021,5.7021,2.6427,2.6327,2.6499,2.7322,2.7211,2.7703,2.9684,3.0464,3.1311,3.2949,3.3303,3.3788,3.4865,3.4887,3.4954,3.5216,3.5558,3.6068,3.6898,3.7525,3.778,3.7692,3.7831,3.7831,3.7674,3.6887,3.5098,0.0,3.0266,2.764,2.4422,2.4421,2.4689,2.5293,2.7725,2.9565,3.1146,3.3868,3.5312,3.591,3.7135,3.7933,3.859,3.9364,4.0584,4.1897,4.25,4.3131,4.3628,4.2902,4.3131,4.3711,4.3711,4.3711,4.3711,4.3711,4.3476,4.3203,4.3203,4.2891,4.2558,4.2558,4.2246,4.1933,4.1933,4.168,4.1406,4.1328,4.1308,4.0625,3.834,3.6973,0.0,0.0,0.0,0.0,0.0,0.0,0.0,0.0,0.0,0.0,0.0,0.0,0.0,0.0,0.0,0.0,0.0,0.0,0.0,0.0,0.0,4.3164,4.4453,0.0,4.5449,4.6308,4.6726,4.8365,5.111,5.2908,5.5347,5.8042,5.9129,5.9426,5.9137,5.8199,5.7502,5.7021,5.7021,5.7021,5.7021,5.7021,5.7021,5.7021,2.6702,2.7046,2.7714,2.8949,2.9526,3.0359,3.2031,3.3845,3.4926,3.488,3.5462,3.6563,3.8321,3.7522,3.7419,3.8607,3.6669,3.6195,3.8236,3.7783,3.7747,3.8426,3.7862,3.7747,3.8505,3.7692,3.6558,3.5015,0.0,3.0212,2.6155,2.6524,2.7444,2.8748,2.9389,3.1291,3.4071,3.4721,3.5638,3.6727,3.7962,3.8338,3.8329,4.07,4.1676,4.1979,4.3142,4.3628,4.3711,4.3628,4.3628,4.3711,4.3711,4.3711,4.3711,4.3711,4.3672,4.3652,4.3652,4.334,4.3008,4.3008,4.2695,4.2363,4.2363,4.2344,4.2207,4.1816,4.1738,4.0957,3.8398,3.9687,4.0488,0.0,0.0,0.0,0.0,0.0,0.0,0.0,0.0,0.0,0.0,0.0,0.0,0.0,0.0,0.0,0.0,0.0,0.0,4.1016,0.0,4.1387,4.2656,4.4238,4.5449,4.6308,4.7986,5.0227,5.2994,5.4806,5.7257,5.9895,6.0039,5.9546,5.8632,5.8055,5.7502,5.7021,5.7021,5.7021,5.7021,5.7021,5.7021,5.7021,2.8826,2.9026,2.953,3.0917,3.1209,3.1425,3.1963,3.3644,3.489,3.5055,3.6569,3.7794,3.8253,3.7891,3.7931,3.8701,3.7783,3.7684,3.8865,3.8427,3.8238,3.8579,3.7842,3.7665,3.8243,3.7449,3.639,3.5139,3.3219,3.109,2.8861,2.8708,2.9543,3.1171,3.2329,3.3495,3.4884,3.6236,3.7173,3.7899,3.8942,3.9722,4.0425,4.1662,4.2468,4.2983,4.355,4.3711,4.3711,4.3711,4.3711,4.3711,4.3711,4.3711,4.3711,4.3711,4.3711,4.3711,4.3711,4.3574,4.3457,4.3457,4.3144,4.2812,4.2812,4.2617,4.2383,4.2207,4.1973,4.1484,4.0449,4.0039,3.9922,4.0098,0.0,0.0,0.0,0.0,0.0,0.0,0.0,0.0,0.0,0.0,0.0,0.0,0.0,0.0,0.0,0.0,0.0,4.1504,0.0,4.293,4.4726,4.4941,4.5449,4.6308,4.7312,4.9634,5.3251,5.4245,5.6666,6.0171,6.0171,5.957,5.8584,5.8367,5.779,5.7021,5.7021,5.7021,5.7021,5.7021,5.7021,5.7021,3.0966,3.1007,3.113,3.2189,3.2089,3.2057,3.2604,3.3739,3.4987,3.5869,3.7386,3.8232,3.7997,3.7587,3.7597,3.8429,3.7909,3.7965,3.9104,3.8843,3.8662,3.8762,3.8246,3.7952,3.8004,3.7417,3.6641,3.5668,3.3691,3.21,3.0835,2.9986,3.0847,3.3138,3.4284,3.5026,3.5624,3.7438,3.8248,3.8536,3.9877,4.0838,4.1714,4.248,4.2882,4.3112,4.3546,4.3546,4.338,4.3628,4.3789,4.3887,4.375,4.3789,4.3906,4.3906,4.4004,4.4101,4.4101,4.4101,4.4101,4.4101,4.3769,4.3476,4.3476,4.3027,4.2578,4.2461,4.2187,4.1992,4.1992,4.0742,4.0117,4.1348,0.0,0.0,0.0,0.0,0.0,0.0,0.0,3.8965,3.8965,0.0,0.0,0.0,0.0,0.0,0.0,0.0,0.0,0.0,0.0,0.0,4.5137,4.5078,4.5449,4.6308,4.7247,4.9625,5.3273,5.4945,5.7352,6.0171,6.0171,5.957,5.8608,5.8608,5.7983,5.7021,5.7021,5.7021,5.7021,5.7021,5.7021,5.7021,3.2764,3.2728,3.2469,3.233,3.1986,3.2483,3.4735,3.5055,3.5869,3.8015,3.7998,3.7895,3.8289,3.6856,3.6555,3.8247,3.6459,3.6409,3.903,3.8765,3.8751,3.9164,3.9146,3.8803,3.8004,3.7986,3.7747,3.741,3.5588,3.3679,3.1559,2.9807,3.1055,3.4754,3.479,3.5521,3.6724,3.8079,3.8338,3.8248,4.0745,4.1511,4.132,4.3041,4.2863,4.1863,4.3195,4.3131,4.2569,4.338,4.4004,4.4316,4.3848,4.4023,4.4394,4.4394,4.4687,4.5,4.5,4.5,4.5,4.5,4.4687,4.4375,4.4375,4.3711,4.2949,4.2519,4.2422,4.2422,4.2422,4.2402,4.2383,4.2402,4.2051,0.0,0.0,0.0,0.0,0.0,3.9902,3.9883,3.9883,0.0,0.0,0.0,0.0,0.0,0.0,0.0,0.0,4.0586,4.0547,0.0,4.2461,4.416,4.5449,4.6308,4.8519,5.082,5.3359,5.8,6.0171,6.0171,6.0171,5.957,5.8608,5.8608,5.7983,5.7021,5.7021,5.7021,5.7021,5.7021,5.7021,5.7021,3.1167,3.2368,3.3313,3.3978,3.5061,3.5629,3.4822,3.5752,3.639,3.6142,3.7131,3.7912,3.8289,3.7641,3.7505,3.8365,3.8064,3.8199,3.9045,3.9009,3.8832,3.8751,3.8733,3.8472,3.7935,3.8016,3.7793,3.7445,3.5968,3.4879,3.4162,3.3607,3.4501,3.6599,3.718,3.7647,3.8096,3.9321,3.9977,4.0234,4.1335,4.203,4.2544,4.3093,4.3214,4.3112,4.3546,4.374,4.3762,4.4096,4.4473,4.4805,4.4648,4.4707,4.4824,4.4824,4.4922,4.5019,4.5019,4.5019,4.4961,4.4668,4.4492,4.4316,4.4004,4.3476,4.3047,4.2891,4.2402,4.1992,4.1992,4.1758,4.166,4.1953,4.1894,4.1953,4.2363,0.0,0.0,0.0,4.1367,4.1308,0.0,4.2812,0.0,0.0,0.0,0.0,0.0,0.0,0.0,0.0,4.2246,0.0,4.5058,4.5332,4.5742,4.6308,4.8911,5.2238,5.6165,5.8969,6.0171,6.0171,6.0171,5.957,5.8608,5.8608,5.7983,5.7021,5.7021,5.7021,5.7021,5.7021,5.7021,5.7021,3.1717,3.3218,3.4272,3.4244,3.5488,3.6137,3.4922,3.5684,3.6339,3.6346,3.7266,3.8066,3.8306,3.8118,3.815,3.8405,3.863,3.8835,3.9032,3.9099,3.8989,3.8766,3.8749,3.8554,3.8163,3.8163,3.7958,3.7548,3.6895,3.657,3.6648,3.6958,3.7324,3.789,3.8527,3.8635,3.8426,3.9887,4.0629,4.0952,4.1515,4.2156,4.2818,4.2818,4.2997,4.3279,4.3799,4.409,4.4207,4.4544,4.4922,4.5273,4.5273,4.5371,4.5469,4.5312,4.5391,4.5469,4.5312,4.5273,4.5176,4.4746,4.4512,4.4238,4.3613,4.3379,4.3262,4.3105,4.2773,4.2461,4.2305,4.207,4.1875,4.1816,4.1933,4.207,4.2168,0.0,0.0,0.0,0.0,0.0,0.0,4.2226,4.2187,0.0,0.0,0.0,0.0,0.0,0.0,4.2539,4.3457,4.4648,4.6055,4.5644,4.5723,4.6308,4.982,5.3495,5.7441,5.9365,6.0171,6.0171,6.0171,5.969,5.8872,5.868,5.8103,5.7285,5.7093,5.7021,5.7021,5.7021,5.7021,5.7021,3.3659,3.4839,3.5119,3.3466,3.4065,3.4906,3.5312,3.536,3.6003,3.8015,3.8323,3.834,3.8375,3.8375,3.8375,3.8375,3.834,3.8512,3.8974,3.8957,3.8953,3.9006,3.9073,3.8896,3.8489,3.8554,3.8388,3.794,3.8371,3.8618,3.8618,3.9441,3.9359,3.8618,3.9112,3.8883,3.8158,3.9793,4.0556,4.0593,4.1379,4.1965,4.2318,4.244,4.2499,4.2669,4.3994,4.4199,4.3947,4.4803,4.5371,4.5723,4.5723,4.5996,4.623,4.584,4.5976,4.6172,4.5781,4.5644,4.5527,4.5098,4.4668,4.4141,4.3301,4.3398,4.3555,4.3164,4.3359,4.3496,4.3105,4.3027,4.2773,4.2012,4.2187,4.2305,4.1933,4.2207,4.1836,0.0,0.0,0.0,4.0078,4.0078,4.0684,0.0,0.0,0.0,0.0,0.0,4.3223,4.373,4.4199,4.4824,4.5625,4.5234,4.5555,4.661,5.1143,5.4748,5.7441,5.9365,6.0171,6.0171,6.0171,5.9883,5.9353,5.8824,5.8271,5.7766,5.7237,5.7021,5.7021,5.7021,5.7021,5.7021,3.2462,3.4028,3.5107,3.5367,3.6801,3.7828,3.757,3.757,3.769,3.8237,3.8323,3.8443,3.8751,3.8785,3.8785,3.8785,3.8494,3.846,3.8942,3.8666,3.846,3.8459,3.88,3.888,3.8478,3.8812,3.8754,3.8453,3.8536,3.8618,3.8618,3.8783,3.8783,3.8636,3.9749,4.0125,3.9894,4.0647,4.0895,4.0895,4.1071,4.1462,4.2003,4.2995,4.3606,4.4013,4.4661,4.4985,4.5269,4.5441,4.5801,4.6152,4.6152,4.623,4.6289,4.6191,4.5996,4.5801,4.5703,4.543,4.5078,4.4648,4.4199,4.3808,4.3613,4.3379,4.3203,4.3105,4.2891,4.2695,4.2598,4.2578,4.2617,4.2754,4.2578,4.25,4.2734,4.2578,4.2285,4.1875,4.1836,4.1836,4.1836,4.1836,4.1445,0.0,0.0,0.0,4.1601,4.1933,4.2754,4.4199,4.4648,4.498,4.5176,4.5078,4.6359,4.9015,5.2239,5.4996,5.7441,5.9365,6.0171,6.0171,6.0171,5.9883,5.9353,5.8824,5.8271,5.7766,5.7237,5.7021,5.7021,5.7021,5.7021,5.7021,3.2361,3.4468,3.6188,3.6464,3.7877,3.8854,3.8323,3.8323,3.8323,3.8323,3.8477,3.8683,3.8888,3.9059,3.9231,3.9419,3.8922,3.8614,3.8648,3.8443,3.8323,3.8323,3.8512,3.8665,3.8711,3.888,3.9028,3.9068,3.9319,3.9551,3.9736,4.0151,3.9985,3.9486,4.0352,4.0377,3.9892,4.0698,4.1042,4.106,4.1497,4.2059,4.2705,4.3395,4.4276,4.5019,4.5234,4.5605,4.5957,4.5957,4.6113,4.6308,4.6308,4.6172,4.6016,4.6016,4.5859,4.5625,4.543,4.5058,4.4629,4.4199,4.3887,4.3711,4.3711,4.3535,4.3359,4.3359,4.3164,4.2949,4.2754,4.2715,4.2734,4.2773,4.2266,4.2148,4.2969,4.2695,4.2656,4.3262,4.3496,4.3613,4.3613,4.3613,4.3223,4.2305,4.2461,0.0,4.293,4.334,4.4004,4.4941,4.5019,4.5117,4.5312,4.5508,4.7486,5.1124,5.2996,5.5539,5.8662,5.9726,6.0171,6.0171,6.0171,6.0003,5.969,5.8921,5.844,5.8103,5.7333,5.7021,5.7021,5.7021,5.7021,5.7021,3.3395,3.5787,3.7414,3.6999,3.8066,3.8768,3.798,3.8203,3.8392,3.834,3.8666,3.8922,3.8922,3.9248,3.959,3.9916,3.9419,3.894,3.8614,3.8529,3.8477,3.8426,3.8409,3.8563,3.8854,3.8939,3.9281,3.9774,4.0059,4.0445,4.0866,4.1537,4.1286,4.0192,4.0584,4.0282,3.9366,4.0524,4.1049,4.1255,4.2255,4.3018,4.3733,4.3919,4.475,4.5683,4.5742,4.5996,4.6308,4.6308,4.6308,4.6289,4.623,4.5957,4.5664,4.5605,4.5527,4.541,4.5039,4.4629,4.4199,4.3808,4.3711,4.3711,4.3711,4.3711,4.3711,4.3711,4.3711,4.3594,4.3242,4.3183,4.2988,4.2422,4.1836,4.1777,4.2656,4.2695,4.3027,4.416,4.4726,4.5019,4.5019,4.5019,4.5019,4.5019,4.5019,4.5058,4.5117,4.5469,4.5703,4.5762,4.5293,4.5195,4.5566,4.6133,4.8377,5.2235,5.3451,5.6038,5.9811,6.0087,6.0171,6.0171,6.0171,6.0123,5.9979,5.8993,5.856,5.8392,5.7405,5.7021,5.7021,5.7021,5.7021,5.7021,3.7085,3.7718,3.7414,3.6983,3.8049,3.8323,3.6275,3.7541,3.87,3.8375,3.8666,3.8922,3.8922,3.9248,3.9488,3.9556,3.9744,3.983,3.9779,3.947,3.9145,3.8837,3.882,3.8666,3.8426,3.8768,3.9451,4.03,3.9622,3.9545,3.9945,3.9713,3.9461,3.9311,3.9716,4.0198,4.0723,4.0898,4.147,4.2255,4.3111,4.3538,4.3852,4.498,4.5519,4.5723,4.6074,4.625,4.6308,4.6308,4.6308,4.623,4.5879,4.5723,4.5605,4.5234,4.4883,4.459,4.4512,4.416,4.3789,4.373,4.3711,4.3711,4.3711,4.3711,4.3711,4.3711,4.3711,4.3691,4.3613,4.3613,4.3223,4.209,4.2402,4.248,4.1601,4.2637,4.3574,4.3789,4.4531,4.5019,4.5019,4.5019,4.5019,4.5019,4.5019,4.5176,4.5566,4.5644,4.584,4.6191,4.543,4.5058,4.5117,4.6269,4.8162,5.0743,5.3232,5.5595,5.787,5.9473,6.0171,6.0171,6.0171,5.9931,5.9474,5.8848,5.8343,5.7862,5.7261,5.7021,5.7021,5.7021,5.7021,5.7021,3.5394,3.6648,3.7595,3.6813,3.7264,3.7561,3.7119,3.7857,3.8614,3.8648,3.8974,3.9299,3.9488,3.9847,4.007,4.007,4.0224,4.0327,4.0327,3.9796,3.9385,3.9214,3.9214,3.9128,3.894,3.8924,3.9252,3.994,3.9618,3.9676,4.0114,4.0668,4.0759,4.0524,4.1178,4.1531,4.1702,4.2247,4.2665,4.3216,4.4339,4.477,4.4894,4.5666,4.6016,4.6035,4.623,4.6308,4.6308,4.6308,4.6152,4.5937,4.5742,4.5351,4.4941,4.4746,4.4551,4.4336,4.4082,4.3867,4.3711,4.3711,4.3711,4.3711,4.3711,4.3711,4.3711,4.3711,4.3711,4.3711,4.3711,4.3711,4.3516,4.293,4.2578,4.2422,4.2519,4.2812,4.3359,4.4297,4.498,4.5469,4.5683,4.5703,4.5703,4.5703,4.5703,4.5801,4.5996,4.6016,4.6113,4.6289,4.5918,4.5703,4.5703,4.6758,4.8957,5.2256,5.3821,5.6011,5.8941,5.9811,6.0171,6.0171,6.0171,6.0027,5.9738,5.8945,5.8464,5.8151,5.7333,5.7021,5.7021,5.7021,5.7021,5.7021,3.3725,3.529,3.6856,3.6251,3.6291,3.6736,3.7715,3.8321,3.87,3.9008,3.9368,3.9676,3.9881,4.0224,4.0446,4.0446,4.0532,4.0583,4.0583,3.9592,3.9147,3.9607,3.9505,3.947,3.947,3.9111,3.9166,3.9583,3.9368,3.9564,4.009,4.1159,4.1512,4.1434,4.2284,4.2679,4.2685,4.3469,4.3956,4.4253,4.5385,4.582,4.5859,4.6172,4.6308,4.6308,4.6308,4.6308,4.6289,4.6191,4.5937,4.5644,4.5449,4.4922,4.4375,4.4277,4.4238,4.416,4.3808,4.3711,4.3711,4.3711,4.3711,4.3711,4.3711,4.3711,4.3711,4.3711,4.3711,4.3711,4.3711,4.3711,4.3613,4.332,4.2695,4.248,4.3164,4.3047,4.3418,4.4844,4.541,4.584,4.6269,4.6308,4.6308,4.6308,4.6308,4.6308,4.6308,4.6308,4.6348,4.6445,4.6445,4.6445,4.6445,4.7632,5.0128,5.3887,5.4609,5.6787,6.0171,6.0171,6.0171,6.0171,6.0171,6.0099,5.9931,5.9113,5.8704,5.8512,5.7694,5.7309,5.7213,5.7213,5.7117,5.7021,3.5306,3.4943,3.4483,3.4717,3.5222,3.5836,3.6562,3.8291,3.9385,3.9419,3.9762,3.9864,3.9539,3.9847,4.007,4.007,4.0395,4.0583,4.0583,3.8531,3.8137,3.9895,3.9659,3.947,3.947,3.9111,3.9166,3.9583,3.851,3.84,3.9174,3.9258,3.979,4.0506,4.1415,4.2504,4.3671,4.4049,4.4741,4.5578,4.6094,4.625,4.625,4.6289,4.6308,4.6308,4.6308,4.6308,4.625,4.5859,4.5703,4.5547,4.4746,4.4453,4.4316,4.3887,4.375,4.375,4.3711,4.3711,4.3711,4.3711,4.3711,4.3711,4.3711,4.3711,4.3711,4.3711,4.3711,4.3711,4.3711,4.3711,4.332,4.2129,4.2851,4.3183,4.209,4.3281,4.4453,4.4961,4.541,4.584,4.6269,4.6308,4.6308,4.6308,4.6308,4.6308,4.6308,4.6308,4.6484,4.6875,4.6875,4.6875,4.6875,4.8972,5.1341,5.3887,5.5681,5.777,6.0171,6.0171,6.0171,6.0171,6.0171,5.9907,5.945,5.9353,5.9041,5.8584,5.8512,5.8175,5.7742,5.7742,5.743,5.7021,3.2274,3.237,3.3067,3.3531,3.3858,3.4937,3.7639,3.8673,3.9299,3.9762,3.995,4.007,4.0155,3.9174,3.8513,3.8513,3.7512,3.6836,3.6633,3.6873,3.7446,3.8277,3.9256,3.9813,3.9813,3.8269,3.7705,3.8278,3.7308,3.7315,3.8203,4.0216,4.1475,4.2069,4.3528,4.4636,4.53,4.5454,4.5706,4.6074,4.623,4.6308,4.6308,4.6308,4.6308,4.6269,4.6016,4.5918,4.5859,4.543,4.5098,4.4824,4.4492,4.4199,4.3926,4.375,4.3711,4.3711,4.3711,4.3711,4.3711,4.3711,4.3711,4.3711,4.3711,4.3711,4.3711,4.3711,4.3711,4.3711,4.3711,4.3711,4.3535,4.3066,4.3379,4.3535,4.3047,4.3555,4.4219,4.4941,4.5176,4.5547,4.623,4.6308,4.6308,4.6308,4.6308,4.6426,4.668,4.6953,4.7285,4.7715,4.7715,4.7715,4.7715,4.9981,5.2212,5.4325,5.6174,5.822,6.0171,6.0171,6.0171,6.0171,6.0171,6.0051,5.9859,5.9522,5.9065,5.856,5.8223,5.779,5.7309,5.7309,5.7189,5.7021,3.0254,3.0816,3.2237,3.3367,3.3888,3.5211,3.8687,3.9265,3.9222,3.9295,3.9272,3.9084,3.8768,3.7483,3.6653,3.6653,3.5341,3.4436,3.4216,3.5758,3.6797,3.6998,3.7646,3.8292,3.8937,3.7306,3.691,3.7929,3.7181,3.743,3.8477,4.0552,4.2177,4.3291,4.4501,4.5444,4.6113,4.625,4.6308,4.6308,4.6308,4.6308,4.6308,4.6308,4.623,4.6074,4.5781,4.5586,4.541,4.498,4.4629,4.4375,4.4219,4.3965,4.3711,4.3711,4.3711,4.3711,4.3711,4.3711,4.3711,4.3711,4.3711,4.3711,4.3711,4.3711,4.3711,4.3711,4.3711,4.3711,4.3711,4.3711,4.3711,4.3711,4.3711,4.3711,4.3711,4.3711,4.4023,4.4922,4.5019,4.5351,4.623,4.6308,4.6308,4.6308,4.6308,4.6484,4.6914,4.7461,4.791,4.8203,4.834,4.8418,4.8418,5.1039,5.2957,5.4369,5.6845,5.8776,6.0171,6.0171,6.0171,6.0171,6.0171,6.0171,6.0123,5.9594,5.9161,5.88,5.8271,5.7742,5.7261,5.7261,5.7165,5.7021,3.0301,3.0897,3.2009,3.4289,3.5504,3.6998,3.9648,3.9946,3.9419,3.7819,3.7575,3.6837,3.4872,3.4578,3.4578,3.4578,3.4285,3.4202,3.4202,3.5416,3.6193,3.6543,3.4819,3.4728,3.6559,3.6298,3.7019,3.8905,3.8529,3.9007,4.0349,3.9943,4.1074,4.3702,4.3719,4.4396,4.5703,4.6133,4.6308,4.6308,4.6308,4.6308,4.6308,4.6308,4.6035,4.5683,4.5664,4.5391,4.4961,4.4531,4.4394,4.4316,4.3848,4.3711,4.3711,4.3711,4.3711,4.3711,4.3711,4.3711,4.3711,4.3711,4.3711,4.3711,4.3711,4.3711,4.3711,4.3711,4.3711,4.3711,4.3711,4.3711,4.3711,4.3711,4.3711,4.3711,4.3711,4.3711,4.4023,4.4922,4.5019,4.5351,4.6211,4.6308,4.6308,4.6308,4.6308,4.6504,4.6914,4.7754,4.8223,4.8223,4.8633,4.8867,4.8867,5.2103,5.38,5.3974,5.7635,5.9666,6.0171,6.0171,6.0171,6.0171,6.0171,6.0171,6.0123,5.9594,5.9378,5.9329,5.88,5.8271,5.779,5.779,5.7478,5.7021,2.9912,2.9873,3.0812,3.374,3.4262,3.5645,3.9413,3.8834,3.7847,3.7636,3.6359,3.5245,3.4686,3.3177,3.2212,3.2212,3.1857,3.2133,3.3375,3.3591,3.3766,3.3856,3.6154,3.7639,3.8184,3.6804,3.6538,3.7528,3.6703,3.6896,3.7946,3.9178,4.0328,4.1391,4.2672,4.362,4.4296,4.5327,4.5783,4.587,4.6133,4.6308,4.6308,4.6308,4.6035,4.5644,4.5332,4.4941,4.4512,4.4062,4.3906,4.3887,4.375,4.3711,4.3711,4.3711,4.3711,4.3711,4.3711,4.3711,4.3711,4.3711,4.3711,4.3711,4.3711,4.3711,4.3711,4.3711,4.3711,4.3711,4.3711,4.3711,4.3711,4.3711,4.3711,4.3711,4.3711,4.3711,4.3926,4.4512,4.4844,4.5254,4.5801,4.6133,4.6308,4.6308,4.6855,4.7383,4.7793,4.8359,4.8672,4.8672,4.8789,4.8867,4.8867,5.2418,5.4281,5.4391,5.8173,6.0027,6.0171,6.0171,6.0171,6.0171,6.0171,5.9955,5.9618,5.945,5.8945,5.8271,5.8103,5.7718,5.7261,5.7261,5.7165,5.7021,3.0016,3.0385,3.1528,3.4217,3.4352,3.5182,3.8604,3.7376,3.5868,3.5323,3.4125,3.3333,3.3205,3.1918,3.1395,3.2015,3.1817,3.2327,3.396,3.394,3.4185,3.4884,3.7318,3.8319,3.7608,3.6441,3.6431,3.7447,3.6913,3.7086,3.8049,3.8751,3.9642,4.066,4.1651,4.2573,4.3441,4.4743,4.5431,4.5607,4.6133,4.6308,4.6308,4.6308,4.5937,4.5391,4.5117,4.4629,4.4082,4.3789,4.3711,4.3711,4.3711,4.3711,4.3711,4.3711,4.3711,4.3711,4.3711,4.3711,4.3711,4.3711,4.3711,4.3711,4.3711,4.3711,4.3711,4.3711,4.3711,4.3711,4.3711,4.3711,4.3711,4.3711,4.3711,4.3711,4.3711,4.3711,4.3945,4.457,4.4863,4.5254,4.5859,4.6152,4.6308,4.6308,4.709,4.7695,4.7949,4.8718,4.9144,4.8959,4.9052,4.94,5.0002,5.3013,5.4499,5.4587,5.8407,6.0171,6.0171,6.0171,6.0171,6.0171,6.0171,5.9883,5.9378,5.9161,5.8584,5.779,5.7574,5.7229,5.6782,5.6941,5.6861,5.6782,3.0394,3.1629,3.3273,3.5241,3.5061,3.5364,3.7371,3.5791,3.375,3.1908,3.1434,3.1233,3.1022,3.0956,3.1645,3.334,3.3395,3.396,3.5423,3.5668,3.6464,3.798,3.8237,3.7533,3.5755,3.5755,3.6551,3.8323,3.8323,3.8751,3.9519,3.8666,3.9195,4.0796,4.0887,4.1662,4.2883,4.4385,4.5166,4.5519,4.6046,4.6308,4.6308,4.6308,4.5762,4.5019,4.5019,4.4453,4.3711,4.3711,4.3711,4.3711,4.3711,4.3711,4.3711,4.3711,4.3711,4.3711,4.3711,4.3711,4.3711,4.3711,4.3711,4.3711,4.3711,4.3711,4.3711,4.3711,4.3711,4.3711,4.3711,4.3711,4.3711,4.3711,4.3711,4.3711,4.3711,4.3711,4.4023,4.4863,4.5,4.5351,4.6172,4.6289,4.6308,4.6348,4.7198,4.7687,4.7727,4.8875,4.942,4.8959,4.942,5.0297,5.1688,5.3615,5.4587,5.4763,5.8492,6.0171,6.0171,6.0171,6.0171,6.0171,6.0171,5.9834,5.9199,5.88,5.8271,5.7694,5.7213,5.6782,5.6486,5.6782,5.6702,5.6325,3.0702,3.0836,3.1688,3.3605,3.3665,3.4146,3.619,3.4377,3.2744,3.2286,3.0496,2.9728,3.0835,3.0783,3.1345,3.302,3.4299,3.5121,3.5494,3.6913,3.7258,3.6102,3.7533,3.8152,3.7705,3.7705,3.7877,3.8323,3.8323,3.8409,3.858,3.8409,3.8666,3.9409,4.082,4.137,4.1426,4.4215,4.5059,4.4599,4.5851,4.6308,4.6308,4.6308,4.5762,4.5019,4.5019,4.4453,4.3711,4.3711,4.3711,4.3711,4.3711,4.3711,4.3711,4.3711,4.3711,4.3711,4.3711,4.3711,4.3711,4.3711,4.3711,4.3711,4.3711,4.3711,4.3711,4.3711,4.3711,4.3711,4.3711,4.3711,4.3711,4.3711,4.3711,4.3711,4.3711,4.3711,4.3906,4.4473,4.4824,4.5234,4.5762,4.6113,4.6445,4.6777,4.7642,4.8274,4.872,4.9306,4.9512,4.942,4.9512,5.0297,5.1688,5.4013,5.5684,5.6814,5.9111,6.0171,6.0171,6.0171,6.0003,5.9642,6.0003,5.9475,5.8259,5.8468,5.8055,5.7189,5.7069,5.6782,5.6405,5.6486,5.6221,5.5876,3.0996,3.1049,3.1719,3.3658,3.2943,3.2664,3.442,3.2556,3.0877,3.0592,2.9471,2.95,3.1923,3.2097,3.2999,3.5373,3.6318,3.6827,3.6827,3.7791,3.7877,3.6913,3.7791,3.8323,3.8323,3.8323,3.8323,3.8323,3.8323,3.8323,3.8323,3.8751,3.8959,3.9009,4.103,4.1668,4.1551,4.4183,4.5059,4.4971,4.5939,4.6308,4.6308,4.6308,4.5762,4.5019,4.5019,4.4453,4.3711,4.3711,4.3711,4.3711,4.3711,4.3711,4.3711,4.3711,4.3711,4.3711,4.3711,4.3711,4.3711,4.3711,4.3711,4.3711,4.3711,4.3711,4.3711,4.3711,4.3711,4.3711,4.3711,4.3711,4.3711,4.3711,4.3711,4.3711,4.3711,4.3711,4.3945,4.4629,4.4902,4.5273,4.5918,4.6172,4.6474,4.6885,4.7761,4.8484,4.8992,4.9793,5.0499,5.0914,5.1207,5.236,5.4433,5.5684,5.7096,5.8771,5.9726,6.0171,6.0171,6.0171,6.0087,5.9835,6.0087,5.9487,5.8256,5.8502,5.7983,5.6941,5.6782,5.6462,5.6037,5.6037,5.5795,5.5368,3.1303,3.1503,3.2219,3.3793,3.2394,3.146,3.2556,3.0864,2.928,2.8812,2.8584,2.9659,3.2697,3.3539,3.5049,3.8031,3.8323,3.8323,3.8323,3.8323,3.8323,3.8323,3.8323,3.8323,3.8323,3.8323,3.8323,3.8323,3.8323,3.8409,3.858,3.9348,3.9595,3.9531,4.1568,4.2404,4.2526,4.4379,4.5255,4.5519,4.6046,4.6308,4.6308,4.6308,4.5762,4.5019,4.5019,4.4453,4.3711,4.3711,4.3711,4.3711,4.3711,4.3711,4.3711,4.3711,4.3711,4.3711,4.3711,4.3711,4.3711,4.3711,4.3711,4.3711,4.3711,4.3711,4.3711,4.3711,4.3711,4.3711,4.3711,4.3711,4.3711,4.3711,4.3711,4.3711,4.3711,4.3711,4.4023,4.4922,4.5156,4.5527,4.6318,4.6396,4.6571,4.7007,4.7917,4.8751,4.9453,5.0674,5.1847,5.2855,5.3344,5.4829,5.7355,5.7441,5.8407,6.0171,6.0171,6.0171,6.0171,6.0171,6.0171,6.0087,6.0171,5.957,5.8502,5.8608,5.7902,5.6861,5.6566,5.606,5.5611,5.553,5.5311,5.4986,3.161,3.1637,3.1758,3.2043,3.1853,3.1474,3.1284,3.0509,2.9841,2.9375,2.8689,2.8974,3.0768,3.3487,3.6041,3.8152,3.8323,3.8323,3.8323,3.8323,3.8323,3.8323,3.8323,3.8323,3.8323,3.8323,3.8323,3.8323,3.8323,3.8751,3.9519,3.9604,4.0422,4.1796,4.2993,4.3354,4.3353,4.5285,4.5695,4.5078,4.5958,4.6308,4.6308,4.6308,4.5762,4.5019,4.5019,4.4453,4.3711,4.3711,4.3711,4.3711,4.3711,4.3711,4.3711,4.3711,4.3711,4.3711,4.3711,4.3711,4.3711,4.3711,4.3711,4.3711,4.3711,4.3711,4.3711,4.3711,4.3711,4.3711,4.3711,4.3711,4.3711,4.3711,4.3711,4.3711,4.3711,4.3711,4.4023,4.4922,4.5683,4.6346,4.6813,4.692,4.692,4.7007,4.8231,4.9728,5.1326,5.203,5.3094,5.4807,5.5005,5.5794,5.7355,5.7808,5.8771,6.0171,6.0171,6.0171,6.0171,6.0171,6.0003,5.9666,6.0003,5.9403,5.801,5.842,5.7739,5.6486,5.6405,5.59,5.5149,5.4742,5.4579,5.4498,3.1664,3.1664,3.1664,3.1664,3.1664,3.1379,3.0617,3.0223,2.9791,2.8879,2.8472,2.878,3.028,3.3487,3.6291,3.8152,3.8323,3.8323,3.8323,3.8323,3.8323,3.8323,3.8323,3.8323,3.8323,3.8323,3.858,3.9093,3.9093,3.9263,3.9689,4.0705,4.1549,4.2302,4.3804,4.4366,4.4352,4.5675,4.6046,4.5695,4.6133,4.6308,4.6289,4.6035,4.5566,4.4961,4.4473,4.4043,4.3711,4.3711,4.3711,4.3711,4.3711,4.3711,4.3711,4.3711,4.3711,4.3711,4.3711,4.3711,4.3711,4.3711,4.3711,4.3711,4.3711,4.3711,4.3711,4.3711,4.3711,4.3711,4.3711,4.3711,4.3711,4.3711,4.3711,4.3711,4.3711,4.3711,4.4106,4.5241,4.6127,4.692,4.7354,4.7354,4.7528,4.7768,4.8606,4.9476,5.0273,5.1906,5.3516,5.4848,5.6181,5.755,5.8941,5.9219,5.9558,6.0171,6.0171,6.0171,6.0171,6.0171,5.9919,5.9464,5.9655,5.8889,5.7499,5.7744,5.7129,5.5956,5.5738,5.5311,5.4661,5.4498,5.4416,5.4416]}]]